     2              OBSERVATION DATA    GPS                 RINEX VERSION / TYPE
TRRINEXO V2.6.3 UX                                          PGM / RUN BY / DATE
                                                            COMMENT
Original Marker Name: CHER                                  COMMENT
Campaign Name: STRC 1997                                    COMMENT
4-Character Station Name: CHER                              COMMENT
6-Character Antenna Code: TRMSST                            COMMENT
Vertical Measurement Point: TGP                             COMMENT
Vertical Offset to Rinex Ref. Point: 0.0629                 COMMENT
Radial Measurement Point: NGP                               COMMENT
Radial Offset to Rinex Ref. Point: 0.2334                   COMMENT
Antenna Height from Field Measurement: 1.6510 m             COMMENT
Original XYZ: -2399388.4137 -4718877.1445 3547229.2748      COMMENT
New XYZ position is based on association with SCEC monument COMMENT
E1D0S0U4+0011. Position of that monument is believed to be  COMMENT
valid to within 1 m horizontally; vertical accuracy         COMMENT
should be no worse than 3-times this value.                 COMMENT
                                                            COMMENT
Revised Rinex header created by UCSD GPS archive for        COMMENT
GSAC on 17-Apr-1999 (1999:107) 02:05:44 GMT                 COMMENT
For assistance contact dagnew@ucsd.edu or hjohnson@ucsd.edu COMMENT
                                                            COMMENT
CHERRY                                                      MARKER NAME
0051                                                        MARKER NUMBER
RICK RIVERSIDE COUNTY FCWCD                                 OBSERVER / AGENCY
2241 TRIMBLE 4000 SSE 7.22 / 3.06                           REC # / TYPE / VERS
0466 TR 4000SST L1/L2 GEO                                   ANT # / TYPE
 -2399463.0000 -4719012.0000  3547319.0000                  APPROX POSITION XYZ
        1.5715        0.0000        0.0000                  ANTENNA: DELTA H/E/N
     1     1     0                                          WAVELENGTH FACT L1/2
     7    C1    L1    L2    P2    P1    D1    D2            # / TYPES OF OBSERV
    30                                                      INTERVAL
  1997     3     3    15     0   30.000000                  TIME OF FIRST OBS
  1997     3     3    23    30    0.000000                  TIME OF LAST OBS
     0                                                      # OF SATELLITES
                                                            END OF HEADER
 97  3  3 15  0 30.0000000  0  7 29  4 14 16 18 19 22
  21120365.586      230641.25417    150337.59557  21120365.1524
     -1333.703       -1039.249
  24807721.352        8627.91113
      -521.906
  20519087.703      343526.13717    251067.95657  20519088.4534
     -1852.547       -1443.543
  20809011.906     -115472.66217    -83905.81953  20809005.9534
       345.922         269.550
  22480378.172     -425924.68016   -314612.47451  22480372.7584
      1883.312        1467.516
  23179787.977     -427871.29715
      1876.578
  21283075.711      299282.70317    233206.65057  21283076.3094
     -1645.422       -1282.147
 97  3  3 15  1  0.0000000  0  7 29  4 14 16 18 19 22
  21128096.484      271268.296 7    181995.03847  21128096.1564
     -1374.438       -1070.990
  24810840.211       25019.512 3
      -570.406
  20529806.203      399851.643 7    294957.96147  20529807.1174
     -1902.203       -1482.236
  20807179.391     -125101.667 7    -91408.93643  20807173.5434
       296.281         230.869
  22469726.016     -481903.666 6   -358232.48041  22469720.7894
      1848.875        1440.682
  23169191.406     -483557.776 6
      1836.312
  21292616.672      349420.925 7    272275.40747  21292617.3164
     -1696.797       -1322.179
 97  3  3 15  1 30.0000000  0  7 29  4 14 16 18 19 22
  21136052.125      313074.285 7    214571.13247  21136051.7624
     -1412.359       -1100.540
  24814228.945       42823.388 3       478.64252  24814229.4024
      -616.469        -480.365
  20540802.359      457638.113 7    339986.37847  20540803.0744
     -1950.359       -1519.761
  20805623.680     -133276.583 7    -97778.97943  20805617.7974
       248.844         193.904
  22459263.656     -536882.070 6   -401072.75041  22459257.6804
      1816.312        1415.308
  23158817.195     -538076.333 5     -8423.78751  23158813.1174
      1798.312        1401.282
  21302443.555      401061.720 7    312514.99647  21302444.2234
     -1745.797       -1360.361
 97  3  3 15  2  0.0000000  0  7 29  4 14 16 18 19 22
  21144217.000      355980.917 7    248004.87147  21144216.7774
     -1447.922       -1128.251
  24817874.734       61982.945 4     15408.11442  24817876.4344
      -660.562        -514.724
  20552068.250      516840.380 7    386118.01047  20552068.9534
     -1996.141       -1555.434
  20804332.648     -140061.338 7   -103065.79943  20804327.1294
       203.672         158.705
  22448983.125     -590905.976 6   -443169.27741  22448976.8204
      1785.453        1391.262
  23148652.977     -591489.350 5    -50044.29541  23148648.0314
      1762.938        1373.718
  21312543.633      454137.185 7    353872.51147  21312544.1954
     -1792.312       -1396.607
 97  3  3 15  2 30.0000000  0  7 29  4 14 16 18 19 22
  21152583.352      399945.050 7    282262.64347  21152583.1414
     -1482.484       -1155.183
  24821768.469       82446.192 4     31353.50043  24821771.4104
      -703.141        -547.902
  20563592.867      577403.160 7    433309.78747  20563593.7344
     -2040.891       -1590.304
  20803297.461     -145501.704 7   -107305.03143  20803291.3444
       159.422         124.225
  22438877.094     -644013.899 6   -484552.09142  22438871.5514
      1755.625        1368.019
  23138685.914     -643867.186 5    -90858.10941  23138679.8444
      1729.328        1347.528
  21322906.656      508596.002 7    396307.96546  21322907.0084
     -1837.875       -1432.110
 97  3  3 15  3  0.0000000  0  7 29  4 14 16 18 19 22
  21161138.984      444906.538 7    317297.57347  21161138.7274
     -1514.703       -1180.288
  24825897.531      104140.937 4     48258.53642  24825899.4884
      -742.906        -578.888
  20575366.734      639273.791 7    481520.65247  20575367.5434
     -2083.656       -1623.628
  20802509.148     -149644.392 7   -110533.09243  20802503.0434
       116.984          91.157
  22428935.273     -696259.827 6   -525263.15642  22428929.6954
      1727.719        1346.274
  23128903.375     -695273.655 5
      1698.125
  21333522.523      564382.754 7    439778.16647  21333522.9574
     -1881.000       -1465.714
 97  3  3 15  3 30.0000000  0  7 29  4 14 16 18 19 22
  21169873.273      490807.040 7    353064.19647  21169872.9694
     -1545.391       -1204.200
  24830247.984      127003.566 4     66073.54042  24830248.6174
      -781.453        -608.925
  20587379.055      702399.590 7    530709.57947  20587379.7934
     -2124.750       -1655.649
  20801957.305     -152543.121 7   -112791.83643  20801951.1884
        76.281          59.440
  22419146.508     -747698.721 6   -565345.37341  22419140.8594
      1701.547        1325.881
  23119291.352     -745782.929 6
      1669.234
  21344380.227      621439.772 7    484238.18947  21344380.7424
     -1922.938       -1498.393
 97  3  3 15  4  0.0000000  0  7 29  4 14 16 18 19 22
  21178782.734      537624.931 7    389545.66947  21178782.5124
     -1575.719       -1227.833
  24834816.438      151009.496 4     84779.46442  24834818.6174
      -818.828        -638.048
  20599622.562      766739.415 7    580844.49847  20599623.5474
     -2164.469       -1686.599
  20801636.312     -154230.766 7   -114106.88543  20801630.5124
        36.328          28.308
  22409504.234     -798369.789 6   -604829.31041  22409496.4264
      1676.734        1306.546
  23109841.172     -795446.639 6
      1641.750
  21355476.078      679748.530 7    529673.59447  21355476.4654
     -1964.344       -1530.657
 97  3  3 15  4 30.0000000  0  7 29  4 14 16 18 19 22
  21187860.281      585328.312 7    426717.13047  21187860.0824
     -1604.391       -1250.175
  24839592.531      176108.310 4    104336.97242  24839593.9384
      -854.438        -665.795
  20612088.898      832251.469 7    631892.84147  20612089.7194
     -2202.906       -1716.550
  20801537.727     -154748.575 7   -114510.37143  20801532.1484
        -1.703          -1.327
  22399997.914     -848325.685 6   -643755.93242  22399992.5124
      1653.828        1288.697
  23100544.531     -844301.300 6    -15152.43351  23100539.4574
      1615.266        1258.649
  21366806.016      739287.389 7    576067.51747  21366806.3094
     -2004.891       -1562.252
 97  3  3 15  5  0.0000000  0  7 29  4 14 16 18 19 22
  21197099.289      633880.237 7    464549.80447  21197099.2424
     -1632.156       -1271.810
  24844570.875      202267.065 4    124720.37242  24844570.9104
      -889.234        -692.910
  20624771.883      898899.950 7    683826.71147  20624772.6454
     -2240.094       -1745.528
  20801654.148     -154135.960 7   -114033.00143  20801648.2304
       -38.781         -30.219
  22390619.211     -897610.367 6   -682159.53341  22390613.8324
      1632.156        1271.810
  23091397.203     -892369.800 6    -52608.34241  23091391.7304
      1589.656        1238.693
  21378364.812      800030.718 7    623399.99147  21378365.2464
     -2044.453       -1593.080
 97  3  3 15  5 30.0000000  0  7 29  4 14 16 18 19 22
  21206494.461      683250.162 7    503019.87247  21206494.3444
     -1659.172       -1292.861
  24849744.516      229460.894 3    145910.43442  24849746.1804
      -923.578        -719.671
  20637665.438      966655.367 7    736623.13047  20637666.2584
     -2277.031       -1774.310
  20801979.664     -152427.062 7   -112701.38143  20801974.2384
       -75.172         -58.575
  22381361.016     -946263.199 6   -720070.83141  22381355.3094
      1611.375        1255.617
  23082393.664     -939684.606 6    -89477.00741  23082388.5554
      1564.609        1219.176
  21390148.352      861952.858 7    671651.00747  21390148.7034
     -2083.578       -1623.567
 97  3  3 15  6  0.0000000  0  7 29  4 14 16 18 19 22
  21216041.633      733420.582 7    542113.70247  21216041.3754
     -1685.234       -1313.170
  24855111.586      257664.091 3    167886.94242  24855113.2034
      -956.344        -745.203
  20650769.086     1035515.379 7    790280.27147  20650770.0354
     -2313.438       -1802.679
  20802512.312     -149628.788 7   -110520.91343  20802506.6764
      -111.250         -86.688
  22372219.766     -994301.150 6   -757502.94342  22372214.5164
      1591.391        1240.045
  23073533.188     -986244.607 6   -125757.55041  23073527.5394
      1539.500        1199.610
  21402151.438      925030.113 7    720802.12647  21402151.8364
     -2121.328       -1652.983
 97  3  3 15  6 30.0000000  0  7 29  4 14 16 18 19 22
  21225732.742      784349.547 7    581798.60847  21225732.5084
     -1710.172       -1332.601
  24860662.695      286837.058 3    190619.05442  24860663.1174
      -988.594        -770.333
  20664077.812     1105452.572 7    844776.77647  20664078.7624
     -2348.859       -1830.280
  20803248.539     -145759.668 7   -107506.00743  20803243.0084
      -146.719        -114.326
  22363190.195    -1041752.946 6   -794478.34341  22363184.1954
      1572.125        1225.032
  23064814.594    -1032061.927 6   -161459.31041  23064807.4534
      1515.125        1180.617
  21414366.688      989220.973 7    770820.97547  21414366.9224
     -2157.953       -1681.522
 97  3  3 15  7  0.0000000  0  7 29  4 14 16 18 19 22
  21235567.133      836028.325 7    622067.78047  21235566.8404
     -1734.953       -1351.912
  24866396.344      316969.904 3    214099.17542  24866394.0824
     -1020.125        -794.903
  20677585.297     1176435.189 7    900087.89947  20677586.1524
     -2383.281       -1857.102
  20804186.164     -140831.345 7   -103665.74243  20804180.3524
      -181.672        -141.562
  22354269.180    -1088631.983 6   -831007.45542  22354264.0234
      1553.234        1210.312
  23056232.328    -1077163.548 6   -196603.36141  23056225.8834
      1491.656        1162.330
  21426787.016     1054490.469 7    821680.33347  21426787.4614
     -2193.281       -1709.050
 97  3  3 15  7 30.0000000  0  7 29  4 14 16 18 19 22
  21245541.578      888444.203 7    662911.32647  21245541.4144
     -1759.281       -1370.869
  24872311.789      348048.828 3    238316.57142  24872311.3554
     -1051.734        -819.533
  20691290.180     1248454.304 7    956206.68347  20691290.9064
     -2417.703       -1883.925
  20805322.797     -134859.092 7    -99012.04143  20805317.4774
      -216.359        -168.592
  22345456.266    -1134943.856 6   -867094.60941  22345450.2894
      1534.328        1195.580
  23047783.727    -1121560.004 6   -231197.96641  23047778.3124
      1468.266        1144.103
  21439408.641     1120817.612 7    873363.81947  21439409.0164
     -2228.266       -1736.311
 97  3  3 15  8  0.0000000  0  7 29  4 14 16 18 19 22
  21255653.039      941580.714 7    704316.39747  21255652.7704
     -1783.094       -1389.424
  24878406.391      380077.680 3    263274.10941  24878408.3364
     -1083.594        -844.359
  20705188.125     1321489.352 7   1013117.10647  20705188.9454
     -2451.219       -1910.041
  20806657.172     -127847.438 7    -93548.40543  20806651.0434
      -250.938        -195.536
  22336751.492    -1180686.813 6   -902738.41142  22336745.5864
      1515.234        1180.702
  23039468.211    -1165260.395 6   -265250.22441  23039462.6564
      1445.188        1126.120
  21452227.133     1188179.351 7    925853.49547  21452227.4734
     -2262.484       -1762.975
 97  3  3 15  8 30.0000000  0  7 29  4 14 16 18 19 22
  21265899.273      995425.328 7    746273.24047  21265898.9924
     -1806.578       -1407.723
  24884684.391      413069.333 3    288981.91341  24884682.0354
     -1115.766        -869.428
  20719276.289     1395522.572 7   1070805.31647  20719277.2034
     -2484.188       -1935.731
  20808185.656     -119815.367 7    -87289.64443  20808180.4184
      -284.328        -221.554
  22328155.906    -1225857.328 6   -937936.23141  22328150.1994
      1496.188        1165.860
  23031281.781    -1208278.443 6   -298770.70541  23031275.3484
      1422.891        1108.746
  21465239.625     1256559.896 7    979137.03247  21465239.9884
     -2296.078       -1789.152
 97  3  3 15  9  0.0000000  0  7 29  4 14 16 18 19 22
  21276280.609     1049978.540 7    788782.23047  21276280.5044
     -1830.125       -1426.071
  24891145.656      447021.958 3    315438.44642  24891145.6094
     -1147.734        -894.338
  20733552.492     1470544.725 7   1129264.12447  20733553.3954
     -2517.422       -1961.627
  20809903.320     -110788.362 7    -80255.61843  20809897.3554
      -317.484        -247.390
  22319669.180    -1270455.137 6   -972687.75041  22319663.7304
      1476.922        1150.848
  23023220.945    -1250636.915 6   -331777.25641  23023214.8754
      1400.984        1091.676
  21478443.109     1325944.901 7   1033203.27547  21478443.4384
     -2329.562       -1815.244
 97  3  3 15  9 30.0000000  0  7 29  4 14 16 18 19 22
  21286794.562     1105229.755 7    831835.12547  21286794.2464
     -1853.453       -1444.249
  24897789.258      481934.844 4    342643.26042  24897786.8794
     -1179.859        -919.371
  20748019.461     1546569.244 7   1188504.00347  20748020.3404
     -2550.953       -1987.756
  20811811.289     -100761.749 7    -72442.67443  20811805.1844
      -351.234        -273.689
  22311292.711    -1314474.357 6  -1006988.40342  22311287.2854
      1457.547        1135.751
  23015285.703    -1292338.016 6   -364271.57741  23015279.8554
      1379.000        1074.545
  21491837.398     1396332.051 7   1088050.40147  21491838.0084
     -2363.031       -1841.323
 97  3  3 15 10  0.0000000  0  7 29  4 14 16 18 19 22
  21297443.727     1161192.005 7    875442.07047  21297443.3284
     -1877.734       -1463.170
  24904615.758      517804.449 4    370593.54042  24904615.6294
     -1211.547        -944.062
  20762676.992     1623596.203 7   1248525.00247  20762677.8594
     -2584.562       -2013.945
  20813913.656      -89714.029 7    -63834.05243  20813907.7504
      -385.547        -300.426
  22303028.352    -1357904.006 6  -1040829.68742  22303022.5864
      1437.500        1120.130
  23007475.695    -1333379.241 6   -396251.68941  23007470.7034
      1356.734        1057.196
  21505423.609     1467727.356 7   1143683.10547  21505424.0784
     -2397.078       -1867.853
 97  3  3 15 10 30.0000000  0  7 29  4 14 16 18 19 22
  21308233.906     1217892.881 7    919624.56647  21308233.5664
     -1902.688       -1482.614
  24911619.047      554610.403 4    399273.54442  24911618.1564
     -1242.391        -968.097
  20777527.352     1701634.181 7   1309333.80747  20777528.2664
     -2618.141       -2040.110
  20816211.078      -77641.765 7    -54427.08644  20816205.5824
      -419.734        -327.066
  22294876.703    -1400741.009 6  -1074209.13841  22294870.8554
      1418.078        1104.996
  22999793.391    -1373750.413 6   -427709.72041  22999787.3674
      1334.547        1039.907
  21519205.211     1540151.550 7   1200117.54847  21519205.5394
     -2431.516       -1894.688
 97  3  3 15 11  0.0000000  0  7 29  4 14 16 18 19 22
  21319166.875     1275347.168 7    964394.13947  21319166.5124
     -1927.625       -1502.045
  24918797.242      592333.231 4    428667.94742  24918799.2344
     -1272.672        -991.692
  20792568.375     1780675.646 7   1370924.54947  20792569.3484
     -2651.375       -2066.006
  20818707.062      -64524.277 7    -44205.66443  20818700.7234
      -455.047        -354.582
  22286835.250    -1442999.343 6  -1107137.69942  22286829.3914
      1399.078        1090.191
  22992238.258    -1413452.460 6   -458646.37841  22992232.9024
      1311.938        1022.289
  21533185.406     1613617.725 7   1257363.92247  21533186.0164
     -2466.375       -1921.851
 97  3  3 15 11 30.0000000  0  7 29  4 14 16 18 19 22
  21330244.523     1333561.298 7   1009755.79147  21330244.2664
     -1953.484       -1522.196
  24926152.656      630983.474 3    458784.97042  24926151.0514
     -1304.078       -1016.165
  20807801.281     1860724.663 7   1433300.39847  20807802.2304
     -2685.344       -2092.476
  20821408.961      -50325.750 7    -33141.88443  20821402.9614
      -491.453        -382.950
  22278904.328    -1484676.246 6  -1139613.21442  22278898.3054
      1379.328        1074.801
  22984818.000    -1452446.262 6   -489031.09541  22984812.4344
      1287.562        1003.295
  21547368.547     1688150.099 7   1315441.10047  21547369.1684
     -2502.656       -1950.122
 97  3  3 15 12  0.0000000  0  7 29  4 14 16 18 19 22
  21341474.453     1392575.148 7   1055740.60447  21341474.1604
     -1980.734       -1543.429
  24933689.734      670597.101 3    489652.73442  24933692.3244
     -1336.984       -1041.806
  20823231.500     1941810.256 7   1496483.96947  20823232.3444
     -2720.562       -2119.919
  20824320.609      -35024.634 7    -21218.93743  20824314.8204
      -528.672        -411.952
  22271089.617    -1525742.725 6  -1171613.05442  22271084.0984
      1358.406        1058.498
  22977539.656    -1490694.458 6   -518834.83541  22977534.1604
      1262.156         983.498
  21561764.008     1763797.536 7   1374387.15347  21561764.5704
     -2540.531       -1979.635
 97  3  3 15 12 30.0000000  0  7 29  4 14 16 18 19 22
  21352864.312     1452429.147 7   1102380.08247  21352863.7734
     -2009.422       -1565.783
  24941424.805      711241.041 3    521323.37742  24941425.0984
     -1372.734       -1069.663
  20838870.156     2023992.146 7   1560521.79747  20838871.0824
     -2758.062       -2149.140
  20827449.969      -18580.534 7     -8405.34443  20827444.2154
      -567.672        -442.342
  22263399.516    -1566154.878 6  -1203102.99842  22263394.1484
      1335.703        1040.808
  22970412.922    -1528145.251 6   -548017.24741  22970406.5474
      1234.797         962.179
  21576379.852     1840606.964 7   1434238.66547  21576380.3094
     -2579.984       -2010.377
 97  3  3 15 13  0.0000000  0  7 29  4 14 16 18 19 22
  21364419.688     1513151.907 7   1149696.51747  21364419.0554
     -2038.859       -1588.722
  24949367.094      752982.406 3    553849.06542  24949367.8204
     -1410.375       -1098.994
  20854725.594     2107313.926 7   1625447.84647  20854726.6604
     -2797.000       -2179.481
  20830805.297        -947.473 7      5334.69943  20830799.5084
      -607.844        -473.644
  22255843.734    -1605861.349 7  -1234043.09542  22255837.8284
      1311.156        1021.680
  22963445.562    -1564759.007 6   -576547.43341  22963438.4924
      1205.859         939.631
  21591224.703     1918615.522 7   1495024.55547  21591225.3954
     -2620.734       -2042.131
 97  3  3 15 13 30.0000000  0  7 29  4 14 16 18 19 22
  21376149.031     1574791.688 7   1197727.51147  21376148.5864
     -2070.938       -1613.718
  24957532.867      795891.103 3    587284.34542  24957534.9654
     -1450.453       -1130.223
  20870810.961     2191841.452 7   1691313.44347  20870811.9344
     -2838.703       -2211.976
  20834392.242       17901.350 7     20022.11443  20834386.0434
      -649.047        -505.751
  22248435.125    -1644794.878 6  -1264380.88742  22248429.3364
      1284.000        1000.519
  22956647.859    -1600481.057 6
      1175.344
  21606305.461     1997867.372 7   1556779.24247  21606306.2114
     -2663.141       -2075.175
 97  3  3 15 14  0.0000000  0  7 29  4 14 16 18 19 22
  21388069.297     1637432.109 7   1246538.21847  21388069.0164
     -2105.516       -1640.662
  24965932.586      840030.469 3    621678.65342  24965932.2814
     -1492.578       -1163.048
  20887140.344     2277653.661 7   1758180.08947  20887141.2344
     -2882.516       -2246.116
  20838222.109       38026.780 7     35704.26444  20838216.5904
      -693.156        -540.122
  22241189.062    -1682872.048 6  -1294051.39542  22241183.1454
      1254.078         977.204
  22950029.516    -1635258.843 6      -890.30551  22950023.8324
      1142.641         890.369
  21621633.664     2078416.552 7   1619544.84447  21621634.4024
     -2707.109       -2109.436
 97  3  3 15 14 30.0000000  0  7 29  4 14 16 18 19 22
  21400193.648     1701147.104 7   1296186.26547  21400193.3794
     -2142.562       -1669.529
  24974578.555      885468.860 3    657085.17442  24974580.7934
     -1536.844       -1197.541
  20903726.562     2364815.077 7   1826098.06847  20903727.7114
     -2928.328       -2281.814
  20842310.406       59512.216 7     52446.15643  20842304.6644
      -739.531        -576.258
  22234120.242    -1720018.109 6  -1322996.39042  22234114.1484
      1221.969         952.183
  22943606.727    -1669010.067 6    -27189.93541  22943601.5594
      1107.234         862.780
  21637218.406     2160316.160 7   1683362.71746  21637219.0274
     -2753.219       -2145.365
 97  3  3 15 15  0.0000000  0  7 29  4 14 16 18 19 22
  21412535.719     1766003.293 7   1346723.55547  21412535.2854
     -2181.297       -1699.712
  24983482.641      932256.934 3    693543.41842  24983480.9414
     -1582.391       -1233.032
  20920578.609     2453374.129 7   1895105.10647  20920579.7344
     -2975.844       -2318.839
  20846669.711       82421.475 7     70297.54343  20846663.9224
      -787.922        -613.965
  22227241.031    -1756168.805 6  -1351165.72742  22227235.7584
      1187.922         925.653
  22937391.609    -1701669.972 6    -52639.17541  22937385.7274
      1069.734         833.559
  21653072.391     2243628.753 7   1748281.62346  21653073.0704
     -2801.156       -2182.719
 97  3  3 15 15 30.0000000  0  7 29  4 14 16 18 19 22
  21425104.227     1832051.283 7   1398189.52047  21425103.8754
     -2221.969       -1731.404
  24992650.484      980431.610 4    731082.10642  24992650.4144
     -1629.078       -1269.412
  20937707.984     2543388.499 7   1965246.15947  20937709.0744
     -3025.109       -2357.228
  20851312.062      106816.631 7     89306.75043  20851306.0514
      -838.656        -653.498
  22220560.273    -1791276.472 6  -1378522.34542  22220554.4144
      1152.453         898.015
  22931396.797    -1733175.561 6    -77188.94541  22931391.5354
      1030.562         803.036
  21669204.805     2328405.687 7   1814341.57246  21669205.5554
     -2850.859       -2221.449
 97  3  3 15 16  0.0000000  0  7 29  4 14 16 18 19 22
  21437906.141     1899325.782 7   1450611.20347  21437905.7894
     -2262.844       -1763.255
  25002084.086     1030009.102 4    769713.88442  25002085.6094
     -1676.031       -1305.998
  20955118.250     2634879.471 7   2036537.80747  20955119.4804
     -3074.109       -2395.410
  20856247.914      132754.637 7    109518.17843  20856242.0784
      -890.297        -693.738
  22214083.969    -1825309.482 6  -1405041.53742  22214078.0634
      1116.578         870.061
  22925627.656    -1763495.350 6   -100814.71641  22925621.6334
       990.891         772.123
  21685624.609     2414691.778 7   1881577.49146  21685625.5354
     -2901.438       -2260.860
 97  3  3 15 16 30.0000000  0  7 29  4 14 16 18 19 22
  21450939.781     1967817.611 7   1503981.45847  21450939.5594
     -2303.141       -1794.655
  25011785.164     1080989.064 3    809438.52342  25011786.6764
     -1722.453       -1342.171
  20972808.039     2727840.565 7   2108975.00547  20972809.1414
     -3123.047       -2433.543
  20861475.555      160225.159 7    130923.79343  20861469.1684
      -940.922        -733.186
  22207810.672    -1858275.446 6  -1430729.29642  22207804.4964
      1081.156         842.459
  22920083.555    -1792630.370 6   -123517.27241  22920077.3444
       951.672         741.562
  21702333.281     2502496.619 7   1949996.84646  21702334.1484
     -2952.016       -2300.272
 97  3  3 15 17  0.0000000  0  7 29  4 14 16 18 19 22
  21464200.148     2037502.512 7   1558281.38247  21464199.9264
     -2342.109       -1825.020
  25021748.031     1133338.328 3    850230.17442  25021747.9494
     -1767.000       -1376.883
  20990773.898     2822251.169 7   2182541.69247  20990774.9654
     -3170.578       -2470.580
  20866989.719      189203.588 7    153504.38343  20866983.8014
      -990.547        -771.855
  22201737.711    -1890189.202 6  -1455597.12142  22201731.9344
      1046.844         815.722
  22914758.562    -1820611.162 6   -145320.47841  22914753.2194
       914.156         712.330
  21719326.430     2591796.418 7   2019581.10547  21719327.1804
     -3000.844       -2338.320
 97  3  3 15 17 30.0000000  0  7 29  4 14 16 18 19 22
  21477678.867     2108333.912 7   1613474.67947  21477678.5164
     -2379.578       -1854.217
  25031956.391     1186988.043 3    892035.07342  25031956.0164
     -1809.188       -1409.756
  21009003.609     2918049.363 7   2257189.61947  21009004.6764
     -3215.406       -2505.511
  20872779.828      219630.086 7    177213.34843  20872774.0864
     -1037.344        -808.320
  22195853.797    -1921108.098 6  -1479689.76642  22195848.1604
      1014.828         790.775
  22909640.570    -1847506.392 6   -166277.77341  22909635.1564
       879.516         685.337
  21736591.773     2682524.420 7   2090278.25447  21736592.2304
     -3047.109       -2374.371
 97  3  3 15 18  0.0000000  0  7 29  4 14 16 18 19 22
  21491362.977     2180243.704 7   1669508.28147  21491362.5084
     -2413.734       -1880.832
  25042399.320     1241866.091 3    934797.11442  25042400.2464
     -1848.875       -1440.682
  21027479.844     3015141.935 7   2332846.15247  21027481.0164
     -3256.812       -2537.776
  20878827.961      251413.111 7    201979.33143  20878822.0314
     -1080.875        -842.240
  22190145.695    -1951104.941 6  -1503063.91242  22190140.4104
       985.625         768.019
  22904711.070    -1873410.349 6   -186462.63141  22904705.2704
       847.922         660.718
  21754110.211     2774585.535 7   2162014.19047  21754110.7384
     -3089.500       -2407.403
 97  3  3 15 18 30.0000000  0  7 29  4 14 16 18 19 22
  21505230.242     2253117.236 7   1726292.84347  21505229.9384
     -2444.047       -1904.452
  25053059.234     1297879.621 4    978444.01443  25053060.8754
     -1884.844       -1468.709
  21046182.406     3113423.811 7   2409429.42047  21046183.2974
     -3294.797       -2567.374
  20885114.297      284447.868 7    227720.71343  20885108.2504
     -1121.078        -873.567
  22184593.508    -1980281.263 6  -1525798.65942  22184587.4144
       959.906         747.979
  22899952.227    -1898416.356 6   -205947.79741  22899945.8874
       819.688         638.718
  21771857.938     2867850.312 7   2234688.04246  21771858.3244
     -3127.516       -2437.025
 97  3  3 15 19  0.0010000  0  7 29  4 14 16 18 19 22
  21519262.700     2326857.014 7   1783752.40547  21519262.5604
     -2471.172       -1925.588
  25063915.153     1354928.922 4   1022897.97542  25063916.3964
     -1917.812       -1494.399
  21065091.763     3212794.086 7   2486860.78647  21065092.6654
     -3329.031       -2594.050
  20891622.692      318650.609 7    254372.19143  20891617.1734
     -1158.453        -902.691
  22179178.536    -2008736.793 6  -1547971.82742  22179172.4784
       937.734         730.702
  22895345.388    -1922626.970 6   -224813.20241  22895339.8104
       794.891         619.395
  21789813.310     2962206.494 7   2308212.34446  21789814.0714
     -3162.297       -2464.127
 97  3  3 15 19 30.0010000  0  7 29  4 14 16 18 19 22
  21533439.419     2401356.541 7   1841803.97947  21533439.3024
     -2494.859       -1944.046
  25074950.763     1412925.002 4   1068089.72042  25074951.3964
     -1948.172       -1518.056
  21084187.763     3313143.947 7   2565055.46247  21084188.7244
     -3360.422       -2618.511
  20898335.192      353923.399 7    281857.48243  20898329.0404
     -1192.516        -929.233
  22173881.817    -2036572.338 6  -1569661.81442  22173876.4034
       918.562         715.763
  22890871.927    -1946134.021 6   -243130.32941  22890865.7044
       772.641         602.058
  21807959.325     3057564.030 7   2382516.91046  21807959.8994
     -3194.406       -2489.148
 97  3  3 15 20  0.0010000  0  7 29  4 14 16 18 19 22
  21547741.724     2476516.366 7   1900370.07747  21547741.4424
     -2515.375       -1960.032
  25086153.099     1471788.699 4   1113957.51742  25086155.2904
     -1975.734       -1539.533
  21103455.403     3414396.131 7   2643953.25547  21103456.3764
     -3389.469       -2641.144
  20905235.403      390185.746 7    310113.84543  20905229.4854
     -1224.562        -954.205
  22168685.442    -2063878.546 6  -1590939.35942  22168679.6184
       902.188         703.003
  22886519.427    -1969006.419 6   -260952.94041  22886513.9314
       752.312         586.218
  21826281.630     3153848.474 7   2457543.75246  21826282.2164
     -3224.297       -2512.439
 97  3  3 15 20 30.0010000  0  7 29  4 14 16 18 19 22
  21562157.294     2552270.406 7   1959399.19047  21562157.1184
     -2534.703       -1975.093
  25097505.028     1531445.010 4   1160442.93442  25097506.3294
     -2001.047       -1559.257
  21122885.778     3516502.994 7   2723517.03147  21122886.6464
     -3417.469       -2662.963
  20912312.521      427375.455 7    339092.83243  20912307.2124
     -1254.469        -977.508
  22163577.528    -2090720.704 6  -1611855.31242  22163571.4584
       887.641         691.668
  22882278.044    -1991296.049 6   -278321.43441  22882271.9744
       734.094         572.021
  21844771.278     3251011.884 7   2533255.50346  21844771.7474
     -3253.172       -2534.939
 97  3  3 15 21  0.0010000  0  7 29  4 14 16 18 19 22
  21576678.685     2628580.727 7   2018861.77247  21576678.5914
     -2552.609       -1989.046
  25108997.458     1591835.821 4   1207500.71543  25108997.3994
     -2024.984       -1577.910
  21142471.661     3619427.851 7   2803718.20447  21142472.3644
     -3444.141       -2683.746
  20919554.731      465433.055 7    368748.12943  20919548.7674
     -1282.656        -999.472
  22158547.489    -2117153.644 6  -1632452.40242  22158542.1814
       874.531         681.453
  22878134.497    -2013071.174 6   -295289.02841  22878128.1224
       717.562         559.140
  21863422.536     3349027.091 7   2609630.99246  21863423.2514
     -3281.266       -2556.830
 97  3  3 15 21 30.0010000  0  7 29  4 14 16 18 19 22
  21591301.302     2705422.919 7   2078738.80047  21591301.0444
     -2570.156       -2002.719
  25120623.771     1652931.877 4   1255108.01042  25120625.0134
     -2047.969       -1595.820
  21162210.185     3723155.030 7   2884544.56447  21162211.0174
     -3470.953       -2704.639
  20926955.106      504323.390 7    399052.27243  20926949.1654
     -1310.000       -1020.779
  22153592.755    -2143192.535 6  -1652742.43242  22153587.4464
       861.531         671.323
  22874082.645    -2034360.897 6   -311878.36641  22874076.3294
       701.891         546.928
  21882233.966     3447879.474 7   2686658.82346  21882234.4114
     -3308.625       -2578.149
 97  3  3 15 22  0.0010000  0  7 29  4 14 16 18 19 22
  21606022.403     2782783.451 7   2139019.73047  21606022.3104
     -2587.250       -2016.039
  25132377.583     1714701.960 3   1303240.51842  25132379.8564
     -2070.031       -1613.011
  21182099.044     3827670.508 7   2965985.18347  21182100.0174
     -3496.719       -2724.716
  20934511.239      544030.566 7    429992.92443  20934505.4274
     -1337.047       -1041.855
  22148709.521    -2168852.856 7  -1672737.45942  22148704.0364
       849.062         661.607
  22870116.716    -2055201.076 6   -328117.43841  22870111.4074
       687.578         535.775
  21901197.302     3547532.850 7   2764310.79746  21901197.9234
     -3334.797       -2598.543
 97  3  3 15 22 30.0010000  0  7 29  4 14 16 18 19 22
  21620841.911     2860660.029 7   2199702.77147  21620841.7824
     -2604.547       -2029.517
  25144258.099     1777134.290 3   1351889.07542  25144260.8764
     -2092.125       -1630.227
  21202133.872     3932954.607 7   3048024.72347  21202134.8564
     -3521.984       -2744.403
  20942220.536      584542.699 7    461560.81943  20942214.9464
     -1363.828       -1062.723
  22143898.403    -2194136.158 7  -1692438.73042  22143892.8724
       836.578         651.879
  22866230.778    -2075624.197 6   -344031.54341  22866225.5284
       674.062         525.244
  21920308.544     3647963.182 7   2842568.20646  21920309.1184
     -3360.453       -2618.535
 97  3  3 15 23  0.0010000  0  7 29  4 14 16 18 19 22
  21635759.536     2939052.928 7   2260788.13947  21635759.2904
     -2621.562       -2042.776
  25156264.466     1840226.993 3   1401052.18742  25156267.1494
     -2113.953       -1647.236
  21222308.888     4038973.973 7   3130637.20247  21222309.7204
     -3545.703       -2762.886
  20950082.747      625859.459 7    493755.70643  20950076.7824
     -1390.531       -1083.531
  22139157.911    -2219047.514 7  -1711850.17042  22139151.9234
       824.047         642.114
  22862421.341    -2095642.536 6   -359630.14842  22862415.6574
       660.391         514.590
  21939563.583     3749149.409 7   2921414.61146  21939564.1224
     -3385.094       -2637.735
 97  3  3 15 23 30.0010000  0  7 29  4 14 16 18 19 22
  21650774.403     3017955.987 7   2322271.03847  21650774.1814
     -2638.562       -2056.023
  25168394.060     1903967.129 3   1450719.78742  25168396.2284
     -2135.500       -1664.026
  21242616.067     4145689.493 7   3213792.14047  21242616.8994
     -3568.688       -2780.795
  20958096.310      667970.695 7    526569.65643  20958090.5914
     -1416.953       -1104.119
  22134488.481    -2243585.065 7  -1730970.34342  22134482.8684
       811.891         632.642
  22858690.966    -2115245.727 6   -374905.38141  22858685.7284
       646.375         503.669
  21958956.872     3851060.963 7   3000826.21146  21958957.2474
     -3408.953       -2656.327
 97  3  3 15 24  0.0010000  0  7 29  4 14 16 18 19 22
  21665884.435     3097359.112 7   2384143.60047  21665884.2354
     -2655.094       -2068.904
  25180644.942     1968352.861 3   1500890.51042  25180643.6654
     -2156.906       -1680.706
  21263052.075     4253082.667 7   3297475.11647  21263053.1184
     -3590.938       -2798.133
  20966260.528      710873.516 7    560000.41643  20966255.0794
     -1443.156       -1124.537
  22129887.255    -2267766.479 7  -1749812.97442  22129880.9854
       800.094         623.450
  22855042.013    -2134421.468 6   -389847.49441  22855036.7984
       631.766         492.285
  21978484.403     3953679.043 7   3080788.35046  21978484.9894
     -3432.328       -2674.541
 97  3  3 15 24 30.0010000  0  7 29  4 14 16 18 19 22
  21681088.997     3177259.546 7   2446403.67347  21681088.8214
     -2671.500       -2081.688
  25193020.872     2033383.372 3   1551563.61442  25193019.8994
     -2178.344       -1697.411
  21283617.028     4361151.963 7   3381684.93647  21283618.0244
     -3613.594       -2815.787
  20974573.341      754558.553 7    594040.70343  20974567.9624
     -1469.250       -1144.870
  22125353.247    -2291591.047 7  -1768377.57242  22125347.7394
       788.250         614.221
  22851478.349    -2153146.769 6   -404438.57741  22851472.2554
       616.562         480.438
  21998146.653     4057004.395 7   3161301.61546  21998147.2984
     -3456.047       -2693.024
 97  3  3 15 25  0.0010000  0  7 29  4 14 16 18 19 22
  21696386.146     3257646.215 7   2509042.62647  21696385.8644
     -2687.484       -2094.144
  25205516.856     2099052.769 3   1602734.57942  25205516.3064
     -2199.578       -1713.957
  21304310.989     4469898.553 7   3466422.52647  21304311.9974
     -3636.359       -2833.527
  20983036.013      799030.046 7    628693.80843  20983030.5284
     -1495.625       -1165.422
  22120887.614    -2315058.822 7  -1786664.13042  22120881.4504
       776.219         604.846
  22848004.513    -2171402.875 6   -418664.10641  22847998.5134
       600.453         467.886
  22017944.700     4161044.432 7   3242371.78146  22017945.1694
     -3480.031       -2711.713
 97  3  3 15 25 30.0010000  0  7 29  4 14 16 18 19 22
  21711773.317     3338507.337 7   2572051.28347  21711773.2824
     -2703.391       -2106.538
  25218135.724     2165363.928 4   1654405.59142  25218137.3994
     -2221.359       -1730.929
  21325138.919     4579349.850 7   3551709.24047  21325139.6924
     -3660.641       -2852.447
  20991650.606      844299.525 7    663968.72243  20991645.1464
     -1522.672       -1186.498
  22116489.669    -2338170.015 7  -1804672.82342  22116483.7394
       764.484         595.702
  22844622.669    -2189174.748 6   -432512.25841  22844617.2674
       584.281         455.284
  22037881.599     4265814.011 7   3324010.41346  22037882.3024
     -3504.922       -2731.108
 97  3  3 15 26  0.0010000  0  7 29  4 14 16 18 19 22
  21727253.403     3419857.358 7   2635440.90347  21727253.4504
     -2720.250       -2119.675
  25230880.802     2232341.239 4   1706595.71942  25230879.8764
     -2243.828       -1748.438
  21346107.528     4689540.304 7   3637571.91647  21346108.6184
     -3685.422       -2871.757
  21000423.161      890398.621 7    699890.10143  21000416.7864
     -1550.781       -1208.401
  22112161.372    -2360915.830 7  -1822396.83442  22112155.0324
       751.719         585.755
  22841333.364    -2206459.449 6   -445980.83541  22841327.8334
       568.016         442.610
  22057962.802     4371342.431 7   3406240.35146  22057963.4704
     -3530.484       -2751.027
 97  3  3 15 26 30.0010000  0  6 29 14 16 18 19 22
  21742832.747     3501725.735 7   2699234.43947  21742832.8644
     -2737.750       -2133.312
  21367217.513     4800474.677 7   3724014.27547  21367218.4154
     -3710.219       -2891.080
  21009358.185      937353.205 7    736478.08543  21009352.2434
     -1579.734       -1230.962
  22107906.888    -2383272.172 7  -1839817.34942  22107900.7474
       738.594         575.528
  22838135.981    -2223262.597 6   -459074.19642  22838130.6034
       552.078         430.191
  22078192.146     4477647.897 7   3489075.78546  22078192.6034
     -3556.578       -2771.360
 97  3  3 15 27  0.0010000  0  6 29 14 16 18 19 22
  21758513.302     3584126.996 7   2763443.20747  21758513.4544
     -2755.641       -2147.252
  21388469.294     4912153.054 7   3811036.37147  21388470.1494
     -3734.938       -2910.341
  21018460.099      985183.766 7    773748.64843  21018454.4974
     -1608.875       -1253.669
  22103728.349    -2405231.547 7  -1856928.54442  22103722.8414
       725.469         565.300
  22835029.185    -2239587.331 6   -471794.73842  22835023.5834
       536.438         418.003
  22098569.802     4584730.540 7   3572516.80446  22098570.6814
     -3582.156       -2791.291
 97  3  3 15 27 30.0010000  0  6 29 14 16 18 19 22
  21774297.146     3667070.886 7   2828074.80347  21774297.0524
     -2774.047       -2161.595
  21409863.177     5024578.848 7   3898640.86347  21409864.0914
     -3759.906       -2929.797
  21027727.794     1033884.986 7    811697.64543  21027722.0994
     -1637.797       -1276.205
  22099625.208    -2426793.169 7  -1873729.81942  22099620.0404
       711.938         554.756
  22832009.708    -2255455.621 6   -484159.61641  22832002.3334
       521.531         406.388
  22119092.474     4692579.748 7   3656555.14646  22119092.8134
     -3607.750       -2811.234
 97  3  3 15 28  0.0010000  0  6 29 14 16 18 19 22
  21790186.763     3750571.629 7   2893140.31047  21790186.4584
     -2792.656       -2176.096
  21431397.114     5137740.142 7   3986818.47947  21431397.9354
     -3784.234       -2948.754
  21037158.778     1083445.387 7    850316.13944  21037153.1884
     -1666.188       -1298.328
  22095600.880    -2447941.086 7  -1890208.70742  22095594.5634
       697.812         543.750
  22829075.106    -2270878.652 6   -496177.57141  22829069.3174
       506.547         394.712
  22139759.560     4801185.681 7   3741183.15746  22139759.9234
     -3632.562       -2830.568
 97  3  3 15 28 30.0010000  0  6 29 14 16 18 19 22
  21806181.192     3834622.964 7   2958634.84647  21806180.9704
     -2810.672       -2190.134
  21453071.700     5251640.285 7   4075571.81847  21453072.6494
     -3809.109       -2968.137
  21046751.161     1133853.183 7    889594.93043  21046744.9854
     -1694.266       -1320.207
  22091657.895    -2468661.559 7  -1906354.50942  22091651.8134
       683.609         532.683
  22826226.958    -2285846.093 6   -507840.48741  22826220.6534
       491.188         382.744
  22160567.989     4910536.067 7   3826391.25146  22160568.2944
     -3657.484       -2849.988
 97  3  3 15 29  0.0010000  0  6 29 14 16 18 19 22
  21822277.536     3919209.220 7   3024546.20847  21822277.3024
     -2828.438       -2203.977
  21474888.239     5366286.675 7   4164906.65047  21474889.0364
     -3833.984       -2987.520
  21056501.724     1185094.482 7    929523.22043  21056495.9584
     -1721.719       -1341.599
  22087795.021    -2488961.310 7  -1922172.49742  22087789.2904
       669.703         521.847
  22823465.599    -2300355.407 6   -519146.41441  22823460.1614
       476.031         370.933
  22181518.903     5020632.815 7   3912180.92546  22181519.6534
     -3682.453       -2869.444
 97  3  3 15 29 30.0010000  0  6 29 14 16 18 19 22
  21838475.825     4004332.890 7   3090876.33447  21838475.6614
     -2846.375       -2217.955
  21496847.278     5481682.684 7   4254825.60347  21496848.2634
     -3858.969       -3006.989
  21066409.919     1237161.725 7    970095.09843  21066404.6694
     -1749.297       -1363.088
  22084012.661    -2508836.648 7  -1937659.75542  22084007.1654
       655.484         510.767
  22820793.888    -2314395.066 6   -530086.36841  22820787.7824
       459.953         358.405
  22202614.997     5131494.056 7   3998566.29946  22202615.6184
     -3708.141       -2889.460
 97  3  3 15 30  0.0010000  0  6 29 14 16 18 19 22
  21854776.817     4089995.028 7   3157626.04347  21854776.5484
     -2864.406       -2232.005
  21518947.958     5597822.888 7   4345324.44247  21518949.0604
     -3883.688       -3026.250
  21076476.067     1290058.528 7   1011313.38344  21076470.7594
     -1777.266       -1384.882
  22080311.216    -2528290.189 7  -1952818.35542  22080304.9704
       641.406         499.797
  22818216.333    -2327941.086 6   -540641.68142  22818210.9194
       443.125         345.292
  22223857.528     5243122.948 7   4085549.85346  22223858.1614
     -3733.719       -2909.391
 97  3  3 15 30 30.0010000  0  6 29 14 16 18 19 22
  21871182.427     4176208.106 7   3224805.05647  21871182.3924
     -2883.188       -2246.640
  21541190.106     5714705.424 7   4436401.73047  21541191.0914
     -3908.375       -3045.487
  21086703.935     1343805.855 7   1053194.40743  21086697.9934
     -1805.844       -1407.151
  22076689.755    -2547318.924 7  -1967645.91542  22076683.8494
       627.297         488.803
  22815734.372    -2340983.452 6   -550804.54542  22815728.5484
       426.344         332.216
  22245246.755     5355524.448 7   4173135.43446  22245247.3534
     -3759.688       -2929.627
 97  3  3 15 31  0.0010000  0  6 29 14 16 18 19 22
  21887696.630     4262990.248 7   3292427.49847  21887696.3494
     -2902.266       -2261.506
  21563572.013     5832323.248 7   4528051.95647  21563573.3024
     -3932.828       -3064.541
  21097094.372     1398408.570 7   1095741.97243  21097088.8644
     -1834.250       -1429.286
  22073148.770    -2565927.615 7  -1982146.16842  22073142.6534
       613.188         477.808
  22813347.974    -2353524.762 6   -560576.95441  22813342.1614
       409.625         319.188
  22266783.849     5468703.068 7   4261326.56646  22266784.1534
     -3785.312       -2949.594
 97  3  3 15 31 30.0010000  0  7 29  3 14 16 18 19 22
  21904320.060     4350347.060 7   3360497.73247  21904319.8494
     -2921.547       -2276.530
  25233695.067
     -7324.94913       663.781
  21586093.833     5950676.853 7   4620275.52247  21586095.3334
     -3957.344       -3083.644
  21107647.700     1453867.908 7   1138957.04343  21107641.7594
     -1863.047       -1451.725
  22069688.841    -2584108.811 7  -1996313.32542  22069682.8414
       598.828         466.619
  22811058.505    -2365553.540 6   -569950.03242  22811052.5524
       392.453         305.808
  22288465.442     5582640.276 7   4350108.81446  22288466.0054
     -3810.344       -2969.099
 97  3  3 15 32  0.0010000  0  7 29  3 14 16 18 19 22
  21921055.216     4438290.520 7   3429025.09547  21921054.9934
     -2941.484       -2292.066
  25229937.333
    -27064.255 3       652.109
  21608755.653     6069765.008 7   4713071.47447  21608756.8134
     -3981.812       -3102.711
  21118366.380     1510193.766 7   1182847.31643  21118360.3684
     -1892.047       -1474.322
  22066313.224    -2601846.977 7  -2010135.27642  22066307.0364
       583.547         454.712
  22808866.638    -2377074.400 6   -578927.31141  22808860.8134
       375.500         292.597
  22310288.685     5697321.388 7   4439470.71446  22310289.2474
     -3835.047       -2988.348
 97  3  3 15 32 30.0010000  0  7 29  3 14 16 18 19 22
  21937903.161     4526827.738 7   3498015.13147  21937902.9384
     -2961.062       -2307.321
  25226247.724
    -46457.396 3       640.781
  21631555.474     6189579.429 7   4806433.34047  21631556.7044
     -4006.016       -3121.571
  21129248.364     1567379.197 7   1227407.38943  21129243.0914
     -1920.312       -1496.347
  22063024.349    -2619131.729 7  -2023603.90742  22063018.4544
       568.703         443.145
  22806769.474    -2388093.883 6   -587513.91242  22806763.6034
       359.000         279.740
  22332251.474     5812736.612 7   4529404.65046  22332252.3414
     -3859.547       -3007.439
 97  3  3 15 33  0.0010000  0  7 29  3 14 16 18 19 22
  21954861.669     4615944.100 7   3567456.44547  21954861.4464
     -2980.156       -2322.200
  25222621.435      -65511.703 3    -12354.92753  25222622.2314
       629.297         490.361
  21654494.927     6310126.321 7   4900365.96147  21654496.1344
     -4030.641       -3140.759
  21140290.989     1625409.305 7   1272625.64843  21140285.1304
     -1948.562       -1518.360
  22059820.614    -2635967.087 7  -2036722.35843  22059814.9074
       553.359         431.189
  22804768.021    -2398611.908 6   -595709.70742  22804762.3374
       342.094         266.567
  22354355.333     5928893.806 7   4619916.75046  22354356.0484
     -3884.234       -3026.676
 97  3  3 15 33 30.0010000  0  7 29  3 14 16 18 19 22
  21971929.067     4705633.168 7   3637344.02347  21971928.6814
     -2999.219       -2337.054
  25219062.146      -84217.758 3    -26931.01243  25219064.2674
       617.609         481.254
  21677574.497     6431409.132 7   4994872.02847  21677575.7284
     -4054.859       -3159.631
  21151496.021     1684291.693 7   1318508.02743  21151490.4074
     -1976.938       -1540.471
  22056705.317    -2652338.945 7  -2049479.64042  22056699.2244
       537.969         419.196
  22802862.950    -2408623.291 6   -603510.79042  22802856.7164
       325.500         253.636
  22376599.411     6045786.856 7   4711002.24446  22376600.0094
     -3908.859       -3045.864
 97  3  3 15 34  0.0010000  0  7 29  3 14 16 18 19 22
  21989104.856     4795893.254 7   3707676.54847  21989104.6224
     -3017.984       -2351.676
  25215571.341     -102559.098 3    -41222.97442  25215574.0604
       605.094         471.502
  21700792.442     6553420.768 7   5089946.01447  21700793.7904
     -4079.297       -3178.673
  21162861.927     1744020.855 7   1365050.21144  21162856.2434
     -2005.031       -1562.362
  22053679.747    -2668237.858 7  -2061868.38742  22053673.5484
       522.234         406.936
  22801051.536    -2418143.575 6   -610929.18942  22801045.7244
       309.141         240.889
  22398985.536     6163428.160 7   4802670.79646  22398986.1344
     -3933.969       -3065.430
 97  3  3 15 34 30.0010000  0  7 29  3 14 16 18 19 22
  22006386.067     4886706.559 7   3778440.16147  22006385.9504
     -3036.156       -2365.836
  25212154.474     -120520.117 4    -55218.54443  25212157.2864
       592.312         461.542
  21724151.849     6676174.369 7   5185598.14747  21724153.1734
     -4104.375       -3198.214
  21174389.067     1804595.532 7   1412251.26643  21174383.2204
     -2033.359       -1584.436
  22050741.614    -2683678.711 7  -2073900.19843  22050735.7434
       507.188         395.211
  22799332.427    -2427175.354 6   -617966.90042  22799327.2244
       293.031         228.336
  22421517.021     6281831.215 7   4894932.92146  22421517.5014
     -3959.609       -3085.410
 97  3  3 15 35  0.0010000  0  7 29  3 14 16 18 19 22
  22023771.122     4978065.775 7   3849629.15747  22023771.0054
     -3054.453       -2380.093
  25208810.474     -138089.211 4    -68908.72243  25208810.8134
       579.000         451.169
  21747655.966     6799689.792 7   5281843.91347  21747657.0564
     -4129.797       -3218.024
  21186079.653     1866030.039 7   1460122.29643  21186073.9934
     -2062.172       -1606.887
  22047890.724    -2698658.391 7  -2085572.67743  22047885.2044
       491.625         383.084
  22797706.911    -2435717.009 6   -624622.72842  22797700.8644
       276.562         215.503
  22444194.630     6401002.386 7   4987793.56946  22444195.5444
     -3984.844       -3105.073
 97  3  3 15 35 30.0010000  0  7 29  3 14 16 18 19 22
  22041262.146     5069981.645 7   3921251.90847  22041262.0524
     -3073.359       -2394.825
  25205542.966     -155258.800 3    -82287.59343  25205545.5674
       565.516         440.662
  21771304.036     6923961.434 7   5378678.93847  21771305.2314
     -4155.047       -3237.699
  21197934.591     1928329.188 7   1508667.08543  21197928.7904
     -2091.125       -1629.448
  22045127.747    -2713178.707 7  -2096887.18743  22045121.9934
       476.422         371.238
  22796175.833    -2443763.793 6   -630892.98042  22796170.1384
       259.828         202.463
  22467015.911     6520927.530 7   5081241.72646  22467016.8604
     -4010.438       -3125.016
 97  3  3 15 36  0.0020000  0  7 29  3 14 16 18 19 22
  22058860.478     5162460.501 7   3993313.34647  22058860.2914
     -3091.672       -2409.095
  25202351.729     -172029.149 3    -95355.37442  25202355.3384
       552.516         430.532
  21795096.650     7048992.230 7   5476105.51047  21795097.8114
     -4180.031       -3257.167
  21209954.643     1991493.682 7   1557886.15443  21209948.9594
     -2119.750       -1651.753
  22042449.994    -2727251.960 7  -2107853.35443  22042444.2994
       461.938         359.951
  22794739.775    -2451310.830 6   -636773.78241  22794733.6704
       243.312         189.594
  22489983.721     6641624.586 7   5175291.38746  22489984.6584
     -4035.625       -3144.643
 97  3  3 15 36 30.0020000  0  7 29  3 14 16 18 19 22
  22076563.447     5255490.623 7   4065804.34447  22076563.0964
     -3110.328       -2423.632
  25199235.033     -188410.035 3   -108119.71243  25199238.3854
       539.438         420.341
  21819029.221     7174758.897 7   5574105.49247  21819030.5924
     -4204.281       -3276.063
  21222138.143     2055518.874 7   1607775.92543  21222132.0964
     -2148.484       -1674.144
  22039852.588    -2740900.522 7  -2118488.57843  22039846.7404
       447.844         348.969
  22793397.963    -2458361.539 6   -642267.82542  22793392.4904
       226.781         176.713
  22513092.635     6763062.518 7   5269918.34446  22513093.3504
     -4060.125       -3163.734
 97  3  3 15 37  0.0020000  0  7 29  3 14 16 18 19 22
  22094372.322     5349076.849 7   4138728.66747  22094372.1704
     -3128.906       -2438.109
  25196192.244     -204397.332 3   -120577.33842  25196194.7294
       526.266         410.077
  21843097.088     7301235.827 7   5672658.92446  21843098.4364
     -4227.500       -3294.156
  21234484.463     2120399.073 7   1658331.91343  21234478.9084
     -2176.891       -1696.278
  22037335.705    -2754126.461 7  -2128794.51043  22037330.2094
       433.844         338.060
  22792149.604    -2464920.397 6   -647378.66441  22792143.1354
       210.469         164.002
  22536338.643     6885222.573 7   5365107.99746  22536339.1004
     -4084.000       -3182.338
 97  3  3 15 37 30.0020000  0  7 29  3 14 16 18 19 22
  22112287.807     5443222.644 7   4212089.02547  22112287.5254
     -3147.547       -2452.634
  25193225.658     -219993.477 3   -132730.11542  25193228.6354
       513.234         399.923
  21867295.666     7428400.219 7   5771748.04347  21867296.8034
     -4250.266       -3311.895
  21246992.166     2186127.434 7   1709548.81043  21246986.7174
     -2205.141       -1718.291
  22034899.463    -2766930.101 7  -2138771.37743  22034893.9434
       419.484         326.871
  22790993.807    -2470994.996 6
       194.328
  22559722.018     7008104.400 6   5460860.07046  22559722.6504
     -4108.188       -3201.185
 97  3  3 15 38  0.0020000  0  7 29  3 14 16 18 19 22
  22130309.752     5537930.171 7   4285887.09547  22130309.5534
     -3166.250       -2467.208
  25190333.158     -235190.166 2   -144571.67042  25190335.1154
       500.047         389.647
  21891624.963     7556251.603 7   5871372.48247  21891626.1004
     -4273.016       -3329.623
  21259662.643     2252711.066 7   1761432.15143  21259656.3034
     -2233.703       -1740.548
  22032547.807    -2779287.504 7  -2148400.49943  22032541.8544
       404.328         315.061
  22789930.377    -2476582.831 6
       178.234
  22583243.080     7131707.315 7   5557174.02446  22583243.8184
     -4131.781       -3219.570
 97  3  3 15 38 30.0020000  0  7 29  3 14 16 18 19 22
  22148439.588     5633201.851 7   4360124.75747  22148439.2134
     -3185.188       -2481.964
  25187515.635     -249996.839 2   -156109.34042  25187516.7364
       486.984         379.468
  21916083.768     7684783.348 7   5971527.06646  21916084.9164
     -4295.781       -3347.362
  21272497.330     2320157.186 7   1813987.56443  21272491.5414
     -2262.781       -1763.206
  22030283.705    -2791184.996 7  -2157671.26443  22030277.9984
       388.688         302.873
  22788959.557    -2481684.892 6      -635.81752  22788953.9674
       161.812         126.088
  22606897.986     7256013.095 7   5654035.66146  22606898.7014
     -4155.359       -3237.942
 97  3  3 15 39  0.0020000  0  7 29  3 14 16 18 19 22
  22166677.479     5729043.539 7   4434806.57947  22166677.2564
     -3204.234       -2496.806
  25184772.283     -264411.540 2   -167341.55842  25184774.2524
       474.141         369.460
  21940672.752     7813998.485 7   6072214.16846  21940673.8424
     -4318.641       -3365.175
  21285498.143     2388478.243 7   1867224.73543  21285492.3184
     -2291.969       -1785.950
  22028110.354    -2802606.595 7  -2166571.20243  22028104.2364
       372.766         290.467
  22788083.479    -2486288.581 6     -4223.10442  22788078.2524
       145.031         113.011
  22630687.705     7381028.577 7   5751450.32246  22630688.3264
     -4178.953       -3256.327
 97  3  3 15 39 30.0020000  0  7 29  3 14 16 18 19 22
  22185024.135     5825454.139 7   4509931.71447  22185023.9364
     -3223.156       -2511.550
  25182101.354     -278440.957 2   -178273.51742  25182104.0964
       461.047         359.257
  21965393.252     7943905.709 7   6173440.55446  21965394.4594
     -4341.859       -3383.267
  21298666.096     2457675.649 7   1921144.77943  21298660.0844
     -2321.328       -1808.827
  22026028.846    -2813545.122 7  -2175094.73043  22026023.1154
       356.484         277.780
  22787304.768    -2490380.833 6     -7411.87142  22787299.1194
       127.672          99.485
  22654611.314     7506749.960 6   5849415.03346  22654612.0764
     -4202.500       -3274.675
 97  3  3 15 40  0.0020000  0  7 29  3 14 16 18 19 22
  22203477.299     5922426.375 7   4585494.48646  22203477.2754
     -3241.734       -2526.027
  25179508.572     -292074.393 3   -188896.94242  25179510.4594
       447.875         348.994
  21990245.963     8074508.289 7   6275208.77546  21990246.9944
     -4365.078       -3401.360
  21312002.041     2527756.958 7   1975753.59943  21311996.4984
     -2350.656       -1831.680
  22024037.557    -2824009.695 7  -2183248.91543  22024031.2524
       341.141         265.824
  22786623.799    -2493959.323 6    -10200.29842  22786617.9284
       110.891          86.408
  22678669.721     7633176.214 6   5947928.98746  22678670.6824
     -4226.109       -3293.072
 97  3  3 15 40 30.0020000  0  7 29  3 14 16 18 19 22
  22222036.721     6019958.101 7   4661493.22547  22222036.5334
     -3260.500       -2540.649
  25176989.799     -305307.765 3   -199208.64143  25176991.8854
       434.141         338.291
  22015231.588     8205809.039 7   6377521.02847  22015232.5614
     -4388.266       -3419.428
  21325503.611     2598707.730 7   2031039.91543  21325497.5294
     -2379.328       -1854.022
  22022132.799    -2834018.923 7  -2191048.29643  22022127.1274
       326.156         254.148
  22786037.635    -2497038.597 6    -12599.69541  22786031.4944
        94.500          73.636
  22702864.330     7760319.451 6   6047001.63846  22702865.2214
     -4250.188       -3311.834
 97  3  3 15 41  0.0020000  0  7 29  3 14 16 18 19 22
  22240702.611     6118046.941 7   4737926.08046  22240702.5884
     -3278.859       -2554.955
  25174551.283     -318124.222 4   -209195.42943  25174552.6194
       420.219         327.443
  22040348.682     8337798.241 7   6480369.73246  22040350.0294
     -4411.203       -3437.301
  21339164.939     2670498.146 7   2086980.48044  21339159.1864
     -2406.750       -1875.390
  22020312.729    -2843583.827 7  -2198501.48943  22020306.7994
       311.391         242.642
  22785542.580    -2499641.442 6    -14627.85842  22785536.7914
        79.000          61.558
  22727195.393     7888180.178 6   6146633.36746  22727195.9554
     -4274.016       -3330.402
 97  3  3 15 41 30.0020000  0  7 29  3 14 16 18 19 22
  22259473.471     6216689.290 7   4814790.24147  22259473.2834
     -3297.438       -2569.432
  25172191.768     -330524.287 5   -218857.78444  25172194.4864
       406.422         316.692
  22065597.283     8470481.537 7   6583759.29046  22065598.4904
     -4434.281       -3455.284
  21352982.572     2743110.509 7   2143561.53743  21352976.5144
     -2434.172       -1896.757
  22018578.221    -2852698.976 7  -2205604.16443  22018571.9754
       296.297         230.881
  22785134.502    -2501785.722 6    -16298.65742  22785128.8544
        64.062          49.919
  22751664.330     8016765.348 6   6246829.60446  22751664.6704
     -4298.484       -3349.468
 97  3  3 15 42  0.0020000  0  7 29  3 14 16 18 19 22
  22278353.658     6315905.193 7   4892101.32446  22278353.7054
     -3316.984       -2584.663
  25169910.439     -342513.904 5   -228200.28744  25169912.7714
       392.969         306.209
  22090977.674     8603855.922 7   6687687.36946  22090978.8694
     -4457.391       -3473.291
  21366956.119     2816542.103 7   2200780.93843  21366950.4824
     -2461.188       -1917.808
  22016929.986    -2861357.968 7  -2212351.45043  22016924.3384
       280.875         218.864
  22784809.971    -2503490.798 6    -17627.28042  22784804.1464
        49.641          38.681
  22776272.994     8146085.151 6   6347598.27046  22776273.6274
     -4322.750       -3368.377
 97  3  3 15 42 30.0020000  0  7 29  3 14 16 18 19 22
  22297345.064     6415707.468 7   4969869.32446  22297344.8894
     -3336.531       -2599.894
  25167705.158     -354099.838 5   -237228.25844  25167706.9864
       379.344         295.593
  22116489.135     8737920.048 7   6792152.90246  22116490.2134
     -4480.219       -3491.080
  21381083.369     2890780.588 7   2258629.11243  21381077.4864
     -2488.281       -1938.920
  22015372.096    -2869545.858 7  -2218731.58443  22015366.7054
       265.000         206.494
  22784568.049    -2504760.386 6    -18616.57242  22784562.6114
        34.906          27.200
  22801017.924     8276120.624 6   6448924.60546  22801019.0144
     -4346.203       -3386.652
 97  3  3 15 43  0.0020000  0  7 29  3 14 16 18 19 22
  22316446.463     6516084.276 7   5048085.00846  22316446.0064
     -3355.203       -2614.444
  25165577.018     -365281.807 5   -245941.43744  25165578.0374
       366.250         285.390
  22142131.291     8872671.719 7   6897154.17846  22142132.4864
     -4503.328       -3509.087
  21395368.064     2965847.149 7   2317122.52343  21395362.4044
     -2516.297       -1960.751
  22013904.018    -2877259.948 7  -2224742.59443  22013898.2994
       249.250         194.221
  22784412.611    -2505580.198 6    -19255.35142  22784407.6664
        19.531          15.219
  22825895.049     8406850.456 6   6550791.98946  22825896.0574
     -4369.078       -3404.476
 97  3  3 15 43 30.0020000  0  7 29  3 14 16 18 19 22
  22335654.822     6617024.536 7   5126739.74646  22335654.7174
     -3374.141       -2629.200
  25163522.299     -376079.403 5   -254355.09745  25163523.5064
       353.531         275.479
  22167906.299     9008118.700 7   7002697.25946  22167907.6584
     -4526.375       -3527.045
  21409815.666     3041769.398 7   2376282.71143  21409809.8894
     -2545.203       -1983.275
  22012526.096    -2884500.876 7  -2230384.84843  22012519.9674
       233.656         182.070
  22784347.346    -2505922.982 6    -19522.42542  22784341.3574
         3.297           2.569
  22850901.682     8538261.540 6   6653190.21746  22850902.6314
     -4391.516       -3421.960
 97  3  3 15 44  0.0020000  0  7 29  3 14 16 18 19 22
  22354969.752     6718524.385 7   5205830.52646  22354969.7054
     -3392.219       -2643.287
  25161540.932     -386491.398 5   -262468.30045  25161541.9514
       340.547         265.361
  22193811.338     9144249.704 7   7108773.34746  22193812.8384
     -4549.062       -3544.724
  21424427.408     3118554.844 7   2436115.52043  21424421.8184
     -2573.750       -2005.519
  22011235.533    -2891282.718 7  -2235669.40843  22011229.8034
       218.594         170.333
  22784374.596    -2505777.758 6    -19409.22742  22784368.9004
       -13.109         -10.215
  22876032.939     8670326.343 6   6756097.84746  22876033.4204
     -4412.703       -3438.470
 97  3  3 15 44 30.0020000  0  7 29  3 14 16 18 19 22
  22374384.268     6820548.620 7   5285329.92246  22374384.1624
     -3409.359       -2656.644
  25159635.494     -396502.746 5   -270269.30745  25159638.0614
       326.953         254.769
  22219846.299     9281065.102 7   7215382.72846  22219847.6934
     -4571.859       -3562.488
  21439202.783     3196199.154 7   2496617.56843  21439197.3114
     -2602.469       -2027.898
  22010030.143    -2897617.512 7  -2240605.60043  22010024.4124
       203.812         158.815
  22784498.939    -2505125.806 6    -18901.20242  22784493.2794
       -30.250         -23.571
  22901285.604     8803030.442 6   6859503.64446  22901286.1074
     -4434.156       -3455.187
 97  3  3 15 45  0.0020000  0  7 29  3 14 16 18 19 22
  22393897.166     6923089.583 7   5365231.95846  22393897.0144
     -3426.859       -2670.280
  25157807.111     -406114.503 5   -277758.94744  25157808.7054
       313.734         244.468
  22246010.635     9418559.449 7   7322521.15246  22246011.9364
     -4594.500       -3580.130
  21454141.408     3274701.976 7   2557788.57543  21454135.6544
     -2630.875       -2050.032
  22008908.744    -2903510.295 7  -2245197.37842  22008902.4634
       188.906         147.200
  22784719.627    -2503965.662 6    -17997.17942  22784713.5924
       -47.062         -36.672
  22926660.791     8936378.922 6   6963411.53646  22926661.3424
     -4455.781       -3472.037
 97  3  3 15 45 30.0020000  0  7 29  3 14 16 18 19 22
  22413511.330     7026163.230 7   5445549.07646  22413511.1074
     -3444.719       -2684.196
  25156055.385     -415322.101 5   -284933.67744  25156056.4164
       299.750         233.571
  22272302.854     9556724.177 7   7430181.96046  22272304.1314
     -4616.438       -3597.224
  21469238.627     3354038.679 7   2619609.38243  21469232.5924
     -2658.141       -2071.278
  22007874.150    -2908947.113 7  -2249433.83243  22007868.2564
       173.500         135.195
  22785033.791    -2502313.441 6    -16709.70342  22785028.0964
       -62.938         -49.042
  22952159.307     9070373.888 6   7067823.18646  22952159.9984
     -4477.234       -3488.754
 97  3  3 15 46  0.0020000  0  7 29  3 14 16 18 19 22
  22433225.979     7129763.617 7   5526276.64046  22433225.8614
     -3461.922       -2697.601
  25154386.385     -424088.742 5   -291764.79744  25154388.2134
       284.688         221.834
  22298717.689     9695536.640 7   7538347.49346  22298718.6864
     -4637.688       -3613.782
  21484489.354     3434181.725 7   2682058.50343  21484483.8114
     -2684.609       -2091.903
  22006928.564    -2913917.182 7  -2253306.61543  22006923.2564
       157.797         122.959
  22785436.064    -2500199.909 6    -15062.75342  22785430.8144
       -77.891         -60.694
  22977780.635     9205015.866 6   7172738.99546  22977781.3734
     -4498.938       -3505.666
 97  3  3 15 46 30.0020000  0  7 29  3 14 16 18 19 22
  22453039.869     7233886.373 7   5607411.23646  22453039.6004
     -3479.750       -2711.494
  25152805.432     -432399.145 5   -298240.41343  25152807.0724
       269.438         209.951
  22325253.447     9834982.536 7   7647006.61146  22325254.5844
     -4658.547       -3630.037
  21499891.314     3515120.124 7   2745127.38443  21499885.5494
     -2711.250       -2112.662
  22006072.447    -2918415.038 7  -2256811.41843  22006066.6934
       142.078         110.710
  22785922.893    -2497641.494 6    -13069.15542  22785917.1044
       -92.469         -72.054
  23003527.986     9340317.098 6   7278168.51346  23003528.4904
     -4521.031       -3522.881
 97  3  3 15 47  0.0020000  0  7 29  3 14 16 18 19 22
  22472955.346     7338543.850 7   5688962.51546  22472955.1234
     -3497.250       -2725.130
  25151309.619     -440260.038 5   -304365.76043  25151310.9434
       254.578         198.373
  22351905.213     9975039.079 7   7756141.55846  22351906.2794
     -4678.547       -3645.621
  21515445.080     3596854.514 7   2808816.50043  21515439.7954
     -2737.672       -2133.251
  22005305.377    -2922446.297 7  -2259952.67443  22005300.0804
       126.734          98.754
  22786490.127    -2494662.094 6    -10747.51142  22786484.2564
      -106.312         -82.841
  23029399.666     9476273.271 6   7384108.37846  23029400.0764
     -4542.734       -3539.793
 97  3  3 15 47 30.0020000  0  7 29  3 14 16 18 19 22
  22492970.643     7443723.130 7   5770920.38046  22492970.2684
     -3514.594       -2738.644
  25149899.752     -447669.526 5   -310139.30643  25149903.0684
       239.453         186.587
  22378671.893    10115697.635 7   7865745.60446  22378673.1114
     -4698.531       -3661.193
  21531150.182     3679384.005 7   2873125.18444  21531144.5214
     -2764.312       -2154.010
  22004625.299    -2926019.907 7  -2262737.27843  22004619.5804
       111.703          87.041
  22787138.674    -2491254.121 7     -8091.93842  22787132.7564
      -120.969         -94.261
  23055395.900     9612884.335 6   7490558.55346  23055396.4284
     -4564.703       -3556.912
 97  3  3 15 48  0.0020000  0  7 29  3 14 16 18 19 22
  22513084.596     7549423.650 7   5853284.41146  22513084.3734
     -3532.281       -2752.427
  25148572.447     -454637.452 4   -315568.85943  25148576.1154
       225.250         175.519
  22405552.400    10256955.159 7   7975816.38546  22405553.5254
     -4718.812       -3676.997
  21547007.650     3762716.520 7   2938059.60844  21547002.0144
     -2791.281       -2175.024
  22004029.158    -2929152.921 7  -2265178.58143  22004022.9474
        97.031          75.609
  22787872.127    -2487399.105 7     -5087.99042  22787866.2684
      -136.266        -106.181
  23081518.736     9750161.721 6   7597527.93446  23081519.1704
     -4587.156       -3574.407
 97  3  3 15 48 30.0020000  0  7 29  3 14 16 18 19 22
  22533301.111     7655661.807 7   5936067.38046  22533301.0184
     -3550.281       -2766.453
  25147324.807     -461198.263 5   -320681.15843  25147326.2014
       212.312         165.438
  22432550.229    10398828.665 7   8086367.14546  22432551.1894
     -4739.422       -3693.056
  21563019.330     3846858.952 7   3003625.12643  21563013.6584
     -2818.250       -2196.039
  22003515.814    -2931850.856 7  -2267280.86643  22003510.1894
        82.891          64.590
  22788694.924    -2483074.373 7     -1718.04642  22788688.7484
      -151.984        -118.429
  23107768.041     9888101.508 6   7705013.47646  23107768.4634
     -4608.656       -3591.161
 97  3  3 15 49  0.0020000  0  7 29  3 14 16 18 19 22
  22553620.502     7762440.414 7   6019271.47846  22553620.1974
     -3568.141       -2780.369
  25146148.244     -467381.736 5   -325499.41743  25146148.9004
       200.000         155.844
  22459666.033    10541324.826 7   8197403.09446  22459666.9124
     -4760.266       -3709.298
  21579184.838     3931809.866 7   3069820.62943  21579178.9674
     -2845.109       -2216.968
  22003084.025    -2934120.569 7  -2269049.45543  22003078.0024
        68.531          53.401
  22789607.775    -2478278.154 7      2019.28642  22789602.3854
      -167.812        -130.763
  23134138.033    10026677.542 6   7812994.79246  23134138.5254
     -4629.594       -3607.476
 97  3  3 15 49 30.0020000  0  7 29  3 14 16 18 19 22
  22574042.244     7869757.937 7   6102895.50946  22574041.8934
     -3586.359       -2794.566
  25145041.400     -473195.574 4   -330029.63442  25145043.5454
       187.703         146.262
  22486901.674    10684447.020 7   8308926.85846  22486902.9164
     -4781.141       -3725.564
  21595503.283     4017563.145 7   3136641.36843  21595497.8114
     -2871.781       -2237.752
  22002734.080    -2935959.154 7  -2270482.13443  22002728.3734
        54.094          42.151
  22790610.682    -2473008.261 7      6125.71142  22790604.4244
      -183.266        -142.804
  23160625.760    10165870.614 6   7921456.91746  23160626.2054
     -4649.812       -3623.231
 97  3  3 15 50  0.0030000  0  7 29  3 14 16 18 19 22
  22594568.171     7977621.898 7   6186945.33446  22594567.9014
     -3604.359       -2808.592
  25144006.749     -478636.179 5   -334269.01743  25144010.6754
       174.891         136.278
  22514256.874    10828201.446 7   8420943.27446  22514258.0114
     -4802.250       -3742.013
  21611975.976     4104127.069 7   3204093.75343  21611970.3624
     -2899.016       -2258.973
  22002468.710    -2937354.086 7  -2271569.07443  22002463.2614
        38.875          30.292
  22791699.468    -2467285.777 7     10584.80242  22791693.3394
      -198.172        -154.420
  23187229.171    10305673.736 6   8030394.40646  23187230.0154
     -4669.859       -3638.851
 97  3  3 15 50 30.0030000  0  7 29  3 14 16 18 19 22
  22615196.812     8086026.191 7   6271416.20246  22615196.5774
     -3622.344       -2822.606
  25143046.601     -483681.064 5   -338200.06943  25143047.0694
       161.516         125.856
  22541732.249    10972585.567 7   8533450.35246  22541733.5624
     -4823.016       -3758.194
  21628604.312     4191510.742 7   3272184.92143  21628598.5694
     -2926.359       -2280.280
  22002290.397    -2938291.384 7  -2272299.42843  22002284.2334
        23.875          18.604
  22792873.686    -2461113.827 7     15394.12342  22792867.7694
      -213.062        -166.023
  23213944.608    10446063.600 6   8139789.10246  23213945.3704
     -4689.359       -3654.046
 97  3  3 15 51  0.0030000  0  7 29  3 14 16 18 19 22
  22635926.210     8194960.161 7   6356299.80246  22635926.0584
     -3639.906       -2836.291
  25142164.515     -488314.230 5   -341810.27043  25142164.5384
       147.234         114.728
  22569324.046    11117580.268 7   8646433.21446  22569325.3004
     -4843.141       -3773.876
  21645387.687     4279707.014 7   3340909.28043  21645382.0854
     -2953.328       -2301.295
  22002197.780    -2938776.655 7  -2272677.55443  22002191.9214
         8.531           6.648
  22794132.390    -2454500.986 7     20547.01242  22794126.7654
      -227.844        -177.541
  23240773.062    10587047.283 6   8249646.50046  23240773.8704
     -4709.609       -3669.825
 97  3  3 15 51 30.0030000  0  7 29  3 14 16 18 19 22
  22656755.679     8304419.357 7   6441592.66946  22656755.5154
     -3657.391       -2849.915
  25141366.515     -492507.335 4   -345077.58243  25141369.5504
       132.188         103.003
  22597028.726    11263170.352 7   8759880.01146  22597029.7224
     -4862.922       -3789.290
  21662323.397     4368705.971 7   3410259.10943  21662317.2924
     -2979.906       -2322.005
  22002193.124    -2938801.633 7  -2272697.00643  22002186.8314
        -6.906          -5.381
  22795474.436    -2447446.938 7     26043.68642  22795468.3784
      -242.391        -188.876
  23267717.827    10728643.125 6   8359980.91146  23267718.3664
     -4730.266       -3685.921
 97  3  3 15 52  0.0030000  0  7 29  3 14 16 18 19 22
  22677684.991     8414404.416 7   6527295.30046  22677685.0384
     -3674.953       -2863.600
  25140656.585     -496237.916 5   -347984.46243  25140659.4094
       116.594          90.852
  22624847.241    11409356.958 7   8873791.62846  22624848.1904
     -4882.672       -3804.679
  21679411.382     4458503.185 7   3480230.93944  21679405.9214
     -3006.250       -2342.532
  22002277.921    -2938355.203 7  -2272349.12943  22002271.8744
       -22.672         -17.666
  22796902.069    -2439945.886 7     31888.68242  22796896.2804
      -257.609        -200.735
  23294782.233    10870867.863 6   8470805.36846  23294783.2764
     -4751.219       -3702.248
 97  3  3 15 52 30.0030000  0  8 29  3 14 16 18 19 22 27
  22698715.679     8524920.281 7   6613411.54746  22698715.5974
     -3692.625       -2877.370
  25140033.952     -499509.499 4   -350533.67943  25140035.9794
       101.516          79.103
  22652776.226    11556125.150 7   8988156.42846  22652777.4444
     -4901.781       -3819.570
  21696645.390     4549067.481 7   3550800.50343  21696639.3314
     -3031.344       -2362.086
  22002450.788    -2937447.301 7  -2271641.67743  22002444.6124
       -37.859         -29.501
  22798415.304    -2431993.556 7     38085.30142  22798408.6714
      -272.500        -212.338
  23321964.593    11013712.093 6   8582112.55546  23321965.4834
     -4771.859       -3718.332
  25661443.608      -13475.38613
       582.031
 97  3  3 15 53  0.0030000  0  8 29  3 14 16 18 19 22 27
  22719845.093     8635957.252 7   6699933.85246  22719844.8704
     -3709.875       -2890.812
  25139497.788     -502328.034 4   -352729.89743  25139499.9684
        86.375          67.305
  22680813.335    11703461.505 6   9102963.95446  22680814.8354
     -4920.672       -3834.290
  21714021.421     4640380.514 7   3621953.52043  21714015.9254
     -3056.266       -2381.506
  22002711.890    -2936076.205 7  -2270573.27843  22002705.8194
       -53.531         -41.713
  22800011.491    -2423605.737 7     44621.27342  22800005.3514
      -286.578        -223.308
  23349263.921    11157171.403 6   8693899.01546  23349264.6364
     -4791.984       -3734.014
  25658150.272      -30784.373 3
       571.734
 97  3  3 15 53 30.0030000  0  8 29  3 14 16 18 19 22 27
  22741073.093     8747510.630 7   6786858.54846  22741072.8004
     -3727.109       -2904.241
  25139045.874     -504703.252 4   -354580.65443  25139047.6794
        71.844          55.982
  22708958.702    11851366.033 7   9218214.22246  22708959.8974
     -4939.781       -3849.180
  21731539.999     4732441.121 7   3693689.04043  21731534.2804
     -3081.281       -2400.998
  22003060.827    -2934241.903 7  -2269143.93943  22003055.3544
       -68.969         -53.742
  22801686.171    -2414803.801 7     51479.95842  22801680.4524
      -300.344        -234.034
  23376675.546    11301220.372 6   8806144.94846  23376676.2614
     -4811.297       -3749.062
  25954706.929      -47786.937 3    -11024.65052  25954708.6404
       561.766         437.739
 97  3  3 15 54  0.0030000  0  8 29  3 14 16 18 19 22 27
  22762398.976     8859577.289 7   6874183.19946  22762398.7654
     -3744.125       -2917.500
  25138674.546     -506653.731 4   -356100.43543  25138678.2964
        58.156          45.317
  22737211.436    11999836.530 6   9333905.49546  22737212.5734
     -4958.250       -3863.571
  21749200.991     4825249.882 7   3766007.54743  21749194.8044
     -3106.125       -2420.357
  22003498.304    -2931943.581 7  -2267353.04143  22003492.1164
       -84.312         -65.698
  22803439.296    -2405593.167 7     58657.08142  22803433.0734
      -313.797        -244.517
  23404194.968    11445835.964 6   8918832.40446  23404195.9294
     -4829.781       -3763.466
  25951526.616      -64505.216 3    -24051.87142  25951530.2494
       552.609         430.605
 97  3  3 15 54 30.0030000  0  8 29  3 14 16 18 19 22 27
  22783821.124     8972151.727 7   6961903.52946  22783821.0304
     -3760.703       -2930.418
  25138379.702     -508202.586 4   -357307.28043  25138382.3274
        45.031          35.089
  22765568.718    12148854.658 6   9450023.48946  22765570.0304
     -4976.312       -3877.646
  21767003.765     4918804.868 7   3838907.52243  21766997.3314
     -3131.016       -2439.752
  22004021.741    -2929193.297 7  -2265209.95343  22004016.2104
       -99.125         -77.240
  22805266.819    -2395987.161 7     66142.28042  22805260.8544
      -326.625        -254.513
  23431818.811    11591000.526 6   9031947.62446  23431820.0194
     -4847.875       -3777.565
  25948397.749      -80943.324 3    -36860.77642  25948398.4294
       543.234         423.300
 97  3  3 15 55  0.0030000  0  8 29  3 14 16 18 19 22 27
  22805337.374     9085221.111 7   7050009.52846  22805337.1984
     -3777.188       -2943.263
  25138161.218     -509349.347 5   -358200.80643  25138165.4834
        31.422          24.485
  22794029.866    12298417.266 6   9566565.75946  22794031.1084
     -4994.500       -3891.818
  21784952.226     5013123.619 7   3912402.64643  21784947.1404
     -3156.844       -2459.878
  22004631.101    -2925990.190 7  -2262714.02643  22004625.2414
      -114.312         -89.075
  22807169.187    -2385991.381 7     73931.23842  22807163.9604
      -339.703        -264.704
  23459546.343    11736709.115 6   9145486.76746  23459547.1514
     -4865.875       -3791.591
  25945323.280      -97098.065 3    -49448.87642  25945324.0544
       534.000         416.104
 97  3  3 15 55 30.0030000  0  8 29  3 14 16 18 19 22 27
  22826948.968     9198791.302 7   7138505.76446  22826949.0974
     -3794.094       -2956.437
  25138022.999     -510078.266 5   -358768.75744  25138024.2654
        17.141          13.356
  22822595.897    12448532.751 6   9683538.84746  22822596.9174
     -5013.031       -3906.258
  21803049.866     5108227.363 7   3986509.45043  21803043.7844
     -3183.312       -2480.503
  22005326.913    -2922333.814 7  -2259864.89743  22005320.8664
      -129.359        -100.800
  22809149.046    -2375586.698 7     82038.82242  22809143.0814
      -353.906        -275.771
  23487378.944    11882969.816 6   9259456.13645  23487379.7764
     -4884.828       -3806.360
  25942301.257     -112977.434 2    -61822.34842  25942301.2104
       524.875         408.994
 97  3  3 15 56  0.0030000  0  8 29  3 14 16 18 19 22 27
  22848655.983     9312861.678 7   7227391.75346  22848656.2534
     -3810.578       -2969.282
  25137966.288     -510375.187 5   -359000.06544  25137967.8124
         2.547           1.985
  22851266.069    12599194.283 6   9800937.41446  22851267.6164
     -5031.109       -3920.345
  21821297.921     5204122.227 7   4061232.69743  21821292.4134
     -3209.672       -2501.043
  22006107.694    -2918230.844 7  -2256667.75943  22006101.7064
      -144.156        -112.330
  22811210.038    -2364755.909 7     90478.41842  22811203.9444
      -368.172        -286.887
  23515319.343    12029799.872 6   9373869.13345  23515320.2574
     -4903.953       -3821.262
  25939331.022     -128585.426 2    -73984.43041  25939334.6084
       515.484         401.676
 97  3  3 15 56 30.0030000  0  8 29  3 14 16 18 19 22 27
  22870453.694     9427407.977 7   7316648.59646  22870454.0224
     -3825.891       -2981.213
  25137992.046     -510240.108 5   -358894.76644  25137992.8434
       -11.875          -9.253
  22880037.054    12750388.543 6   9918751.10646  22880038.6014
     -5048.719       -3934.067
  21839693.069     5300789.236 7   4136557.63443  21839687.7374
     -3235.000       -2520.779
  22006969.241    -2913704.323 7  -2253140.59143  22006963.0304
      -157.812        -122.971
  22813350.194    -2353510.455 7     99241.11742  22813344.3704
      -381.609        -297.358
  23543367.288    12177191.989 6   9488720.12345  23543368.4014
     -4922.328       -3835.580
  25936412.577     -143919.649 2    -85933.14441  25936416.3514
       506.703         394.834
 97  3  3 15 57  0.0030000  0  8 29  3 14 16 18 19 22 27
  22892339.507     9542420.074 7   7406268.39846  22892339.5424
     -3841.562       -2993.425
  25138103.366     -509656.659 5   -358440.10245  25138104.4214
       -26.922         -20.978
  22908911.827    12902125.110 6  10036987.37246  22908913.2454
     -5066.953       -3948.275
  21858235.327     5398228.845 7   4212484.59243  21858229.6204
     -3260.859       -2540.929
  22007910.819    -2908755.070 7  -2249284.01643  22007904.4444
      -171.984        -134.014
  22815569.374    -2341847.781 7    108328.94542  22815563.3864
      -395.812        -308.425
  23571521.702    12325142.605 6   9604006.29245  23571522.8624
     -4940.953       -3850.093
  25933547.460     -158985.775 2    -97673.01342  25933550.0384
       497.766         387.869
 97  3  3 15 57 30.0030000  0  8 29  3 14 16 18 19 22 27
  22914315.108     9657901.571 7   7496253.96946  22914315.2724
     -3857.297       -3005.686
  25138297.929     -508631.388 5   -357641.14244  25138298.8084
       -41.250         -32.143
  22937889.249    13054402.728 6  10155645.22746  22937890.7024
     -5084.781       -3962.167
  21876922.312     5496429.459 7   4289004.53643  21876917.0154
     -3285.688       -2560.276
  22008932.101    -2903389.340 7  -2245102.91244  22008926.6164
      -185.797        -144.777
  22817868.515    -2329765.117 7    117744.00842  22817862.5854
      -409.594        -319.164
  23599781.155    12473647.054 6   9719724.02545  23599782.2104
     -4959.281       -3864.375
  25930730.241     -173781.660 3   -109202.24042  25930733.1714
       488.578         380.710
 97  3  3 15 58  0.0030000  0  8 29  3 14 16 18 19 22 27
  22936381.694     9773861.864 7   7586612.61946  22936381.8004
     -3873.391       -3018.226
  25138574.249     -507175.774 5   -356506.82444  25138575.9724
       -55.688         -43.393
  22966969.147    13207218.398 6  10274722.34346  22966970.5654
     -5102.984       -3976.351
  21895750.194     5595369.111 7   4366100.35743  21895743.9604
     -3310.172       -2579.355
  22010034.679    -2897594.385 7  -2240587.36143  22010028.3514
      -200.531        -156.258
  22820245.999    -2317271.110 7    127479.66042  22820240.8084
      -423.219        -329.781
  23628143.999    12622694.444 6   9835864.83445  23628145.0194
     -4977.094       -3878.255
  25927969.726     -188294.136 3   -120510.64842  25927971.6834
       478.844         373.125
 97  3  3 15 58 30.0030000  0  8 29  3 14 16 18 19 22 27
  22958540.249     9890307.797 7   7677349.69646  22958540.3194
     -3889.891       -3031.084
  25138932.577     -505297.021 5   -355042.83944  25138933.6904
       -69.562         -54.205
  22996153.702    13360584.187 6  10394228.12346  22996154.9564
     -5121.438       -3990.731
  21914716.624     5695039.115 7   4443765.27743  21914710.8474
     -3334.641       -2598.421
  22011220.929    -2891360.140 7  -2235729.50543  22011214.9524
      -215.219        -167.703
  22822699.733    -2304378.403 7    137525.93742  22822693.6164
      -436.328        -339.996
  23656606.952    12772268.685 6   9952416.17045  23656607.8904
     -4994.562       -3891.867
  25925263.249     -202514.156 2   -131591.15442  25925267.2224
       469.047         365.491
 97  3  3 15 59  0.0030000  0  8 29  3 14 16 18 19 22 27
  22980796.890    10007264.005 7   7768484.39146  22980797.0894
     -3907.344       -3044.683
  25139368.772     -503002.900 5   -353255.18644  25139369.6284
       -83.297         -64.907
  23025442.749    13514499.579 6  10514162.17546  23025443.6754
     -5139.641       -4004.915
  21933825.210     5795456.373 7   4522012.47643  21933819.8904
     -3359.891       -2618.097
  22012493.765    -2884670.592 7  -2230516.85443  22012487.4724
      -230.812        -179.854
  22825228.983    -2291086.043 7    147883.62642  22825223.6284
      -449.938        -350.601
  23685169.968    12922369.162 6  10069377.56945  23685170.7064
     -5012.234       -3905.637
  25922612.437     -216439.031 2   -142441.72342  25922615.3664
       459.203         357.821
 97  3  3 15 59 30.0030000  0  8 29  3 14 16 18 19 22 27
  23003152.265    10124744.429 7   7860027.56246  23003152.5464
     -3924.656       -3058.174
  25139882.335     -500299.771 5   -351148.81844  25139883.1204
       -96.781         -75.414
  23054834.780    13668954.056 6  10634516.28446  23054836.0344
     -5157.219       -4018.612
  21953076.702     5896623.291 7   4600843.83743  21953071.0774
     -3384.484       -2637.261
  22013856.788    -2877508.570 7  -2224936.05243  22013850.7294
      -246.688        -192.224
  22827835.671    -2277389.212 7    158556.52342  22827830.3274
      -463.078        -360.840
  23713833.827    13072998.545 6  10186751.09445  23713834.7654
     -5029.656       -3919.213
  25920020.671     -230066.744 3   -153060.71942  25920025.0544
       449.391         350.175
 97  3  3 16  0  0.0030000  0  8 29  3 14 16 18 19 22 27
  23025607.413    10242745.616 7   7951976.52946  23025607.2724
     -3941.891       -3071.603
  25140475.897     -497185.275 5   -348721.85944  25140476.4954
      -110.719         -86.274
  23084326.765    13823936.148 6  10755281.52246  23084327.8904
     -5174.828       -4032.334
  21972468.968     5998530.381 7   4680251.95644  21972463.6244
     -3409.234       -2656.546
  22015310.960    -2869866.766 7  -2218981.39043  22015304.7024
      -262.500        -204.545
  22830516.632    -2263299.354 7    169535.63942  22830511.1714
      -476.203        -371.067
  23742597.507    13224151.879 6  10304532.88645  23742598.5624
     -5047.109       -3932.812
  25917480.905     -243405.521 3   -163454.53742  25917484.1284
       439.984         342.845
 97  3  3 16  0 30.0030000  0  8 29  3 14 16 18 19 22 27
  23048159.288    10361258.100 7   8044323.89746  23048159.3004
     -3958.969       -3084.911
  25141146.304     -493661.957 5   -345976.41344  25141148.0624
      -124.391         -96.928
  23113916.999    13979433.810 6  10876448.50646  23113918.4054
     -5191.516       -4045.337
  21992002.007     6101176.237 7   4760235.71643  21991996.3944
     -3433.875       -2675.747
  22016853.640    -2861761.367 7  -2212665.49043  22016847.3944
      -277.906        -216.550
  22833272.194    -2248817.375 7    180820.30242  22833266.3474
      -489.266        -381.246
  23771460.226    13375825.488 6  10422720.10445  23771460.7764
     -5064.438       -3946.315
  25914995.382     -256475.092 3   -173638.62342  25914996.5194
       431.453         336.197
 97  3  3 16  1  0.0030000  0  8 29  3 14 16 18 19 22 27
  23070807.960    10480276.181 7   8137065.24346  23070807.9014
     -3975.391       -3097.707
  25141898.741     -489709.807 5   -342896.72344  25141900.4764
      -139.109        -108.397
  23143600.507    14135421.354 6  10997997.21146  23143601.7144
     -5207.656       -4057.914
  22011674.452     6204556.309 7   4840791.61543  22011668.2534
     -3457.906       -2694.472
  22018484.577    -2853189.411 7  -2205986.05543  22018478.5654
      -293.453        -228.665
  22836103.710    -2233938.361 7    192414.38542  22836097.7454
      -502.641        -391.668
  23800420.452    13528013.841 6  10541308.41045  23800421.0624
     -5081.453       -3959.574
  25912553.968     -269301.610 3   -183633.25742  25912556.3944
       423.609         330.085
 97  3  3 16  1 30.0030000  0  8 29  3 14 16 18 19 22 27
  23093547.694    10599775.060 7   8230181.24446  23093547.8704
     -3991.328       -3110.126
  25142735.726     -485308.459 5   -339467.06244  25142736.9334
      -154.562        -120.438
  23173376.890    14291897.224 6  11119926.43346  23173378.0974
     -5224.172       -4070.783
  22031480.890     6308638.757 7   4921894.79143  22031475.2654
     -3480.984       -2712.455
  22020202.108    -2844164.058 7  -2198953.29243  22020195.7334
      -308.281        -240.219
  22839009.937    -2218665.044 7    204315.67542  22839004.2534
      -515.594        -401.761
  23829477.686    13680709.434 6  10660291.98045  23829478.2614
     -5098.391       -3972.772
  25910158.601     -281889.784 3   -193442.20043  25910162.5384
       415.453         323.730
 97  3  3 16  2  0.0030000  0  8 29  3 14 16 18 19 22 27
  23116378.304    10719749.708 7   8323667.95846  23116378.4444
     -4006.906       -3122.265
  25143664.296     -480431.600 5   -335666.90844  25143666.9914
      -170.734        -133.040
  23203248.952    14448874.147 6  11242246.08446  23203250.1714
     -5241.031       -4083.920
  22051418.897     6413414.507 7   5003538.23643  22051413.2264
     -3504.234       -2730.572
  22022002.460    -2834703.244 7  -2191581.23844  22021996.9994
      -322.375        -251.201
  22841990.335    -2203003.535 7    216519.47642  22841984.6284
      -528.656        -411.940
  23858631.554    13833914.645 6  10779672.63645  23858632.0814
     -5115.203       -3985.873
  25907809.624     -294235.554 3   -203062.27243  25907810.9014
       407.547         317.569
 97  3  3 16  2 30.0030000  0  8 29  3 14 16 18 19 22 27
  23139297.116    10840191.042 7   8417518.33446  23139298.5224
     -4022.500       -3134.416
  25144685.108     -475062.527 5   -331483.19244  25144686.3274
      -187.375        -146.006
  23233216.694    14606357.036 6  11364960.00246  23233217.8664
     -5257.781       -4096.972
  22071491.288     6518896.795 7   5085732.19943  22071485.6984
     -3528.000       -2749.091
  22023883.905    -2824815.931 7  -2183876.83443  22023877.9764
      -336.875        -262.500
  22845047.085    -2186940.594 7    229036.06642  22845041.4724
      -542.188        -422.484
  23887880.507    13987617.534 6  10899441.10945  23887881.5034
     -5131.641       -3998.681
  25905505.890     -306336.015 3   -212491.18343  25905508.9604
       399.078         310.970
 97  3  3 16  3  0.0040000  0  8 29  3 14 16 18 19 22 27
  23162305.035    10961096.161 7   8511730.09346  23162305.1874
     -4037.531       -3146.128
  25145801.730     -469196.491 5   -326912.18243  25145803.7464
      -203.453        -158.535
  23263282.504    14764353.437 6  11488074.05446  23263283.6054
     -5275.078       -4110.450
  22091700.355     6625095.260 7   5168484.23343  22091695.0824
     -3551.734       -2767.585
  22025847.379    -2814497.892 7  -2175836.78943  22025841.4614
      -350.844        -273.385
  22848181.027    -2170472.672 7    241868.21742  22848174.9574
      -555.688        -433.003
  23917223.465    14141815.108 6  11019595.03945  23917224.3914
     -5148.016       -4011.441
  25903254.230     -318173.223 3   -221714.94843  25903257.0314
       389.906         303.823
 97  3  3 16  3 30.0040000  0  8 29  3 14 16 18 19 22 27
  23185399.496    11082459.241 7   8606298.70846  23185399.4264
     -4053.328       -3158.438
  25147007.777     -462858.370 5   -321973.37543  25147011.6214
      -219.031        -170.674
  23293447.363    14922870.759 6  11611594.00946  23293448.4774
     -5292.578       -4124.087
  22112047.246     6732018.275 7   5251800.85243  22112041.5274
     -3576.516       -2786.895
  22027889.316    -2803766.328 7  -2167474.53543  22027883.3404
      -364.656        -284.148
  22851391.574    -2153600.242 7    255015.57742  22851385.8094
      -569.156        -443.498
  23946659.379    14296502.757 6  11140130.84645  23946660.5044
     -5164.375       -4024.188
  25901055.215     -329723.930 3   -230715.51443  25901057.8984
       380.219         296.274
 97  3  3 16  4  0.0040000  0  8 29  3 14 16 18 19 22 27
  23208584.223    11204295.346 7   8701235.90746  23208584.5044
     -4069.125       -3170.747
  25148301.160     -456062.827 5   -316678.09243  25148303.8204
      -233.859        -182.228
  23323709.098    15081896.170 6  11735509.88446  23323710.3284
     -5309.031       -4136.907
  22132536.566     6839691.195 7   5335701.82243  22132531.1874
     -3601.719       -2806.534
  22030011.074    -2792616.866 7  -2158786.63243  22030005.7304
      -378.766        -295.142
  22854679.129    -2136324.250 7    268477.43342  22854673.0594
      -582.688        -454.042
  23976187.238    14451672.819 6  11261042.57045  23976188.0824
     -5180.172       -4036.498
  25898912.855     -340991.971 4   -239495.76543  25898915.6914
       370.984         289.079
 97  3  3 16  4 30.0040000  0  9 29  3 14 31 16 18 19 22 27
  23231859.160    11326606.684 7   8796543.43246  23231859.2424
     -4084.953       -3183.080
  25149675.746     -448840.235 5   -311050.06744  25149676.1094
      -247.484        -192.845
  23354062.269    15241403.781 6  11859801.49446  23354063.4414
     -5324.609       -4149.046
  25584555.738       -8470.73214
       769.375
  22153168.746     6948113.393 7   5420186.62143  22153162.6414
     -3626.250       -2825.649
  22032214.762    -2781036.595 7  -2149763.05044  22032209.2424
      -393.250        -306.429
  22858042.621    -2118648.439 7    282250.81142  22858036.8324
      -595.438        -463.977
  24005804.332    14607311.160 6  11382319.18545  24005804.7424
     -5195.812       -4048.685
  25896821.816     -351980.900 4   -248058.54743  25896822.2504
       361.766         281.895
 97  3  3 16  5  0.0040000  0  9 29  3 14 31 16 18 19 22 27
  23255225.012    11449394.836 7   8892222.49546  23255225.4344
     -4101.062       -3195.633
  25151126.566     -441213.624 5   -305107.21643  25151128.3364
      -261.094        -203.450
  23384503.121    15401372.735 6  11984452.59446  23384504.7504
     -5340.031       -4161.063
  25580174.418      -31489.410 3
       764.891
  22173938.590     7057259.564 7   5505235.56943  22173933.3634
     -3650.203       -2844.314
  22034500.457    -2769025.500 7  -2140403.73643  22034494.8674
      -407.656        -317.654
  22861476.895    -2100602.649 7    296312.49343  22861471.4454
      -607.750        -473.571
  24035511.527    14763421.599 6  11503963.66745  24035512.4884
     -5211.859       -4061.189
  25894779.816     -362703.304 3   -256413.62642  25894780.0864
       353.062         275.114
 97  3  3 16  5 30.0040000  0  9 29  3 14 31 16 18 19 22 27
  23278684.473    11572673.510 7   8988283.77546  23278684.2274
     -4117.422       -3208.381
  25152658.473     -433164.410 5   -298835.06943  25152659.8674
      -275.562        -214.724
  23415029.988    15561792.076 6  12109454.65046  23415031.9694
     -5354.266       -4172.155
  25575823.121      -54361.031 3     -7709.02152  25575827.0354
       759.953         592.171
  22194844.340     7167119.780 7   5590840.90443  22194838.4224
     -3673.500       -2862.468
  22036870.746    -2756569.303 7  -2130697.61143  22036864.5354
      -422.922        -329.550
  22864980.895    -2082188.080 7    310661.52742  22864974.9884
      -619.812        -482.971
  24065309.191    14920011.878 6  11625982.04545  24065309.9064
     -5227.344       -4073.255
  25892787.973     -373173.503 3   -264572.21343  25892788.2664
       345.062         268.880
 97  3  3 16  6  0.0040000  0  9 29  3 14 31 16 18 19 22 27
  23302235.551    11696436.368 7   9084722.34646  23302235.3054
     -4133.500       -3220.909
  25154273.152     -424678.758 5   -292222.83844  25154274.5234
      -290.203        -226.132
  23445636.473    15722628.315 6  12234781.55946  23445638.2544
     -5368.281       -4183.076
  25571497.871      -77085.716 3    -25416.54742  25571500.7074
       754.750         588.117
  22215878.809     7277656.558 7   5676973.45243  22215873.2894
     -3695.688       -2879.756
  22039329.527    -2743648.847 7  -2120629.71443  22039323.4804
      -438.547        -341.725
  22868553.316    -2063414.773 7    325290.08142  22868546.9774
      -631.750        -492.273
  24095196.191    15077068.534 6  11748363.83445  24095197.3874
     -5243.219       -4085.625
  25890839.988     -383408.719 3   -272547.67643  25890843.3634
       337.422         262.926
 97  3  3 16  6 30.0040000  0  9 29  3 14 31 16 18 19 22 27
  23325877.254    11820673.753 7   9181530.67946  23325877.3834
     -4149.078       -3233.048
  25155971.543     -415752.254 5   -285267.06843  25155971.8834
      -305.094        -237.735
  23476322.910    15883887.477 6  12360438.01446  23476324.5164
     -5382.344       -4194.034
  25567203.785      -99649.674 3    -42998.80442  25567207.7694
       749.406         583.953
  22237038.027     7388849.218 7   5763617.06543  22237032.3444
     -3717.172       -2896.498
  22041877.137    -2730262.202 7  -2110198.55743  22041871.1024
      -453.938        -353.718
  22872192.973    -2044287.644 7    340194.34142  22872186.8324
      -643.516        -501.441
  24125173.441    15234599.837 6  11871115.47245  24125175.1524
     -5258.984       -4097.910
  25888933.613     -393427.739 3   -280354.71243  25888935.3714
       330.594         257.606
 97  3  3 16  7  0.0040000  0  9 29  3 14 31 16 18 19 22 27
  23349608.457    11945381.583 7   9278705.59146  23349608.5044
     -4164.641       -3245.175
  25157758.551     -406363.106 5   -277950.81944  25157759.8754
      -320.859        -250.020
  23507091.191    16045576.181 6  12486429.17046  23507092.5744
     -5396.844       -4205.333
  25562940.785     -122049.170 3    -60452.91442  25562944.8984
       743.828         579.606
  22258320.512     7500689.567 7   5850765.36843  22258314.7704
     -3738.812       -2913.360
  22044512.363    -2716413.090 7  -2099407.03544  22044506.7384
      -469.312        -365.698
  22875902.965    -2024791.739 7    355385.99442  22875897.2464
      -656.328        -511.425
  24155239.949    15392601.899 6  11994233.93445  24155241.2034
     -5274.484       -4109.988
  25887065.512     -403242.346 4   -288002.42843  25887066.5084
       323.781         252.297
 97  3  3 16  7 30.0040000  0  9 29  3 14 31 16 18 19 22 27
  23373426.160    12070546.054 7   9376236.32846  23373426.2664
     -4179.641       -3256.863
  25159634.512     -396502.245 5   -270267.00844  25159636.5164
      -336.453        -262.171
  23537941.160    16207694.647 6  12612755.21546  23537942.6374
     -5411.141       -4216.473
  25558711.152     -144280.133 3    -77775.65942  25558715.1374
       738.281         575.284
  22279727.879     7613184.754 7   5938423.95243  22279722.5004
     -3760.938       -2930.601
  22047235.379    -2702103.872 7  -2088256.99244  22047229.8834
      -484.672        -377.666
  22879685.684    -2004912.951 7    370875.98642  22879679.4494
      -668.922        -521.238
  24185394.699    15551064.921 6  12117711.58145  24185395.6024
     -5289.562       -4121.737
  25885237.660     -412851.352 3   -295489.95343  25885240.6484
       316.656         246.745
 97  3  3 16  8  0.0040000  0  9 29  3 14 31 16 18 19 22 27
  23397327.551    12196147.135 7   9474107.27946  23397327.5984
     -4193.656       -3267.784
  25161597.371     -386187.773 5   -262229.70644  25161598.6134
      -351.141        -273.616
  23568874.520    16370249.711 6  12739421.46546  23568876.3014
     -5425.969       -4228.028
  25554510.590     -166352.013 3    -94974.44242  25554512.5234
       733.094         571.242
  22301261.988     7726346.458 7   6026601.88143  22301255.8954
     -3783.359       -2948.072
  22050043.895    -2687345.547 7  -2076756.99944  22050038.0004
      -499.219        -389.002
  22883538.660    -1984664.860 7    386653.71942  22883532.1094
      -680.953        -530.613
  24215634.449    15709975.511 6  12241537.99845  24215635.5744
     -5304.359       -4133.267
  25883449.098     -422246.128 4   -302810.53943  25883451.6414
       309.719         241.339
 97  3  3 16  8 30.0040000  0  9 29  3 14 31 16 18 19 22 27
  23421308.270    12322166.842 7   9572304.43446  23421308.5394
     -4207.672       -3278.705
  25163645.434     -375431.157 5   -253847.90344  25163646.0664
      -365.969        -285.170
  23599892.074    16533248.072 6  12866433.13946  23599893.7384
     -5440.484       -4239.338
  25550341.098     -188265.324 3   -112049.71142  25550344.3794
       727.922         567.212
  22322925.574     7840190.324 7   6115311.37343  22322919.5514
     -3806.234       -2965.897
  22052935.176    -2672151.775 8  -2064917.69043  22052928.9064
      -513.688        -400.276
  22887460.910    -1964053.841 7    402714.26342  22887455.7194
      -693.141        -540.110
  24245955.355    15869315.424 5  12365698.92745  24245956.6334
     -5318.281       -4144.115
  25881703.285     -431427.647 4   -309964.90243  25881704.8674
       302.141         235.434
 97  3  3 16  9  0.0040000  0  9 29  3 14 31 16 18 19 22 27
  23445368.004    12448602.010 7   9670825.32346  23445368.3094
     -4221.469       -3289.456
  25165773.871     -364237.500 5   -245125.54044  25165775.7584
      -380.484        -296.481
  23630991.105    16696672.646 6  12993776.92846  23630992.8404
     -5454.750       -4250.455
  25546198.754     -210033.916 4   -129012.17443  25546201.2624
       722.969         563.352
  22344720.137     7954721.031 7   6204556.05243  22344714.8054
     -3829.438       -2983.977
  22055908.770    -2656525.526 7  -2052741.39044  22055903.2624
      -528.344        -411.696
  22891450.449    -1943089.020 7    419050.50242  22891444.8834
      -704.688        -549.107
  24276355.355    16029067.693 5  12490181.17745  24276356.9264
     -5332.234       -4154.988
  25880001.191     -440369.983 4   -316932.93643  25880003.5704
       293.688         228.847
 97  3  3 16  9 30.0040000  0  9 29  3 14 31 16 18 19 22 27
  23469507.551    12575455.739 7   9769672.36446  23469507.6564
     -4235.516       -3300.402
  25167987.074     -352609.591 5   -236064.78445  25167987.4024
      -394.656        -307.524
  23662169.934    16860520.422 6  13121450.48146  23662171.4454
     -5468.422       -4261.108
  25542086.488     -231646.900 4   -145853.41343  25542089.2664
       717.922         559.420
  22366647.926     8069951.528 7   6294346.03843  22366641.9844
     -3852.406       -3001.875
  22058967.082    -2640452.802 7  -2040217.18344  22058961.0594
      -543.203        -423.275
  22895503.910    -1921789.315 7    435647.69342  22895498.2274
      -715.203        -557.301
  24306836.449    16189246.832 5  12614996.07245  24306838.1844
     -5346.172       -4165.848
  25878347.145     -449052.109 4   -323698.19743  25878349.4884
       285.125         222.175
 97  3  3 16 10  0.0040000  0  9 29  3 14 31 16 18 19 22 27
  23493729.496    12702742.478 7   9868856.81446  23493729.6844
     -4250.234       -3311.871
  25170281.652     -340551.319 5   -226668.73045  25170281.9694
      -409.297        -318.933
  23693429.113    17024788.378 6  13249451.45046  23693430.4964
     -5482.594       -4272.151
  25538002.621     -253104.638 4   -162573.64543  25538003.0784
       712.500         555.195
  22388703.926     8185857.045 7   6384662.00743  22388698.5944
     -3874.500       -3019.091
  22062110.934    -2623932.272 7  -2027344.04744  22062105.4734
      -558.109        -434.890
  22899618.668    -1900164.439 7    452498.26043  22899613.2774
      -726.469        -566.080
  24337397.832    16349847.105 6  12740139.09645  24337399.4024
     -5360.625       -4177.110
  25876745.082     -457478.948 4   -330264.55243  25876746.6994
       276.781         215.674
 97  3  3 16 10 30.0040000  0  9 29  3 14 31 16 18 19 22 27
  23518038.137    12830484.994 6   9968396.41746  23518038.1844
     -4266.062       -3324.205
  25172662.824     -328042.486 5   -216921.53845  25172664.8404
      -424.688        -330.925
  23724767.941    17189474.538 6  13377778.29446  23724769.1844
     -5496.547       -4283.024
  25533951.168     -274395.972 4   -179164.23343  25533951.6604
       707.047         550.946
  22410885.754     8302422.395 7   6475492.13843  22410880.1054
     -3896.422       -3036.173
  22065339.566    -2606965.301 7  -2014123.01844  22065334.0234
      -572.922        -446.433
  22903799.293    -1878195.873 7    469616.63442  22903793.8204
      -738.125        -575.162
  24368043.410    16510890.034 6  12865627.06545  24368045.0274
     -5375.719       -4188.872
  25875190.035     -465651.271 4   -336632.57343  25875192.9654
       267.969         208.807
 97  3  3 16 11  0.0040000  0  9 29  3 14 31 16 18 19 22 27
  23542437.551    12958705.391 6  10068308.39246  23542437.4104
     -4281.953       -3336.587
  25175131.246     -315067.502 5   -206811.14544  25175132.6644
      -440.438        -343.198
  23756188.441    17354589.049 6  13506438.91546  23756189.8954
     -5511.297       -4294.517
  25529931.027     -295521.359 5   -195625.48243  25529932.5274
       701.000         546.234
  22433191.223     8419638.722 7   6566829.52443  22433185.5864
     -3917.984       -3052.975
  22068652.832    -2589554.917 7  -2000556.47943  22068646.4694
      -587.797        -458.024
  22908046.113    -1855878.535 7    487006.79242  22908040.1724
      -749.844        -584.294
  24398777.848    16672399.900 6  12991478.89445  24398779.6994
     -5391.641       -4201.278
  25873684.371     -473562.598 3   -342797.23442  25873687.1374
       259.516         202.220
 97  3  3 16 11 30.0040000  0  9 29  3 14 31 16 18 19 22 27
  23566926.996    13087399.819 6  10168589.74846  23566927.0664
     -4297.625       -3348.799
  25177690.395     -301617.740 5   -196330.77244  25177692.4344
      -456.250        -355.519
  23787692.520    17520142.832 6  13635441.82846  23787694.0084
     -5525.562       -4305.633
  25525945.230     -316465.150 5   -211945.24044  25525949.0044
       695.344         541.826
  22455617.324     8537490.530 7   6658662.07043  22455611.2304
     -3938.609       -3069.046
  22072049.637    -2571705.340 7  -1986647.72043  22072043.2974
      -602.000        -469.091
  22912360.059    -1833207.401 7    504672.63742  22912354.1644
      -761.516        -593.389
  24429600.746    16834374.272 6  13117692.66845  24429602.2464
     -5406.359       -4212.748
  25872225.371     -481232.414 4   -348773.70643  25872227.0824
       251.938         196.315
 97  3  3 16 12  0.0040000  0  9 29  3 14 31 16 18 19 22 27
  23591504.801    13216556.400 6  10269231.21646  23591504.2734
     -4312.672       -3360.524
  25180340.785     -287689.676 5   -185477.72644  25180343.4574
      -472.359        -368.072
  23819277.996    17686126.209 6  13764779.49146  23819279.7424
     -5539.906       -4316.810
  25521991.309     -337242.362 5   -228135.21844  25521993.2544
       689.719         537.443
  22478160.832     8655956.495 7   6750973.19743  22478155.3124
     -3959.453       -3085.288
  22075525.402    -2553438.223 7  -1972413.60544  22075519.7774
      -615.891        -479.915
  22916742.262    -1810178.827 7    522616.99142  22916735.7584
      -773.734        -602.910
  24460504.551    16996776.073 6  13244239.52045  24460505.1484
     -5420.438       -4223.718
  25870807.152     -488682.186 4   -354578.70743  25870809.5084
       244.641         190.629
 97  3  3 16 12 30.0040000  0  9 29  3 14 31 16 18 19 22 27
  23616167.895    13346159.481 6  10370220.60646  23616168.0824
     -4327.328       -3371.944
  25183083.059     -273280.013 5   -174249.38944  25183085.5664
      -488.234        -380.442
  23850942.941    17852526.509 6  13894442.02046  23850944.4304
     -5553.344       -4327.281
  25518069.418     -357852.684 5   -244195.12644  25518071.4574
       684.516         533.389
  22500825.652     8775060.787 7   6843781.73343  22500819.8284
     -3980.766       -3101.895
  22079082.168    -2534747.920 7  -1957849.73844  22079076.3914
      -630.156        -491.031
  22921193.191    -1786788.616 7    540843.15642  22921187.0274
      -785.484        -612.066
  24491486.754    17159588.976 6  13371106.70745  24491487.9964
     -5433.500       -4233.896
  25869431.965     -495909.240 4   -360210.14043  25869434.9774
       237.266         184.882
 97  3  3 16 13  0.0040000  0  9 29  3 14 31 16 18 19 22 27
  23640911.270    13476187.870 7  10471541.40046  23640911.3284
     -4341.219       -3382.768
  25185915.238     -258398.520 5   -162653.41245  25185916.8324
      -503.906        -392.654
  23882682.644    18019320.854 6  14024411.61246  23882683.7934
     -5566.156       -4337.265
  25514177.621     -378305.486 5   -260132.32545  25514180.1644
       678.875         528.994
  22523611.941     8894804.167 7   6937088.23143  22523605.8594
     -4002.266       -3118.649
  22082722.660    -2515616.632 7  -1942942.22043  22082716.7894
      -645.312        -502.841
  22925710.113    -1763052.227 7    559339.05942  22925704.4414
      -797.062        -621.088
  24522541.191    17322780.215 6  13498268.67845  24522542.2114
     -5445.781       -4243.466
  25868097.191     -502924.074 4   -365676.23043  25868099.5004
       230.312         179.464
 97  3  3 16 13 30.0040000  0  9 29  3 14 31 16 18 19 22 27
  23665734.980    13606636.033 7  10573189.29546  23665735.0164
     -4355.609       -3393.981
  25188835.582     -243050.727 5   -150694.05044  25188836.9414
      -519.469        -404.781
  23914491.684    18186478.555 6  14154664.33846  23914493.1604
     -5577.828       -4346.360
  25510315.871     -398595.942 5   -275943.01944  25510317.5124
       673.594         524.878
  22546521.934     9015196.298 7   7030900.26843  22546516.1684
     -4024.125       -3135.682
  22086449.801    -2496030.983 7  -1927680.69643  22086443.5904
      -660.609        -514.761
  22930292.762    -1738970.433 7    578104.10042  22930287.3834
      -808.531        -630.024
  24553661.918    17486321.306 6  13625703.27045  24553662.9734
     -5457.156       -4252.330
  25866802.254     -509730.331 5   -370979.78443  25866803.9184
       223.375         174.058
 97  3  3 16 14  0.0040000  0  9 29  3 14 31 16 18 19 22 27
  23690640.152    13737512.969 7  10675171.29946  23690640.2344
     -4369.469       -3404.781
  25191844.082     -227241.460 5   -138375.12945  25191845.2544
      -534.359        -416.384
  23946366.707    18353982.743 6  14285187.05146  23946368.4414
     -5588.984       -4355.053
  25506486.262     -418723.160 5   -291626.50344  25506488.8984
       668.297         520.751
  22569557.191     9136247.155 7   7125225.59043  22569551.3444
     -4045.969       -3152.703
  22090264.223    -2475985.285 7  -1912060.66343  22090257.9774
      -675.781        -526.583
  22934940.207    -1714547.007 7    597135.34642  22934934.5354
      -819.594        -638.644
  24584849.527    17650211.957 6  13753410.24945  24584851.0864
     -5469.062       -4261.607
  25865545.098     -516333.413 4   -376125.05443  25865545.7664
       216.828         168.957
 97  3  3 16 14 30.0040000  0  9 29  3 14 31 16 18 19 22 27
  23715626.348    13868817.525 6  10777486.51246  23715626.7234
     -4384.188       -3416.250
  25194936.988     -210984.254 5   -125707.14945  25194938.3014
      -549.484        -428.170
  23978305.551    18521822.045 6  14415970.88745  23978307.4024
     -5600.281       -4363.856
  25502687.012     -438685.920 5   -307181.83444  25502689.7074
       662.641         516.343
  22592717.441     9257955.120 7   7220062.95043  22592711.8164
     -4067.703       -3169.639
  22094166.723    -2455479.137 7  -1896081.84744  22094160.6994
      -691.125        -538.539
  22939650.480    -1689794.158 7    616423.31242  22939644.9964
      -830.469        -647.119
  24616107.582    17814476.257 6  13881408.37945  24616109.1874
     -5481.891       -4271.603
  25864326.668     -522735.204 4   -381113.45244  25864328.0394
       210.094         163.709
 97  3  3 16 15  0.0050000  0  9 29  3 14 31 16 18 19 22 27
  23740697.884    14000569.659 6  10880150.48846  23740698.1534
     -4399.031       -3427.817
  25198118.282     -194269.418 5   -112682.57845  25198120.1104
      -564.703        -440.028
  24010311.220    18690012.645 6  14547028.45846  24010312.5324
     -5612.062       -4373.036
  25498922.298     -458470.423 5   -322598.25544  25498923.1654
       656.281         511.388
  22616002.423     9380319.293 7   7315411.63243  22615996.0954
     -4089.438       -3186.575
  22098154.657    -2434521.058 7  -1879750.88344  22098149.1614
      -705.891        -550.045
  22944423.071    -1664714.791 7    635965.66842  22944417.0484
      -841.406        -655.641
  24647440.938    17979133.271 6  14009712.50945  24647442.2984
     -5494.781       -4281.648
  25863147.017     -528936.710 4   -385945.78443  25863147.3104
       203.391         158.486
 97  3  3 16 15 30.0050000  0  9 29  3 14 31 16 18 19 22 27
  23765854.079    14132766.058 6  10983160.64146  23765854.2674
     -4413.969       -3439.456
  25201384.978     -177101.081 5    -99304.61545  25201386.1964
      -579.875        -451.851
  24042384.501    18858559.837 6  14678363.91145  24042386.2704
     -5624.547       -4382.764
  25495193.688     -478063.467 5   -337865.51744  25495196.3724
       649.875         506.396
  22639408.884     9503320.147 7   7411256.42143  22639403.3064
     -4110.516       -3202.999
  22102225.642    -2413127.644 7  -1863080.67244  22102220.0174
      -720.328        -561.295
  22949258.571    -1639303.972 7    655766.33042  22949253.1454
      -852.625        -664.383
  24678846.384    18144169.915 6  14138312.48145  24678847.0994
     -5507.781       -4291.778
  25862005.470     -534935.875 4   -390620.43243  25862006.0914
       196.641         153.226
 97  3  3 16 16  0.0050000  0  9 29  3 14 31 16 18 19 22 27
  23791092.852    14265395.222 6  11086508.01146  23791092.4074
     -4427.844       -3450.268
  25204738.899     -159476.862 5    -85571.44645  25204740.9384
      -595.141        -463.746
  24074530.423    19027487.607 6  14809995.90145  24074531.9704
     -5637.375       -4392.760
  25491501.587     -497465.322 4   -352983.79043  25491503.0524
       643.594         501.502
  22662933.313     9626941.083 7   7507584.41843  22662927.8994
     -4130.938       -3218.912
  22106378.134    -2391307.158 7  -1846077.69943  22106372.5564
      -734.469        -572.313
  22954157.688    -1613559.315 7    675827.10042  22954152.2864
      -863.734        -673.040
  24710326.017    18309596.103 6  14267215.96545  24710326.0754
     -5520.609       -4301.774
  25860901.329     -540735.634 5   -395139.71244  25860902.2434
       189.797         147.894
 97  3  3 16 16 30.0050000  0  9 29  3 14 31 16 18 19 22 27
  23816410.884    14398443.634 6  11190182.06946  23816410.9194
     -4442.000       -3461.299
  25208180.610     -141389.419 5    -71477.31145  25208182.3334
      -610.672        -475.848
  24106750.142    19196803.616 6  14941930.41845  24106751.7124
     -5650.281       -4402.817
  25487845.923     -516674.409 4   -367951.83743  25487847.3414
       636.953         496.327
  22686574.571     9751178.034 7   7604392.40843  22686568.8064
     -4151.453       -3234.899
  22110611.813    -2369057.420 7  -1828740.23743  22110605.8134
      -748.875        -583.539
  22959120.228    -1587480.302 7    696148.42542  22959114.7674
      -874.938        -681.769
  24741876.642    18475395.613 6  14396410.35845  24741877.8374
     -5532.406       -4310.966
  25859838.001     -546325.970 4   -399495.80644  25859839.5484
       182.969         142.573
 97  3  3 16 17  0.0050000  0  9 29  3 14 31 16 18 19 22 27
  23841808.040    14531904.967 6  11294177.88646  23841808.4034
     -4455.281       -3471.648
  25211711.532     -122837.287 5    -57021.05445  25211712.0134
      -625.938        -487.744
  24139043.556    19366506.207 6  15074166.17545  24139045.4544
     -5663.062       -4412.776
  25484229.423     -535680.062 4   -382761.35843  25484229.1064
       630.234         491.092
  22710332.399     9876024.467 7   7701675.31943  22710326.7634
     -4171.312       -3250.373
  22114929.282    -2346369.525 7  -1811061.35343  22114922.8134
      -763.562        -594.984
  22964147.345    -1561062.215 7    716733.95542  22964141.8254
      -886.203        -690.548
  24773491.767    18641533.630 6  14525868.54545  24773492.3764
     -5543.344       -4319.489
  25858813.642     -551708.366 5   -403689.87843  25858815.8104
       175.969         137.119
 97  3  3 16 17 30.0050000  0  9 29  3 14 31 16 18 19 22 27
  23867278.556    14665755.831 6  11398477.23746  23867278.8844
     -4468.094       -3481.631
  25215327.204     -103835.466 5    -42214.43545  25215327.9314
      -641.000        -499.481
  24171407.985    19536581.755 6  15206692.54645  24171409.4154
     -5675.297       -4422.309
  25480649.954     -554491.012 4   -397419.16743  25480650.6224
       623.734         486.027
  22734201.001    10001454.982 7   7799413.36443  22734195.0604
     -4190.891       -3265.629
  22119330.626    -2323239.690 7  -1793038.09544  22119325.0134
      -778.422        -606.562
  22969238.821    -1534307.474 7    737581.81142  22969233.5364
      -897.453        -699.314
  24805168.860    18807997.145 6  14655580.33845  24805169.1424
     -5554.344       -4328.060
  25857828.438     -556885.499 4   -407723.95044  25857829.7864
       169.094         131.761
 97  3  3 16 18  0.0050000  0  9 29  3 14 31 16 18 19 22 27
  23892825.204    14800001.978 6  11503084.59846  23892825.2984
     -4481.828       -3492.334
  25219031.360      -84370.652 5    -27047.03545  25219032.2044
      -656.625        -511.656
  24203842.196    19707022.717 6  15339503.65045  24203844.2354
     -5687.344       -4431.696
  25477109.235     -573095.830 3   -411916.34443  25477112.0364
       616.484         480.377
  22758182.954    10127480.599 7   7897615.12143  22758176.4974
     -4211.016       -3281.311
  22123818.837    -2299654.394 7  -1774659.94343  22123812.7084
      -794.094        -618.774
  22974394.931    -1507211.558 7    758695.51943  22974389.7864
      -908.969        -708.287
  24836910.290    18974799.414 5  14785556.11645  24836911.4744
     -5565.938       -4337.094
  25856884.134     -561850.476 5   -411592.76844  25856885.9154
       161.766         126.051
 97  3  3 16 18 30.0050000  0  9 29  3 14 31 16 18 19 22 27
  23918451.001    14934666.191 6  11608017.72946  23918451.0244
     -4495.828       -3503.243
  25222822.688      -64445.444 5    -11520.86945  25222824.2824
      -671.688        -523.393
  24236342.649    19877812.785 6  15472586.79245  24236344.5714
     -5698.531       -4440.414
  25473609.274     -591488.263 4   -426248.07443  25473610.6454
       609.750         475.130
  22782279.860    10254111.622 7   7996288.62843  22782274.1884
     -4230.875       -3296.786
  22128396.696    -2275598.146 7  -1755914.80043  22128390.5794
      -809.625        -630.877
  22979615.720    -1479777.602 7    780072.61842  22979609.6144
      -920.062        -716.932
  24868718.407    19141952.050 5  14915804.88045  24868719.0524
     -5577.641       -4346.213
  25855979.017     -566602.354 4   -415295.49244  25855980.0134
       155.062         120.828
 97  3  3 16 19  0.0050000  0  9 29  3 14 31 16 18 19 22 27
  23944154.727    15069739.699 6  11713269.80146  23944154.8684
     -4509.203       -3513.665
  25226700.118      -44070.793 5      4355.50345  25226700.6924
      -686.797        -535.166
  24268904.610    20048929.630 6  15605924.56645  24268906.7314
     -5709.422       -4448.900
  25470145.009     -609690.665 4   -440431.68543  25470146.6964
       603.672         470.394
  22806488.063    10381326.282 7   8095416.89643  22806482.2984
     -4250.375       -3311.981
  22133062.829    -2251077.352 7  -1736807.69544  22133057.2744
      -825.203        -643.015
  22984899.329    -1452010.228 7    801709.53542  22984893.2244
      -931.109        -725.540
  24900595.204    19309464.221 5  15046333.81645  24900595.4744
     -5590.031       -4355.869
  25855114.329     -571152.287 5   -418840.89344  25855114.8104
       148.172         115.459
 97  3  3 16 19 30.0050000  0  9 29  3 14 31 16 18 19 22 27
  23969936.642    15205224.565 6  11818842.38846  23969936.6534
     -4523.078       -3524.476
  25230664.915      -23234.823 5     20591.35045  25230665.6774
      -702.281        -547.232
  24301529.610    20220373.289 6  15739516.99245  24301531.6734
     -5720.031       -4457.167
  25466716.798     -627709.678 5   -454472.43643  25466717.4664
       597.734         465.767
  22830810.470    10509142.237 7   8195013.74343  22830804.6924
     -4270.672       -3327.796
  22137819.009    -2226083.500 7  -1717331.96643  22137813.0444
      -840.922        -655.264
  22990246.860    -1423908.431 7    823607.04743  22990241.0134
      -942.094        -734.099
  24932543.829    19477356.376 5  15177158.84845  24932545.0834
     -5602.656       -4365.706
  25854287.087     -575496.747 5   -422226.15244  25854289.3024
       141.516         110.272
 97  3  3 16 20  0.0050000  0  9 29  3 14 31 16 18 19 22 27
  23995797.610    15341126.238 6  11924739.77546  23995797.4234
     -4537.016       -3535.337
  25234719.118       -1931.986 5     37190.99645  25234720.2554
      -718.031        -559.505
  24334213.274    20392126.781 6  15873350.84645  24334215.4074
     -5730.250       -4465.130
  25463320.407     -645558.417 5   -468380.49344  25463322.1774
       592.125         461.396
  22855247.087    10637557.842 7   8295077.82043  22855240.8884
     -4290.516       -3343.259
  22142663.782    -2200622.752 7  -1697492.43044  22142657.8884
      -856.609        -667.488
  22995653.853    -1395495.963 7    845746.64242  22995647.7704
      -952.031        -741.843
  24964562.915    19645617.005 6  15308271.00345  24964563.2674
     -5614.781       -4375.154
  25853496.376     -579650.548 5   -425462.85545  25853497.8064
       135.297         105.426
 97  3  3 16 20 30.0050000  0  9 29  3 14 31 16 18 19 22 27
  24021736.329    15477434.708 6  12030954.14146  24021736.5634
     -4550.375       -3545.747
  25238863.071       19846.998 5     54161.65545  25238864.6424
      -734.250        -572.143
  24366954.720    20564185.824 6  16007422.79245  24366956.8064
     -5740.703       -4473.275
  25459955.204     -663242.724 5   -482160.44243  25459956.6574
       586.531         457.037
  22879797.868    10766572.127 7   8395608.41743  22879792.4194
     -4310.500       -3358.831
  22147598.298    -2174692.647 7  -1677287.14743  22147592.2394
      -872.281        -679.700
  23001116.181    -1366791.225 7    868113.96942  23001110.3104
      -961.859        -749.501
  24996649.384    19814233.974 6  15439660.81345  24996650.4384
     -5626.453       -4384.249
  25852741.368     -583618.027 5   -428554.39544  25852743.3374
       128.969         100.495
 97  3  3 16 21  0.0050000  0  9 29  3 14 31 16 18 19 22 27
  24047750.540    15614141.229 6  12137478.67646  24047750.6104
     -4563.781       -3556.193
  25243101.735       42121.978 5     71518.79945  25243102.9194
      -750.938        -585.146
  24399757.040    20736562.675 6  16141742.38245  24399759.1264
     -5751.422       -4481.627
  25456624.360     -680746.485 5   -495799.69744  25456626.4584
       579.969         451.924
  22904462.806    10896186.494 7   8496606.59043  22904456.6654
     -4330.750       -3374.610
  22152622.306    -2148291.313 7  -1656714.68344  22152617.0794
      -888.062        -691.997
  23006633.321    -1337798.027 7    890706.07743  23006628.0014
      -971.125        -756.721
  25028800.290    19983187.497 6  15571312.88945  25028800.6304
     -5637.234       -4392.650
  25852023.227     -587394.725 5   -431497.22644  25852024.7744
       122.562          95.503
 97  3  3 16 21 30.0050000  0  9 29  3 14 31 16 18 19 22 27
  24073844.517    15751266.214 6  12244329.28546  24073844.8214
     -4577.625       -3566.981
  25247436.587       64900.116 5     89268.01845  25247437.6064
      -767.500        -598.052
  24432621.212    20909265.279 6  16276315.81145  24432623.0284
     -5761.906       -4489.797
  25453334.306     -698036.505 5   -509272.38644  25453334.9624
       572.875         446.396
  22929242.688    11026407.512 7   8598077.51043  22929236.7354
     -4350.250       -3389.805
  22157735.493    -2121420.261 7  -1635776.21344  22157729.6104
      -903.156        -703.758
  23012203.915    -1308524.504 7    913516.60542  23012198.0914
      -980.266        -763.843
  25061012.032    20152458.792 6  15703212.56545  25061012.5134
     -5647.297       -4400.491
  25851340.977     -590976.877 5   -434288.54144  25851343.0634
       116.438          90.731
 97  3  3 16 22  0.0050000  0  9 29  3 14 31 16 18 19 22 27
  24100017.610    15888805.305 6  12351502.57446  24100018.3724
     -4591.547       -3577.829
  25251866.446       88180.453 5    107408.57545  25251867.1614
      -784.469        -611.274
  24465546.673    21082289.433 6  16411139.78645  24465548.2434
     -5773.094       -4498.515
  25450085.618     -715106.072 5   -522573.30645  25450087.7984
       565.141         440.369
  22954132.821    11157205.425 7   8699997.93343  22954126.7634
     -4369.641       -3404.915
  22162935.368    -2094095.411 7  -1614484.11244  22162929.6144
      -918.516        -715.726
  23017827.532    -1278971.771 7    936544.72042  23017821.5444
      -990.078        -771.489
  25093280.360    20322031.946 6  15835347.46345  25093281.6024
     -5657.594       -4408.515
  25850695.438     -594372.687 5   -436934.59444  25850697.2204
       109.922          85.653
 97  3  3 16 22 30.0050000  0  9 29  3 14 31 16 18 19 22 27
  24126268.235    16026753.394 6  12458994.56646  24126268.7634
     -4605.047       -3588.348
  25256391.892      111961.960 5    125939.64045  25256393.1224
      -800.828        -624.022
  24498536.165    21255650.584 6  16546226.35845  24498537.8764
     -5784.219       -4507.183
  25446879.860     -731953.741 5   -535701.32545  25446881.4314
       558.047         434.842
  22979133.423    11288584.790 7   8802371.46643  22979127.7984
     -4388.859       -3419.890
  22168221.188    -2066319.404 7  -1592840.47243  22168214.9544
      -933.016        -727.025
  23023509.392    -1249113.164 7    959811.19342  23023504.1304
     -1000.609        -779.696
  25125606.868    20491908.794 6  15967719.00445  25125607.6424
     -5667.453       -4416.197
  25850085.478     -597574.526 5   -439429.49544  25850087.0954
       103.578          80.710
 97  3  3 16 23  0.0050000  0  9 29  3 14 31 16 18 19 22 27
  24152596.079    16165106.613 6  12566802.23646  24152596.2784
     -4618.562       -3598.880
  25261009.267      136227.102 5    144847.55545  25261010.4854
      -816.844        -636.502
  24531588.618    21429340.683 6  16681569.25245  24531589.9894
     -5795.000       -4515.584
  25443714.032     -748589.387 5   -548664.11645  25443714.3954
       551.031         429.375
  23004242.962    11420535.661 7   8905190.28343  23004237.3604
     -4407.953       -3434.769
  22173587.782    -2038117.174 7  -1570864.70743  22173582.0634
      -947.062        -737.971
  23029252.235    -1218934.225 7    983327.25143  23029246.3644
     -1011.484        -788.170
  25157990.532    20662085.401 6  16100324.12945  25157991.3994
     -5677.734       -4424.209
  25849511.853     -600589.220 5   -441778.62944  25849514.0094
        97.344          75.852
 97  3  3 16 23 30.0050000  0  9 29  3 14 31 16 18 19 22 27
  24179000.485    16303862.527 6  12674923.69146  24179000.9424
     -4631.656       -3609.083
  25265718.509      160973.404 6    164130.42245  25265719.0244
      -832.953        -649.054
  24564701.915    21603350.512 6  16817161.28745  24564702.9234
     -5805.531       -4523.791
  25440587.306     -765019.578 5   -561466.83145  25440588.9814
       544.406         424.213
  23029460.845    11553056.708 7   9008453.40343  23029455.2434
     -4426.750       -3449.416
  22179034.892    -2009492.437 7  -1548559.72344  22179029.1384
      -961.297        -749.062
  23035059.907    -1188415.863 7   1007107.79542  23035053.7674
     -1023.047        -797.179
  25190435.290    20832583.520 6  16233179.76645  25190435.9584
     -5688.719       -4432.768
  25848973.985     -603413.797 5   -443979.57444  25848975.4624
        91.078          70.970
 97  3  3 16 24  0.0050000  0  9 29  3 14 31 16 18 19 22 27
  24205478.063    16443003.119 6  12783344.89746  24205477.7124
     -4644.516       -3619.103
  25270519.329      186200.479 6    183787.90745  25270520.7124
      -848.812        -661.412
  24597872.337    21777664.801 6  16952990.55845  24597873.5674
     -5815.438       -4531.510
  25437497.493     -781255.537 5   -574118.17345  25437498.7354
       537.953         419.184
  23054786.149    11686141.870 7   9112156.09943  23054780.3134
     -4445.781       -3464.245
  22184563.517    -1980438.505 7  -1525920.29343  22184557.5524
      -975.781        -760.349
  23040931.853    -1157558.678 7   1031152.38542  23040925.8994
     -1034.125        -805.812
  25222940.806    21003401.536 6  16366284.68845  25222941.9894
     -5699.203       -4440.938
  25848471.743     -606058.232 5   -446040.14045  25848472.8684
        85.125          66.331
 97  3  3 16 24 30.0050000  0  9 29  3 14 31 16 18 19 22 27
  24232029.532    16582532.854 6  12892069.33446  24232029.8024
     -4657.500       -3629.221
  25275410.056      211905.232 5    203817.61545  25275411.1224
      -864.875        -673.929
  24631098.938    21952270.327 6  17089046.77045  24631100.5914
     -5824.719       -4538.742
  25434444.696     -797296.028 5   -586617.22045  25434446.0794
       531.219         413.937
  23080221.306    11819804.279 7   9216308.60343  23080215.4114
     -4464.953       -3479.184
  22190176.165    -1950945.145 7  -1502938.44044  22190170.8684
      -990.391        -771.733
  23046865.610    -1126376.296 7   1055450.35143  23046860.4424
     -1044.656        -814.018
  25255505.790    21174533.047 6  16499633.86545  25255507.0324
     -5709.516       -4448.973
  25848002.642     -608521.431 5   -447959.47544  25848004.8214
        79.078          61.619
 97  3  3 16 25  0.0050000  0  9 29  3 14 31 16 18 19 22 27
  24258655.392    16722450.953 6  13001096.39746  24258655.4624
     -4670.641       -3639.460
  25280393.438      238091.795 6    224222.73245  25280395.3844
      -881.281        -686.713
  24664374.767    22127137.275 6  17225306.70245  24664376.0094
     -5833.359       -4545.475
  25431432.063     -813128.875 5   -598954.44945  25431433.8564
       524.016         408.324
  23105762.813    11954024.913 7   9320896.07242  23105756.3104
     -4483.297       -3493.478
  22195871.860    -1921014.496 7  -1479615.86743  22195865.7084
     -1005.406        -783.433
  23052856.103    -1094895.936 7   1079980.51643  23052850.6654
     -1054.359        -821.579
  25288128.767    21345966.007 5  16633217.96145  25288130.3024
     -5719.516       -4456.765
  25847567.399     -610809.750 5   -449742.56345  25847569.2044
        73.141          56.993
 97  3  3 16 25 30.0050000  0  9 29  3 14 31 16 18 19 22 27
  24285357.251    16862770.108 6  13110435.96246  24285357.5324
     -4684.203       -3650.028
  25285472.540      264782.015 6    245020.32945  25285474.5204
      -898.219        -699.911
  24697701.720    22302271.171 6  17361774.64145  24697702.8454
     -5842.516       -4552.610
  25428461.618     -828737.222 5   -611116.74545  25428463.2944
       516.391         402.382
  23131409.126    12088797.308 7   9425913.48442  23131403.1024
     -4501.609       -3507.748
  22201656.509    -1890615.906 8  -1455928.65244  22201650.2744
     -1021.234        -795.767
  23058902.985    -1063119.806 7   1104741.15942  23058897.3024
     -1064.141        -829.200
  25320807.157    21517692.883 5  16767031.06945  25320807.9314
     -5729.094       -4464.229
  25847166.915     -612912.466 5   -451381.04645  25847168.1344
        66.844          52.086
 97  3  3 16 26  0.0050000  0  9 29  3 14 31 16 18 19 22 27
  24312137.267    17003501.562 6  13220096.80246  24312137.4194
     -4697.906       -3660.706
  25290647.556      291979.607 6    266213.29245  25290648.8454
      -914.906        -712.914
  24731081.642    22477680.880 6  17498457.49545  24731083.0134
     -5851.531       -4559.635
  25425535.282     -844115.438 5   -623099.70544  25425536.6884
       508.828         396.489
  23157159.118    12224113.542 7   9531354.68443  23157153.5174
     -4519.547       -3521.725
  22207529.712    -1859752.997 8  -1431879.63344  22207524.1104
     -1036.281        -807.492
  23065004.524    -1031054.531 7   1129727.07543  23064998.8644
     -1073.672        -836.627
  25353539.048    21689699.656 5  16901062.27545  25353540.0324
     -5738.172       -4471.303
  25846802.868     -614825.002 5   -452871.27945  25846804.4034
        60.516          47.155
 97  3  3 16 26 30.0060000  0  9 29  3 14 31 16 18 19 22 27
  24338996.443    17144646.207 6  13330079.60246  24338996.7834
     -4711.391       -3671.213
  25295920.068      319684.104 6    287801.24445  25295921.6154
      -931.953        -726.197
  24764515.006    22653376.125 6  17635362.84745  24764516.3654
     -5861.062       -4567.062
  25422651.732     -859270.618 5   -634908.90745  25422653.3144
       501.234         390.572
  23183011.732    12359970.502 7   9637217.22643  23183006.3534
     -4537.125       -3535.422
  22213488.295    -1828440.528 8  -1407480.31644  22213481.9674
     -1051.141        -819.071
  23071162.045     -998697.168 7   1154940.63243  23071155.9514
     -1083.484        -844.274
  25386326.639    21861997.607 5  17035320.39944  25386327.3304
     -5747.969       -4478.937
  25846477.084     -616538.936 5   -454206.79645  25846478.9364
        53.703          41.847
 97  3  3 16 27  0.0060000  0  9 29  3 14 31 16 18 19 22 27
  24365930.490    17286185.575 6  13440369.98946  24365930.6434
     -4724.594       -3681.502
  25301287.193      347890.483 5    309780.26445  25301288.6234
      -948.469        -739.067
  24798000.928    22829347.244 6  17772483.14945  24798003.2364
     -5870.516       -4574.428
  25419812.287     -874191.531 5   -646535.53145  25419813.4474
       493.516         384.558
  23208962.076    12496339.412 7   9743478.69843  23208956.5684
     -4554.281       -3548.791
  22219530.756    -1796685.021 8  -1382735.76744  22219525.0844
     -1066.016        -830.662
  23077375.443     -966045.139 7   1180383.78143  23077369.5024
     -1093.438        -852.029
  25419167.193    22034576.468 5  17169797.41644  25419167.5454
     -5757.375       -4486.266
  25846188.178     -618053.360 5   -455386.84845  25846189.9124
        47.109          36.709
 97  3  3 16 27 30.0060000  0  9 29  3 14 31 16 18 19 22 27
  24392938.568    17428113.129 6  13550962.85746  24392938.9434
     -4737.297       -3691.400
  25306747.990      376585.103 5    332139.73845  25306749.1394
      -964.438        -751.510
  24831541.451    23005603.203 6  17909825.39345  24831543.1974
     -5879.844       -4581.696
  25417016.834     -888881.755 5   -657982.43044  25417017.7604
       485.781         378.531
  23235011.365    12633229.714 7   9850146.43943  23235005.4824
     -4571.703       -3562.366
  22225658.912    -1764482.825 8  -1357643.14543  22225652.6544
     -1080.703        -842.106
  23083646.045     -933093.454 7   1206060.43043  23083640.4554
     -1103.219        -859.651
  25452062.787    22207445.148 5  17304500.22544  25452063.0454
     -5767.297       -4493.998
  25845938.592     -619367.052 5   -456410.49545  25845939.6114
        40.500          31.558
 97  3  3 16 28  0.0060000  0  9 29  3 14 31 16 18 19 22 27
  24420018.428    17570419.547 6  13661850.94546  24420018.8964
     -4749.781       -3701.128
  25312298.834      405755.747 5    354870.14845  25312300.3224
      -980.359        -763.916
  24865133.146    23182128.781 6  18047377.75345  24865135.2214
     -5888.531       -4588.466
  25414265.990     -903337.865 5   -669246.88744  25414266.9394
       477.781         372.297
  23261159.826    12770640.256 7   9957219.55543  23261154.1894
     -4589.125       -3575.942
  22231870.170    -1731841.853 8  -1332208.61844  22231864.9204
     -1095.719        -853.807
  23089970.490     -899857.671 7   1231958.44443  23089965.0764
     -1112.594        -866.956
  25485014.576    22380609.695 5  17439433.61544  25485017.1664
     -5777.141       -4501.668
  25845725.623     -620487.580 5   -457283.62445  25845726.9124
        34.188          26.640
 97  3  3 16 28 30.0060000  0  9 29  3 14 31 16 18 19 22 27
  24447167.412    17713089.393 6  13773022.20446  24447168.1854
     -4761.781       -3710.479
  25317939.725      435398.041 5    377968.04145  25317941.2714
      -996.047        -776.140
  24898772.396    23358904.752 5  18185125.20545  24898774.5764
     -5896.672       -4594.809
  25411560.100     -917557.163 5   -680326.82944  25411561.0844
       469.812         366.088
  23287407.123    12908570.773 7  10064697.87542  23287400.9944
     -4606.484       -3589.468
  22238169.014    -1698740.605 8  -1306415.43644  22238162.9554
     -1111.359        -865.994
  23096347.037     -866348.909 7   1258069.17543  23096341.0844
     -1121.562        -873.945
  25518023.217    22554070.282 5  17574597.67044  25518025.3144
     -5786.906       -4509.278
  25845545.631     -621429.703 5   -458017.72645  25845546.5924
        28.469          22.183
 97  3  3 16 29  0.0060000  0  9 29  3 14 31 16 18 19 22 27
  24474386.662    17856127.536 6  13884480.46845  24474386.6504
     -4774.031       -3720.024
  25323670.482      465514.972 5    401435.80845  25323671.8534
     -1011.703        -788.340
  24932458.123    23535925.020 5  18323063.04545  24932459.7874
     -5904.578       -4600.970
  25408901.084     -931530.599 5   -691215.15544  25408903.0534
       462.016         360.012
  23313755.685    13047032.880 7  10172590.39943  23313750.1894
     -4624.312       -3603.360
  22244560.092    -1665156.840 8  -1280246.27544  22244554.6434
     -1127.391        -878.486
  23102777.225     -832558.109 7   1284399.66843  23102771.0964
     -1131.078        -881.360
  25551085.678    22727815.645 5  17709983.62544  25551086.8144
     -5796.062       -4516.412
  25845399.029     -622199.356 5   -458617.41745  25845401.4434
        23.062          17.971
 97  3  3 16 29 30.0060000  0  9 29  3 14 31 16 18 19 22 27
  24501675.123    17999529.219 6  13996222.00446  24501675.7324
     -4786.250       -3729.545
  25329491.771      496105.391 5    425272.52645  25329492.6154
     -1027.797        -800.881
  24966188.889    23713181.030 5  18461184.55645  24966190.2604
     -5912.547       -4607.179
  25406284.982     -945277.082 5   -701926.67645  25406285.8144
       454.266         353.973
  23340206.107    13186031.994 7  10280901.38342  23340199.9674
     -4642.266       -3617.350
  22251041.396    -1631096.982 8  -1253706.10443  22251035.3144
     -1143.328        -890.905
  23109262.029     -798481.731 7   1310952.69243  23109256.1114
     -1140.734        -888.884
  25584200.428    22901834.993 5  17845583.07845  25584201.2954
     -5805.109       -4523.462
  25845282.740     -622813.267 5   -459095.78545  25845284.4864
        17.953          13.989
 97  3  3 16 30  0.0060000  0  9 29  3 14 31 16 18 19 22 27
  24529036.209    18143310.240 6  14108259.13346  24529036.8894
     -4799.016       -3739.493
  25335407.420      527193.713 5    449497.21145  25335408.9204
     -1044.828        -814.152
  24999967.092    23890685.120 5  18599499.39545  24999969.5644
     -5921.188       -4613.912
  25403714.537     -958786.286 5   -712453.29345  25403716.2604
       446.359         347.812
  23366760.123    13325574.148 7  10389635.49543  23366754.5684
     -4660.609       -3631.644
  22257615.654    -1596548.716 8  -1226785.39144  22257609.9364
     -1159.953        -903.860
  23115803.428     -764104.965 7   1337739.78643  23115797.5104
     -1151.234        -897.066
  25617365.756    23076117.360 5  17981387.48845  25617367.6544
     -5813.719       -4530.170
  25845194.850     -623277.396 5   -459457.44745  25845196.5144
        12.984          10.118
 97  3  3 16 30 30.0060000  0  9 29  3 14 31 16 18 19 22 27
  24556469.475    18287473.902 6  14220594.41445  24556469.8504
     -4811.859       -3749.501
  25341421.545      558798.197 5    474124.09045  25341422.8814
     -1062.141        -827.642
  25033795.154    24068455.283 5  18738021.55145  25033797.2994
     -5930.094       -4620.852
  25401188.857     -972059.424 5   -722795.97045  25401190.1234
       438.609         341.774
  23393420.568    13465674.556 7  10498804.61843  23393414.7564
     -4679.406       -3646.291
  22264285.123    -1561501.116 8  -1199475.57744  22264279.3934
     -1176.375        -916.656
  23122407.287     -729402.224 7   1364780.89743  23122401.6154
     -1162.219        -905.625
  25650579.990    23250659.873 5  18117394.60445  25650582.5684
     -5822.266       -4536.830
  25845135.623     -623585.488 5   -459697.50745  25845137.3104
         7.547           5.881
 97  3  3 16 31  0.0060000  0  9 29  3 14 31 16 18 19 22 27
  24583975.748    18432019.999 6  14333227.70145  24583976.1704
     -4824.469       -3759.326
  25347534.779      590922.020 5    499155.65445  25347535.4244
     -1079.453        -841.132
  25067674.107    24246487.247 5  18876747.70145  25067676.0764
     -5938.594       -4627.476
  25398706.209     -985104.110 5   -732960.63645  25398707.7094
       431.062         335.893
  23420187.146    13606333.942 7  10608409.29343  23420181.8384
     -4697.703       -3660.548
  22271045.912    -1525971.194 8  -1171789.92544  22271040.5214
     -1192.172        -928.965
  23129072.240     -694376.121 7   1392073.97543  23129066.4044
     -1172.594        -913.709
  25683840.310    23425443.388 5  18253589.50245  25683842.3144
     -5830.109       -4542.942
  25845108.459     -623731.416 5   -459811.17245  25845109.5374
         2.203           1.717
 97  3  3 16 31 30.0060000  0  9 29  3 14 31 16 18 19 22 27
  24611553.654    18576941.630 6  14446153.61746  24611554.0414
     -4836.984       -3769.079
  25353747.428      623571.479 5    524596.81145  25353748.6704
     -1097.172        -854.939
  25101600.412    24424773.012 5  19015671.64645  25101602.7794
     -5947.109       -4634.111
  25396269.326     -997910.889 5   -742939.93145  25396270.5214
       422.656         329.343
  23447057.154    13747535.938 7  10718436.78342  23447051.1434
     -4715.719       -3674.586
  22277897.225    -1489968.242 8  -1143735.67044  22277891.3654
     -1208.109        -941.384
  23135794.412     -659052.311 7   1419599.02843  23135788.6464
     -1182.234        -921.222
  25717147.404    23600471.653 5  18389975.15045  25717149.8424
     -5838.406       -4549.407
  25845112.803     -623707.163 5   -459792.25945  25845115.1234
        -3.922          -3.056
 97  3  3 16 32  0.0060000  0  9 29  3 14 31 16 18 19 22 27
  24639202.459    18722236.122 6  14559370.07745  24639202.7524
     -4848.984       -3778.429
  25360060.834      656746.093 5    550447.17545  25360062.2874
     -1114.359        -868.332
  25135575.482    24603310.768 5  19154791.92845  25135577.3574
     -5955.203       -4640.418
  25393880.107    -1010467.512 5   -752724.27145  25393881.3734
       414.609         323.072
  23474028.576    13889271.884 7  10828880.36042  23474022.6004
     -4733.203       -3688.210
  22284839.701    -1453485.873 8  -1115307.85744  22284834.1464
     -1223.844        -953.644
  23142570.006     -623446.054 7   1447344.19943  23142564.6624
     -1191.391        -928.356
  25750500.951    23775746.288 5  18526552.74945  25750501.7134
     -5846.547       -4555.751
  25845152.037     -623498.545 5   -459629.66045  25845152.9634
        -9.938          -7.744
 97  3  3 16 32 30.0060000  0  9 29  3 14 31 16 18 19 22 27
  24666918.279    18867884.475 6  14672862.25746  24666918.7134
     -4861.094       -3787.865
  25366471.146      690433.564 5    576697.15445  25366473.0684
     -1131.484        -881.676
  25169594.342    24782080.550 5  19294093.01445  25169596.5104
     -5962.781       -4646.323
  25391535.498    -1022784.305 5   -762321.75545  25391537.0804
       406.328         316.619
  23501098.881    14031527.726 7  10939729.02543  23501093.1974
     -4750.547       -3701.725
  22291870.850    -1416536.030 8  -1086515.76344  22291865.3074
     -1239.516        -965.856
  23149397.553     -587566.384 7   1475302.37243  23149391.5294
     -1200.516        -935.467
  25783902.553    23951274.443 5  18663327.88845  25783904.5214
     -5855.391       -4562.642
  25845227.428     -623103.484 5   -459321.80045  25845228.8114
       -16.453         -12.821
 97  3  3 16 33  0.0060000  0  9 29  3 14 31 16 18 19 22 27
  24694704.826    19013903.930 6  14786643.61445  24694705.3534
     -4873.484       -3797.520
  25372979.771      724635.575 5    603348.09745  25372981.8814
     -1148.547        -894.972
  25203655.959    24961076.729 5  19433570.51745  25203658.2794
     -5970.234       -4652.131
  25389241.389    -1034840.222 5   -771715.93845  25389242.1864
       397.438         309.692
  23528266.264    14174293.682 7  11050975.19842  23528260.2054
     -4766.938       -3714.497
  22298992.693    -1379111.918 8  -1057354.12544  22298987.2444
     -1255.422        -978.251
  23156276.920     -551414.900 7   1503472.36443  23156271.5064
     -1209.531        -942.492
  25817355.131    24127068.522 5  18800310.23845  25817356.0574
     -5864.125       -4569.448
  25845339.373     -622515.668 5   -458863.76845  25845340.6744
       -22.578         -17.593
 97  3  3 16 33 30.0060000  0  9 29  3 14 31 16 18 19 22 27
  24722561.998    19160295.196 6  14900714.69745  24722562.6194
     -4886.062       -3807.321
  25379584.764      759348.079 5    630396.80845  25379586.8504
     -1165.625        -908.279
  25237760.873    25140296.909 5  19573222.55245  25237763.3814
     -5977.781       -4658.011
  25386997.896    -1046632.549 5   -780904.71745  25386998.6934
       388.781         302.946
  23555526.084    14317545.158 7  11162599.69642  23555519.9324
     -4783.188       -3727.159
  22306205.279    -1341207.963 8  -1027818.57244  22306199.2214
     -1271.531        -990.804
  23163208.006     -514992.215 7   1531853.69343  23163202.3934
     -1218.828        -949.736
  25850856.482    24303118.538 5  18937492.02845  25850858.8614
     -5872.375       -4575.877
  25845485.162     -621748.653 5   -458266.05445  25845485.6894
       -28.391         -22.123
 97  3  3 16 34  0.0060000  0  9 29  3 14 31 16 18 19 22 27
  24750493.201    19307072.881 6  15015086.88445  24750493.8814
     -4898.906       -3817.330
  25386289.451      794578.467 5    657849.07445  25386290.4004
     -1183.172        -921.952
  25271907.959    25319741.258 5  19713049.27545  25271909.8464
     -5984.953       -4663.600
  25384801.826    -1058170.560 5   -789895.32745  25384803.2214
       380.453         296.457
  23582879.686    14461288.798 7  11274607.69242  23582874.1894
     -4799.594       -3739.943
  22313511.654    -1302813.877 8   -997901.10844  22313506.0764
     -1287.922       -1003.575
  23170195.178     -478274.224 7   1560465.10843  23170189.6234
     -1229.016        -957.675
  25884404.006    24479412.224 5  19074863.70145  25884405.5764
     -5880.484       -4582.196
  25845661.764     -620820.164 5   -457542.53145  25845662.9474
       -33.422         -26.043
 97  3  3 16 34 30.0060000  0  9 29  3 14 31 16 18 19 22 27
  24778496.107    19454230.209 6  15129754.89845  24778496.2714
     -4911.781       -3827.362
  25393093.396      830333.616 5    685710.25645  25393095.1664
     -1200.500        -935.455
  25306092.693    25499383.122 5  19853029.90245  25306094.7094
     -5991.250       -4668.506
  25382653.232    -1069460.879 5   -798692.93645  25382654.4634
       372.000         289.870
  23610324.154    14605510.440 7  11386988.17443  23610318.6114
     -4815.312       -3752.192
  22320909.123    -1263939.175 8   -967609.12944  22320903.2644
     -1303.781       -1015.933
  23177239.279     -441256.792 7   1589309.87643  23177232.9514
     -1238.844        -965.333
  25917996.123    24655939.888 5  19212417.69045  25917997.1784
     -5887.969       -4588.028
  25845866.568     -619745.615 5   -456705.20545  25845868.5374
       -38.312         -29.854
 97  3  3 16 35  0.0060000  0  9 29  3 14 31 16 18 19 22 27
  24806573.771    19601777.381 6  15244726.68045  24806574.5104
     -4924.578       -3837.334
  25399996.014      866608.687 5    713976.54745  25399997.4904
     -1217.859        -948.981
  25340313.779    25679216.846 5  19993160.04445  25340316.8144
     -5997.562       -4673.425
  25380555.389    -1080485.565 5   -807283.57345  25380556.3034
       363.094         282.930
  23637857.685    14750199.344 7  11499732.73842  23637852.3184
     -4830.531       -3764.050
  22328397.162    -1224589.768 8   -936947.26244  22328391.4204
     -1319.375       -1028.084
  23184338.943     -403948.328 7   1618381.41043  23184333.0604
     -1248.328        -972.723
  25951628.639    24832678.151 5  19350135.76044  25951629.3654
     -5894.453       -4593.080
  25846098.990     -618522.809 5   -455752.32145  25846100.4434
       -43.219         -33.677
 97  3  3 16 35 30.0060000  0  9 29  3 14 31 16 18 19 22 27
  24834723.264    19749705.743 6  15359995.49645  24834724.0494
     -4937.281       -3847.232
  25406998.084      903405.456 5    742649.37845  25406999.7714
     -1235.312        -962.581
  25374570.662    25859234.528 5  20133433.49845  25374574.1894
     -6003.594       -4678.125
  25378507.600    -1091246.831 5   -815668.91545  25378509.5684
       354.219         276.015
  23665479.834    14895354.006 7  11612840.23642  23665473.8114
     -4846.547       -3776.530
  22335972.014    -1184784.372 8   -905930.05844  22335966.6004
     -1334.281       -1039.700
  23191491.990     -366359.839 7   1647671.14043  23191486.0844
     -1257.703        -980.028
  25985296.584    25009608.881 5  19488003.81444  25985298.7994
     -5901.109       -4598.267
  25846361.084     -617146.409 5   -454679.77745  25846361.7874
       -48.656         -37.914
 97  3  3 16 36  0.0060000  0  9 29  3 14 31 16 18 19 22 27
  24862943.787    19898005.812 6  15475553.95845  24862944.4204
     -4949.391       -3856.668
  25414098.959      940718.669 5    771724.62845  25414099.4634
     -1252.328        -975.840
  25408858.662    26039423.708 5  20273840.60845  25408860.6784
     -6009.125       -4682.435
  25376511.178    -1101738.065 5   -823843.88045  25376512.3504
       345.062         268.880
  23693192.920    15040987.101 7  11726320.53542  23693187.3534
     -4862.344       -3788.839
  22343629.654    -1144543.278 8   -874573.36244  22343623.6894
     -1348.516       -1050.791
  23198698.810     -328484.953 7   1677184.04443  23198693.1034
     -1267.219        -987.443
  26019005.459    25186748.224 5  19626034.41843  26019007.2524
     -5908.266       -4603.843
  25846653.873     -615607.474 5   -453480.59245  25846655.0684
       -54.250         -42.273
 97  3  3 16 36 30.0060000  0  9 29  3 14 31 16 18 19 22 27
  24891233.467    20046669.232 6  15591395.54445  24891234.2644
     -4961.500       -3866.104
  25421295.678      978537.805 5    801194.12045  25421295.6074
     -1268.750        -988.636
  25443182.006    26219790.451 5  20414386.06445  25443184.3384
     -6015.297       -4687.244
  25374567.639    -1111947.357 5   -831799.13845  25374569.4904
       335.641         261.538
  23720995.560    15187091.026 7  11840167.71242  23720990.1234
     -4877.906       -3800.966
  22351368.404    -1103875.448 8   -842884.15444  22351362.6154
     -1362.703       -1061.847
  23205958.576     -290335.671 7   1706910.76943  23205952.3304
     -1275.875        -994.188
  26052753.139    25364093.376 5  19764225.41043  26052755.9984
     -5914.609       -4608.787
  25846980.951     -613886.835 5   -452139.80345  25846982.8504
       -60.438         -47.094
 97  3  3 16 37  0.0060000  0  9 29  3 14 31 16 18 19 22 27
  24919592.264    20195693.017 6  15707517.94245  24919592.7564
     -4973.312       -3875.308
  25428585.693     1016848.342 5
     -1285.312
  25477541.146    26400348.648 5  20555080.70945  25477542.8814
     -6021.766       -4692.285
  25372678.631    -1121875.518 5   -839535.32745  25372680.7284
       326.453         254.379
  23748887.623    15333665.795 7  11954381.78242  23748882.0214
     -4893.703       -3813.275
  22359189.787    -1062772.996 8   -810856.27043  22359183.2484
     -1377.484       -1073.364
  23213265.889     -251935.800 7   1736832.75443  23213260.1464
     -1284.109       -1000.605
  26086536.662    25541626.004 5  19902562.46243  26086537.5534
     -5920.938       -4613.718
  25847343.146     -611983.520 5   -450656.68045  25847344.5064
       -66.266         -51.636
 97  3  3 16 37 30.0070000  0  9 29  3 14 31 16 18 19 22 27
  24948017.823    20345071.064 6  15823916.37845  24948018.3514
     -4984.766       -3884.233
  25435970.995     1055659.089 5
     -1301.938
  25511937.769    26581104.910 5  20695929.68445  25511939.3154
     -6028.219       -4697.313
  25370840.597    -1131537.636 5   -847064.18945  25370842.3664
       317.672         247.537
  23776872.276    15480725.325 7  12068973.59043  23776866.4404
     -4909.906       -3825.901
  22367097.440    -1021217.685 8   -778475.51044  22367091.5114
     -1392.922       -1085.394
  23220620.995     -213283.967 7   1766951.07943  23220615.7104
     -1292.625       -1007.240
  26120359.776    25719366.859 5  20041061.80843  26120361.2414
     -5928.109       -4619.306
  25847737.229     -609913.868 5   -449043.92445  25847738.1904
       -71.562         -55.763
 97  3  3 16 38  0.0070000  0  9 29  3 14 31 16 18 19 22 27
  24976507.315    20494783.676 6  15940575.51445  24976507.8194
     -4996.312       -3893.231
  25443451.558     1094968.428 5      7181.31055  25443452.2844
     -1318.859       -1027.683
  25546369.933    26762047.064 5  20836923.51345  25546371.9604
     -6034.781       -4702.427
  25369052.425    -1140932.642 5   -854384.94345  25369053.5034
       308.562         240.438
  23804946.589    15628257.001 7  12183933.28043  23804941.0224
     -4925.578       -3838.113
  22375096.362     -979183.730 8   -745721.77844  22375090.3974
     -1409.547       -1098.348
  23228024.854     -174376.620 7   1797268.47143  23228019.5694
     -1301.094       -1013.839
  26154223.065    25897320.050 5  20179726.60443  26154224.6944
     -5935.391       -4624.980
  25848159.331     -607694.396 5   -447314.44345  25848160.2104
       -76.453         -59.574
 97  3  3 16 38 30.0070000  0  9 29  3 14 31 16 18 19 22 27
  25005062.854    20644845.717 6  16057506.94645  25005063.5344
     -5007.875       -3902.240
  25451029.503     1134791.649 5     38212.43245  25451030.7924
     -1336.062       -1041.088
  25580841.097    26943194.520 5  20978077.30945  25580842.8544
     -6041.562       -4707.711
  25367316.940    -1150052.035 5   -861490.91845  25367318.0304
       299.375         233.279
  23833109.933    15776255.846 7  12299257.04242  23833104.5774
     -4941.031       -3850.154
  22383191.933     -936640.970 8   -712571.59244  22383186.0974
     -1426.594       -1111.631
  23235474.815     -135226.347 7   1827775.20143  23235468.8044
     -1308.969       -1019.976
  26188125.979    26075482.408 5  20318554.39443  26188127.9834
     -5942.266       -4630.337
  25848609.042     -605332.311 5   -445473.83145  25848609.2654
       -80.797         -62.959
 97  3  3 16 39  0.0070000  0  9 29  3 14 31 16 18 19 22 27
  25033684.128    20795250.773 6  16174705.66145  25033684.2924
     -5019.234       -3911.092
  25458706.315     1175134.417 5     69648.37345  25458707.9684
     -1353.609       -1054.761
  25615348.362    27124532.065 5  21119379.26245  25615350.0974
     -6047.688       -4712.484
  25365633.323    -1158902.244 5   -868387.14645  25365633.9214
       290.625         226.461
  23861361.190    15924716.410 7  12414940.56142  23861355.5194
     -4956.391       -3862.123
  22391383.104     -893595.721 8   -679029.83044  22391377.5854
     -1443.000       -1124.416
  23242970.323      -95837.540 7   1858467.80243  23242964.1244
     -1317.266       -1026.441
  26222070.729    26253859.908 5  20457549.77643  26222072.7574
     -5949.719       -4636.144
  25849080.269     -602854.345 5   -443542.92945  25849081.4294
       -84.438         -65.795
 97  3  3 16 39 30.0070000  0  9 29  3 14 31 16 18 19 22 27
  25062371.190    20945999.945 6  16292172.50845  25062371.4834
     -5030.688       -3920.016
  25466484.847     1216011.900 5    101500.95345  25466486.5464
     -1371.516       -1068.713
  25649891.706    27306056.320 5  21260826.67445  25649893.4764
     -6054.016       -4717.415
  25363999.909    -1167486.596 6   -875076.23545  25364000.7064
       281.531         219.375
  23889700.198    16073639.149 7  12530984.20642  23889694.1754
     -4971.734       -3874.079
  22399666.901     -850064.534 8   -645109.42244  22399660.8084
     -1459.047       -1136.920
  23250516.198      -56183.188 7   1889367.29243  23250510.2334
     -1326.359       -1033.527
  26256057.987    26432465.044 5  20596722.57443  26256060.2024
     -5957.203       -4641.976
  25849573.925     -600260.283 5   -441521.55545  25849575.3664
       -88.594         -69.034
 97  3  3 16 40  0.0070000  0  9 29  3 14 31 16 18 19 22 27
  25091124.354    21097098.609 6  16409911.68045  25091124.2374
     -5042.453       -3929.184
  25474366.894     1257430.281 6    133775.03645  25474367.8664
     -1389.625       -1082.825
  25684471.472    27487775.041 5  21402425.62545  25684473.3584
     -6060.484       -4722.455
  25362420.104    -1175785.907 5   -881543.18545  25362421.4404
       271.922         211.887
  23918126.714    16223020.808 7  12647385.47642  23918121.5464
     -4986.828       -3885.840
  22408043.136     -806047.286 8   -610810.28144  22408037.5114
     -1475.203       -1149.509
  23258115.948      -16246.909 7   1920486.46542  23258109.6554
     -1335.891       -1040.954
  26290086.839    26611289.253 5  20736066.07144  26290088.6904
     -5964.109       -4647.358
  25850093.144     -597531.075 5   -439394.89145  25850094.0464
       -93.219         -72.638
 97  3  3 16 40 30.0070000  0  9 29  3 14 31 16 18 19 22 27
  25119943.425    21248544.282 6  16527921.25245  25119943.8474
     -5053.828       -3938.048
  25482351.308     1299389.040 5    166470.18345  25482352.4094
     -1407.547       -1096.790
  25719087.167    27669682.765 5  21544171.84745  25719089.2534
     -6066.531       -4727.167
  25360894.104    -1183804.979 5   -887791.78145  25360895.1364
       262.766         204.752
  23946638.425    16372851.626 7  12764136.72842  23946632.5304
     -5001.891       -3897.577
  22416509.722     -761554.225 8   -576140.35644  22416503.6404
     -1490.844       -1161.696
  23265770.479       23977.847 7   1951830.44442  23265764.2454
     -1345.828       -1048.697
  26324153.612    26790306.688 5  20875560.12944  26324155.3944
     -5970.391       -4652.252
  25850639.597     -594659.349 5   -437157.15645  25850641.2494
       -98.250         -76.558
 97  3  3 16 41  0.0070000  0  9 29  3 14 31 16 18 19 22 27
  25148825.651    21400323.232 6  16646190.51445  25148826.6944
     -5064.875       -3946.656
  25490435.550     1341873.136 5    199574.69845  25490436.9564
     -1424.766       -1110.207
  25753734.839    27851754.598 5  21686045.94745  25753736.9364
     -6071.703       -4731.197
  25359418.886    -1191557.184 5   -893832.43245  25359419.8474
       253.859         197.812
  23975235.448    16523128.727 7  12881235.73642  23975229.4724
     -5016.500       -3908.961
  22425064.065     -716601.719 8   -541112.43644  22425058.5584
     -1506.156       -1173.628
  23273481.987       64502.443 7   1983408.06343  23273476.3274
     -1355.969       -1056.599
  26358253.417    26969503.330 5  21015193.84344  26358254.7764
     -5975.969       -4656.599
  25851215.300     -591634.304 5   -434799.98245  25851216.3904
      -103.625         -80.747
 97  3  3 16 41 30.0070000  0  9 29  3 14 31 16 18 19 22 27
  25177771.417    21552434.235 6  16764718.53745  25177772.4724
     -5075.734       -3955.118
  25498618.933     1384877.364 5    233084.49645  25498620.3044
     -1441.938       -1123.588
  25788412.175    28033985.463 5  21828043.96945  25788414.3434
     -6076.781       -4735.154
  25357996.847    -1199030.540 5   -899655.80245  25357997.0584
       244.406         190.446
  24003915.222    16673842.041 7  12998674.62242  24003909.7844
     -5030.797       -3920.101
  22433709.175     -671171.001 8   -505711.87544  22433703.2104
     -1522.422       -1186.303
  23281251.839      105334.486 7   2015225.24043  23281246.1324
     -1365.797       -1064.257
  26392383.675    27148859.855 5  21154952.12444  26392385.6904
     -5980.906       -4660.446
  25851822.948     -588441.627 5   -432312.15945  25851823.5584
      -109.047         -84.972
 97  3  3 16 42  0.0070000  0  9 29  3 14 31 16 18 19 22 27
  25206780.737    21704880.207 6  16883507.55645  25206781.3944
     -5087.250       -3964.091
  25506900.112     1428395.185 5    266994.49145  25506900.9794
     -1459.266       -1137.090
  25823117.401    28216364.006 5  21970157.06745  25823118.5504
     -6081.641       -4738.941
  25356630.597    -1206211.221 5   -905251.08845  25356631.5464
       234.547         182.764
  24032676.448    16824982.460 7  13116446.34642  24032670.7414
     -5045.094       -3931.242
  22442447.839     -625248.757 8   -469928.31344  22442442.3544
     -1538.922       -1199.160
  23289076.394      146451.666 7   2047264.60843  23289070.3234
     -1375.188       -1071.575
  26426542.690    27328365.057 5  21294826.25944  26426544.1674
     -5985.891       -4664.330
  25852461.347     -585086.801 5   -429697.97945  25852462.4724
      -114.531         -89.245
 97  3  3 16 42 30.0070000  0  9 29  3 14 31 16 18 19 22 27
  25235855.995    21857669.240 6  17002563.91145  25235856.2654
     -5098.609       -3972.942
  25515281.019     1472436.574 6    301312.46145  25515282.3434
     -1476.891       -1150.824
  25857850.612    28398886.234 5  22112382.12645  25857852.5694
     -6086.391       -4742.642
  25355318.526    -1213102.236 5   -910620.68045  25355319.7104
       224.734         175.118
  24061519.534    16976555.261 7  13234554.98242  24061513.4994
     -5059.828       -3942.723
  22451279.706     -578837.294 8   -433763.53343  22451273.4834
     -1555.047       -1211.725
  23296951.644      187836.878 7   2079512.82343  23296945.8664
     -1383.719       -1078.222
  26460729.245    27508016.019 5  21434813.98543  26460729.3974
     -5990.844       -4668.190
  25853131.003     -581567.486 5   -426955.64545  25853132.6674
      -119.969         -93.482
 97  3  3 16 43  0.0070000  0  9 29  3 14 31 16 18 19 22 27
  25264994.886    22010796.092 6  17121883.49345  25264995.6244
     -5109.984       -3981.806
  25523763.808     1517012.920 6    336047.28645  25523764.6754
     -1495.125       -1165.032
  25892610.581    28581549.867 5  22254717.34745  25892612.7494
     -6091.375       -4746.526
  25354065.003    -1219691.659 5   -915755.25245  25354066.4444
       214.344         167.021
  24090447.417    17128571.980 7  13353009.54442  24090441.4174
     -5074.688       -3954.302
  22460203.870     -531941.198 8   -397221.13343  22460197.9994
     -1571.578       -1224.606
  23304873.409      229465.723 7   2111950.90743  23304867.9604
     -1391.547       -1084.322
  26494942.792    27687813.114 5  21574915.55944  26494944.5854
     -5995.781       -4672.037
  25853829.862     -577895.524 5   -424094.33845  25853830.6714
      -124.922         -97.342
 97  3  3 16 43 30.0070000  0  9 29  3 14 31 16 18 19 22 27
  25294198.144    22164258.706 6  17241464.71545  25294198.6124
     -5120.875       -3990.292
  25532351.909     1562143.910 6    371214.30345  25532352.5194
     -1513.578       -1179.412
  25927399.144    28764370.050 5  22397174.57745  25927401.3004
     -6096.562       -4750.568
  25352871.479    -1225965.168 5   -920643.66045  25352872.5694
       203.875         158.864
  24119460.550    17281037.002 7  13471813.40042  24119454.6554
     -5089.672       -3965.978
  22469222.683     -484547.158 8   -360290.70444  22469217.2334
     -1588.000       -1237.403
  23312837.409      271317.716 7   2144562.85043  23312831.6204
     -1398.531       -1089.765
  26529186.628    27867762.333 5  21715135.70943  26529187.2614
     -6000.953       -4676.067
  25854555.479     -574082.357 5   -421123.01745  25854557.4834
      -129.422        -100.848
 97  3  3 16 44  0.0070000  0  9 29  3 14 31 16 18 19 22 27
  25323463.870    22318051.639 6  17361303.31745  25323463.9404
     -5131.578       -3998.632
  25541045.198     1607826.986 6    406811.50545  25541046.5344
     -1531.750       -1193.571
  25962219.433    28947348.063 5  22539754.79045  25962221.2144
     -6101.750       -4754.610
  25351738.331    -1231915.524 5   -925280.24245  25351738.9764
       193.234         150.572
  24148560.901    17433959.218 7  13590973.51142  24148554.9364
     -5104.859       -3977.812
  22478335.261     -436660.162 8   -322976.16643  22478329.0034
     -1604.312       -1250.114
  23320842.636      313383.779 7   2177341.61143  23320837.3624
     -1405.766       -1095.402
  26563461.198    28047877.294 4  21855484.98043  26563462.8394
     -6006.359       -4680.280
  25855308.425     -570123.544 5   -418038.23945  25855309.5034
      -134.250        -104.610
 97  3  3 16 44 30.0070000  0  9 29  3 14 31 16 18 19 22 27
  25352789.089    22472157.303 6  17481385.60945  25352789.3944
     -5142.094       -4006.826
  25549842.612     1654058.856 6    442836.33945  25549843.7494
     -1550.297       -1208.024
  25997068.831    29130482.459 5  22682456.84645  25997070.9404
     -6107.047       -4758.738
  25350667.534    -1237546.219 5   -929667.77345  25350668.5424
       182.109         141.903
  24177747.620    17587335.922 7  13710487.80842  24177741.4214
     -5120.094       -3989.683
  22487542.558     -388275.058 8   -285273.50744  22487536.9444
     -1621.234       -1263.300
  23328890.776      355677.957 7   2210298.11843  23328884.9994
     -1413.812       -1101.672
  26597767.698    28228159.151 5  21995964.27843  26597768.9874
     -6012.406       -4684.992
  25856088.987     -566021.433 5   -414841.77045  25856090.6864
      -139.125        -108.409
 97  3  3 16 45  0.0070000  0  9 29  3 14 31 16 18 19 22 27
  25382174.058    22626576.683 6  17601712.35045  25382173.8944
     -5152.781       -4015.154
  25558743.347     1700833.456 6    479284.08845  25558744.2264
     -1567.922       -1221.757
  26031946.878    29313765.256 5  22825274.54844  26031948.7294
     -6111.969       -4762.573
  25349657.651    -1242850.334 5   -933800.81045  25349658.9524
       171.469         133.612
  24207017.026    17741147.722 7  13830341.12742  24207011.8474
     -5134.016       -4000.532
  22496845.167     -339389.210 8   -247180.62243  22496839.4014
     -1637.906       -1276.291
  23336985.425      398216.022 7   2243444.65543  23336979.2494
     -1422.266       -1108.259
  26632107.292    28408615.223 4  22136579.34243  26632108.8044
     -6018.250       -4689.545
  25856896.440     -561780.394 5   -411537.04145  25856899.0894
      -143.797        -112.050
 97  3  3 16 45 30.0070000  0  9 29  3 14 31 16 18 19 22 27
  25411621.620    22781322.781 6  17722293.69045  25411622.0074
     -5163.688       -4023.653
  25567743.058     1748124.627 6    516134.33945  25567744.5584
     -1584.797       -1234.907
  26066851.714    29497193.291 5  22968205.40844  26066853.5894
     -6116.500       -4766.104
  25348708.706    -1247837.566 5   -937686.91745  25348709.7264
       161.016         125.467
  24236364.581    17895369.311 7  13950513.75342  24236358.5344
     -5147.391       -4010.954
  22506240.581     -290016.853 8   -208708.66544  22506234.8624
     -1653.594       -1288.515
  23345129.972      441015.882 7   2276795.20243  23345124.0654
     -1431.156       -1115.187
  26666481.425    28589254.442 5  22277337.14543  26666482.4444
     -6024.453       -4694.379
  25857730.269     -557394.523 5   -408119.47045  25857731.7574
      -148.656        -115.836
 97  3  3 16 46  0.0070000  0  9 29  3 14 31 16 18 19 22 27
  25441132.886    22936407.016 6  17843138.49945  25441133.7294
     -5175.078       -4032.528
  25576839.104     1795926.260 6    553382.38145  25576840.3824
     -1602.125       -1248.409
  26101781.198    29680750.344 5  23111236.80544  26101783.1794
     -6120.609       -4769.306
  25347819.144    -1252511.740 6   -941329.09645  25347819.8704
       150.844         117.541
  24265787.839    18049990.449 7  14070997.70342  24265782.6124
     -5160.469       -4021.144
  22515724.354     -240180.023 8   -169874.78844  22515718.7764
     -1668.703       -1300.288
  23353327.019      484091.894 7   2310360.94143  23353321.6754
     -1440.484       -1122.455
  26700891.565    28770077.210 5  22418237.96243  26700895.5734
     -6030.234       -4698.884
  25858592.784     -552866.114 5   -404590.78345  25858595.6204
      -153.094        -119.294
 97  3  3 16 46 30.0070000  0  9 29  3 14 31 16 18 19 22 27
  25470710.565    23091836.885 6  17964252.64145  25470711.7144
     -5186.891       -4041.733
  25586037.308     1844265.437 6    591049.28945  25586038.6444
     -1620.344       -1262.606
  26136734.651    29864430.931 5  23254364.46944  26136737.6514
     -6124.547       -4772.374
  25346987.292    -1256883.935 6   -944735.96145  25346988.3004
       140.703         109.639
  24295284.534    18204996.859 7  14191781.89842  24295278.5114
     -5173.062       -4030.958
  22525293.675     -189892.331 8   -130689.55043  22525287.5224
     -1683.594       -1311.891
  23361577.511      527448.148 7   2344145.05043  23361571.7454
     -1449.609       -1129.566
  26735334.089    28951072.155 5  22559272.95243  26735336.1514
     -6035.875       -4703.279
  25859480.237     -548200.645 5   -400955.34245  25859483.7184
      -157.812        -122.971
 97  3  3 16 47  0.0070000  0  9 29  3 14 31 16 18 19 22 27
  25500355.800    23247625.383 6  18085646.22345  25500356.2334
     -5198.922       -4051.108
  25595340.534     1893151.596 6    629142.38145  25595341.4364
     -1638.547       -1276.790
  26171709.940    30048227.080 5  23397582.19944  26171711.7804
     -6128.406       -4775.381
  25346213.847    -1260949.768 6   -947904.11445  25346214.7494
       130.469         101.664
  24324853.339    18360381.021 7  14312860.43542  24324847.5154
     -5185.891       -4040.954
  22534947.909     -139158.353 8    -91156.58343  22534941.7224
     -1698.766       -1323.713
  23369879.019      571071.673 7   2378137.39543  23369873.6754
     -1458.438       -1136.445
  26769807.347    29132231.093 5  22700435.71043  26769809.4214
     -6041.297       -4707.504
  25860396.065     -543388.542 5   -397205.65545  25860398.0694
      -162.828        -126.879
 97  3  3 16 47 30.0070000  0  9 29  3 14 31 16 18 19 22 27
  25530068.378    23403765.441 6  18207313.74645  25530068.5544
     -5210.297       -4059.972
  25604747.128     1942582.900 6    667660.26445  25604746.9874
     -1656.984       -1291.157
  26206705.104    30232126.112 5  23540880.05844  26206708.5504
     -6131.406       -4777.719
  25345498.644    -1264707.734 6   -950832.37045  25345498.7494
       119.906          93.433
  24354495.050    18516150.399 7  14434239.14142  24354489.8114
     -5198.719       -4050.950
  22544689.058      -87968.744 8    -51268.58143  22544682.9524
     -1714.078       -1335.645
  23378227.769      614945.188 7   2412324.55043  23378221.9334
     -1466.359       -1142.618
  26804309.823    29313543.949 5  22841718.41343  26804312.2724
     -6046.031       -4711.193
  25861338.081     -538437.389 5   -393347.57645  25861339.4994
      -167.344        -130.398
 97  3  3 16 48  0.0070000  0  9 29  3 14 31 16 18 19 22 27
  25559844.769    23560241.068 6  18329242.76845  25559845.5074
     -5221.375       -4068.604
  25614261.034     1992578.520 5    706617.89045  25614261.4334
     -1676.109       -1306.059
  26241716.901    30416117.163 5  23684249.65344  26241719.9014
     -6134.828       -4780.386
  25344845.565    -1268137.579 6   -953504.94245  25344845.9054
       108.719          84.716
  24384210.776    18672307.881 6  14555920.24642  24384205.3864
     -5211.812       -4061.153
  22554522.097      -36295.821 8    -11003.96943  22554516.1674
     -1730.938       -1348.782
  23386621.472      659055.669 7   2446696.36743  23386615.9524
     -1474.422       -1148.900
  26838838.714    29494993.048 5  22983107.26243  26838838.9724
     -6050.516       -4714.688
  25862306.925     -533346.326 5   -389380.49145  25862309.3394
      -172.172        -134.160
 97  3  3 16 48 30.0080000  0  9 29  3 14 31 16 18 19 22 27
  25589683.258    23717042.777 5  18451425.86745  25589684.3484
     -5231.797       -4076.725
  25623881.227     2043136.399 5    746013.64945  25623882.7624
     -1694.234       -1320.183
  26276748.812    30600210.452 5  23827698.90244  26276751.7074
     -6137.703       -4782.626
  25344256.453    -1271234.719 6   -955918.26645  25344256.9694
        97.594          76.047
  24414000.328    18828853.260 6  14677903.62242  24413994.4454
     -5224.375       -4070.942
  22564453.305       15894.067 8     29663.46044  22564447.7034
     -1748.594       -1362.541
  23395060.539      703400.937 7   2481251.13043  23395054.8794
     -1481.906       -1154.732
  26873391.953    29676573.864 4  23124598.81943  26873394.2854
     -6054.547       -4717.829
  25863302.680     -528113.926 5   -385303.28945  25863304.9884
      -176.641        -137.642
 97  3  3 16 49  0.0080000  0  9 29  3 14 31 16 18 19 22 27
  25619579.687    23874149.959 5  18573846.99045  25619580.3094
     -5241.984       -4084.663
  25633604.250     2094228.536 6    785825.72145  25633606.0084
     -1711.859       -1333.916
  26311797.039    30784385.966 5  23971212.21144  26311799.5594
     -6140.719       -4784.976
  25343731.219    -1273994.713 6   -958068.89445  25343731.9104
        86.344          67.281
  24443863.305    18985782.678 6  14800186.25442  24443857.1174
     -5237.672       -4081.303
  22574486.680       68618.712 8     70747.60244  22574481.1724
     -1766.406       -1376.420
  23403542.398      747974.368 7   2515983.66943  23403536.4924
     -1489.672       -1160.783
  26907967.258    29858271.361 3  23266181.22242  26907970.3514
     -6058.641       -4721.019
  25864323.320     -522751.601 5   -381124.84345  25864324.4224
      -180.688        -140.795
 97  3  3 16 49 30.0080000  0  9 29  3 14 31 16 18 19 22 27
  25649533.500    24031559.475 5  18696503.73845  25649534.1334
     -5251.781       -4092.297
  25643428.516     2145854.795 6    826053.97845  25643429.6994
     -1729.906       -1347.979
  26346862.891    30968659.861 5  24114802.21343  26346865.7624
     -6144.219       -4787.703
  25343272.266    -1276406.382 6   -959948.09145  25343273.0164
        74.406          57.979
  24473801.937    19143110.689 6  14922779.46342  24473796.0784
     -5250.750       -4091.494
  22584620.945      121874.380 8    112245.52243  22584615.2734
     -1783.844       -1390.008
  23412069.758      792785.832 7   2550901.70243  23412063.7814
     -1497.797       -1167.114
  26942565.922    30040088.775 3  23407857.07542  26942569.4494
     -6062.406       -4723.953
  25865366.109     -517271.965 5   -376854.96045  25865368.5124
      -184.812        -144.010
 97  3  3 16 50  0.0080000  0  9 29  3 14 31 16 18 19 22 27
  25679541.789    24189253.201 5
     -5261.141
  25653354.922     2198019.770 5    866702.01345  25653356.2114
     -1747.578       -1361.749
  26381949.375    31153041.961 4  24258476.48843  26381951.2384
     -6147.891       -4790.564
  25342879.805    -1278468.079 6   -961554.58245  25342881.2814
        63.297          49.322
  24503814.117    19300826.106 6  15045674.54042  24503808.4574
     -5263.484       -4101.416
  22594854.789      175653.210 8    154151.09443  22594849.0594
     -1801.219       -1403.547
  23420644.984      837847.749 7   2586014.88543  23420639.3594
     -1506.344       -1173.774
  26977186.734    30222017.993 3  23549620.08742  26977190.5194
     -6066.156       -4726.875
  25866432.672     -511665.200 5   -372486.05345  25866434.1014
      -188.797        -147.114
 97  3  3 16 50 30.0080000  0  9 29  3 14 31 16 18 19 22 27
  25709604.203    24347230.467 5     45158.00855  25709604.8594
     -5270.781       -4107.102
  25663381.258     2250707.943 6    907757.74845  25663382.2194
     -1765.109       -1375.410
  26417055.523    31337525.153 4  24402229.53143  26417059.1444
     -6151.062       -4793.036
  25342549.656    -1280204.879 6   -962907.90445  25342550.4304
        52.328          40.775
  24533897.930    19458918.158 6  15168863.11342  24533892.3284
     -5276.234       -4111.351
  22605184.578      229937.780 8    196450.75643  22605178.8124
     -1817.797       -1416.465
  23429268.352      883165.478 7   2621327.41243  23429262.7734
     -1514.953       -1180.483
  27011826.562    30404055.929 2  23691467.79941  27011827.9574
     -6069.938       -4729.821
  25867522.164     -505939.726 5   -368024.63045  25867523.8054
      -192.984        -150.377
 97  3  3 16 51  0.0080000  0  9 29  3 14 31 16 18 19 22 27
  25739722.508    24505501.069 5    168485.68045  25739722.7664
     -5280.625       -4114.773
  25673509.445     2303931.334 6    949230.52945  25673510.8984
     -1783.188       -1389.497
  26452180.992    31522108.978 4  24546061.01444  26452183.5594
     -6154.578       -4795.775
  25342283.016    -1281605.003 6   -963998.88145  25342284.7974
        40.875          31.851
  24564056.687    19617401.411 6  15292356.52042  24564051.3324
     -5289.281       -4121.518
  22615607.594      284710.968 8    239131.15744  22615601.9454
     -1833.688       -1428.847
  23437942.430      928747.584 7   2656845.92643  23437937.1444
     -1523.844       -1187.411
  27046490.469    30586215.889 2  23833410.49842  27046493.6804
     -6074.000       -4732.987
  25868637.133     -500084.295 6   -363461.94245  25868638.1524
      -197.359        -153.787
 97  3  3 16 51 30.0080000  0  9 29  3 14 31 16 18 19 22 27
  25769896.031    24664067.736 5    292044.06945  25769896.9224
     -5290.391       -4122.382
  25683741.469     2357703.227 6    991130.70445  25683742.0554
     -1801.672       -1403.900
  26487325.195    31706793.854 4  24689971.23543  26487328.6764
     -6157.609       -4798.137
  25342081.820    -1282663.074 6   -964823.34745  25342083.0164
        29.812          23.231
  24594286.422    19776260.505 6  15416142.77342  24594280.5394
     -5301.297       -4130.881
  22626121.844      339963.402 8    282185.00743  22626115.6914
     -1849.844       -1441.437
  23446666.625      974592.577 7   2692569.31943  23446661.3054
     -1532.516       -1194.168
  27081173.203    30768490.770 1
     -6077.656
  25869776.562     -494093.723 5   -358793.95245  25869777.6644
      -202.219        -157.573
 97  3  3 16 52  0.0080000  0  8 29  3 14 31 16 18 19 27
  25800127.180    24822930.466 5    415833.15145  25800128.1294
     -5300.750       -4130.455
  25694079.461     2412028.709 6   1033462.25445  25694080.4574
     -1820.203       -1418.340
  26522485.328    31891561.186 4  24833945.70744  26522488.5624
     -6160.375       -4800.292
  25341941.719    -1283397.315 6   -965395.45145  25341943.2194
        18.953          14.769
  24624585.461    19935482.920 6  15540212.12842  24624579.4734
     -5313.594       -4140.463
  22636730.187      395710.374 8    325624.18943  22636723.7074
     -1866.766       -1454.623
  23455440.195     1020698.384 7   2728495.91743  23455433.8554
     -1541.344       -1201.047
  25870944.758     -487954.769 5   -354010.35445  25870945.8714
      -207.078        -161.360
 97  3  3 16 52 30.0080000  0  8 29  3 14 31 16 18 19 27
  25830418.039    24982109.740 5    539868.89645  25830419.4104
     -5311.234       -4138.624
  25704525.133     2466919.091 6   1076233.99545  25704527.1484
     -1839.375       -1433.279
  26557660.570    32076408.949 4  24977982.84243  26557663.8754
     -6162.781       -4802.167
  25341865.570    -1283799.889 6   -965709.12145  25341866.8014
         7.688           5.990
  24654953.570    20095069.557 6  15664565.33042  24654948.3794
     -5325.641       -4149.850
  22647434.102      451960.582 8    369455.51043  22647427.9144
     -1883.328       -1467.528
  23464263.984     1067068.076 7   2764628.14543  23464257.9024
     -1549.969       -1207.768
  25872140.617     -481670.829 6   -349113.77645  25872140.3594
      -211.844        -165.073
 97  3  3 16 53  0.0080000  0  8 29  3 14 31 16 18 19 27
  25860768.383    25141601.388 6    664148.05745  25860769.3204
     -5321.547       -4146.660
  25715079.695     2522385.363 5   1119454.48145  25715082.3674
     -1858.391       -1448.097
  26592849.133    32261327.072 4  25122074.83343  26592850.1294
     -6165.094       -4803.969
  25341853.648    -1283862.261 6   -965757.69745  25341854.8444
        -3.625          -2.825
  24685389.648    20255010.634 6  15789194.69442  24685383.5664
     -5337.078       -4158.762
  22658233.555      508711.888 8    413677.31743  22658227.8484
     -1900.141       -1480.629
  23473135.977     1113690.383 7   2800957.21843  23473130.5164
     -1558.141       -1214.136
  25873362.883     -475249.739 6   -344110.30945  25873363.8674
      -216.250        -168.506
 97  3  3 16 53 30.0080000  0  8 29  3 14 31 16 18 19 27
  25891176.461    25301395.018 6    788662.51145  25891177.1994
     -5331.406       -4154.343
  25725741.773     2578417.227 6   1163115.68345  25725744.4344
     -1877.031       -1462.622
  26628049.375    32446303.734 5  25266212.38943  26628051.0984
     -6166.734       -4805.248
  25341904.867    -1283590.660 6   -965546.03345  25341906.0044
       -14.609         -11.384
  24715889.516    20415288.525 6  15914086.52242  24715883.7624
     -5348.219       -4167.443
  22669129.664      565971.697 8    458295.34144  22669124.0744
     -1917.250       -1493.961
  23482053.227     1160551.671 7   2837472.50543  23482046.5354
     -1565.984       -1220.248
  25874609.531     -468696.143 6   -339003.59545  25874610.8324
      -220.781        -172.037
 97  3  3 16 54  0.0080000  0  8 29  3 14 31 16 18 19 27
  25921641.047    25461488.945 6    913410.97745  25921641.2344
     -5341.266       -4162.025
  25736509.875     2635002.007 5   1207207.74845  25736511.9494
     -1894.984       -1476.611
  26663260.344    32631335.587 5  25410393.01643  26663262.6054
     -6168.469       -4806.599
  25342022.133    -1282974.198 6   -965065.64445  25342023.1054
       -26.406         -20.576
  24746454.703    20575909.123 6  16039245.37642  24746449.3244
     -5359.484       -4176.222
  22680123.305      623743.686 8    503312.46043  22680117.2114
     -1933.906       -1506.940
  23491015.703     1207649.034 7   2874171.75243  23491009.6334
     -1573.562       -1226.153
  25875881.820     -462010.353 5   -333793.86245  25875882.9224
      -224.547        -174.972
 97  3  3 16 54 30.0080000  0  8 29  3 14 31 16 18 19 27
  25952162.773    25621882.739 5   1038393.08745  25952163.7934
     -5351.469       -4169.976
  25747379.859     2692125.809 6   1251719.80945  25747380.6684
     -1913.000       -1490.649
  26698480.211    32816419.706 5  25554614.34844  26698481.3944
     -6170.266       -4807.999
  25342209.086    -1281992.649 6   -964300.76945  25342209.9064
       -38.922         -30.329
  24777085.031    20736871.880 6  16164670.85342  24777079.5594
     -5371.375       -4185.487
  22691211.453      682011.637 8    548716.06743  22691205.5824
     -1950.516       -1519.882
  23500021.141     1254973.149 7   2911047.70643  23500014.7544
     -1581.141       -1232.058
  25877176.172     -455208.918 6   -328494.02845  25877177.2624
      -228.703        -178.210
 97  3  3 16 55  0.0080000  0  8 29  3 14 31 16 18 19 27
  25982741.266    25782573.465 5   1163606.59345  25982741.6294
     -5361.266       -4177.610
  25758349.703     2749771.816 5   1296638.76945  25758350.7464
     -1930.109       -1503.981
  26733709.898    33001552.638 4  25698873.66844  26733713.0044
     -6172.078       -4809.412
  25342468.375    -1280630.518 6   -963239.34145  25342469.3014
       -51.984         -40.507
  24807784.305    20898197.846 6  16290379.36142  24807779.2894
     -5383.844       -4195.203
  22702394.906      740780.726 8    594510.16843  22702388.6484
     -1967.484       -1533.105
  23509068.148     1302515.499 7   2948093.69343  23509062.3244
     -1588.516       -1237.804
  25878493.742     -448284.361 6   -323098.25145  25878495.3834
      -233.016        -181.571
 97  3  3 16 55 30.0080000  0  8 29  3 14 31 16 18 19 27
  26013374.812    25943554.953 5   1289046.63545  26013376.1014
     -5370.719       -4184.976
  25769417.937     2807935.870 5   1341961.43645  25769419.3094
     -1947.328       -1517.399
  26768950.727    33186741.084 5  25843176.25944  26768953.2114
     -6173.641       -4810.629
  25342801.750    -1278877.462 6   -961873.29345  25342802.1484
       -64.766         -50.467
  24838555.203    21059900.191 6  16416381.12442  24838548.6994
     -5396.078       -4204.736
  22713675.070      800058.496 8    640700.63143  22713669.3754
     -1984.250       -1546.169
  23518158.633     1350286.099 7   2985317.55043  23518152.3634
     -1595.984       -1243.624
  25879835.976     -441232.166 6   -317603.00845  25879838.0164
      -237.016        -184.688
 97  3  3 16 56  0.0080000  0  8 29  3 14 31 16 18 19 27
  26044062.469    26104819.105 5   1414706.96745  26044063.2074
     -5380.031       -4192.232
  25780584.250     2866616.240 6   1387686.41845  25780585.7854
     -1964.703       -1530.938
  26804200.086    33371976.797 5  25987515.70144  26804202.0194
     -6175.250       -4811.883
  25343209.930    -1276733.895 6   -960202.96345  25343211.2074
       -77.938         -60.731
  24869394.797    21221964.472 6  16542664.95942  24869388.8324
     -5407.984       -4214.014
  22725051.125      859839.930 8    687283.55943  22725045.4414
     -2001.047       -1559.257
  23527291.578     1398280.170 7   3022715.53743  23527285.3674
     -1603.547       -1249.517
  25881200.344     -434062.031 6   -312015.87445  25881200.8714
      -240.906        -187.719
 97  3  3 16 56 30.0080000  0  8 29  3 14 31 16 18 19 27
  26074802.906    26266360.655 5   1540583.43245  26074804.2194
     -5389.656       -4199.732
  25791851.914     2925827.538 6   1433825.10645  25791853.5434
     -1983.062       -1545.244
  26839457.750    33557258.070 5  26131890.62144  26839461.2074
     -6177.109       -4813.332
  25343690.648    -1274207.925 6   -958234.64845  25343691.9614
       -90.531         -70.544
  24900301.406    21384378.954 6  16669221.62941  24900295.1484
     -5419.812       -4223.231
  22736522.844      920125.056 8    734258.97944  22736517.3944
     -2018.203       -1572.626
  23536468.023     1446503.418 7   3060292.10443  23536461.8944
     -1611.531       -1255.739
  25882587.398     -426772.210 6   -306335.46545  25882588.0314
      -245.297        -191.140
 97  3  3 16 57  0.0080000  0  8 29  3 14 31 16 18 19 27
  26105598.008    26428187.287 5   1666682.04045  26105599.1214
     -5399.125       -4207.110
  25803226.531     2985599.652 6   1480400.79445  25803227.4104
     -2002.266       -1560.207
  26874727.000    33742600.491 5  26276313.24043  26874728.4414
     -6179.234       -4814.988
  25344242.055    -1271310.105 6   -955976.56945  25344243.3204
      -102.734         -80.053
  24931274.976    21547144.328 6  16796051.76142  24931268.8014
     -5431.312       -4232.192
  22748092.344      980922.595 8    781633.69343  22748086.1444
     -2035.125       -1585.812
  23545691.008     1494970.599 7   3098058.74543  23545685.3484
     -1619.953       -1262.301
  25883999.023     -419352.240 6   -300553.64645  25883999.7734
      -249.625        -194.513
 97  3  3 16 57 30.0080000  0  8 29  3 14 31 16 18 19 27
  26136448.789    26590309.967 5   1793011.32945  26136450.0904
     -5409.234       -4214.988
  25814714.516     3045971.822 6   1527444.05745  25814716.4264
     -2022.531       -1575.998
  26910009.961    33928013.003 5  26420790.42244  26910013.0434
     -6181.594       -4816.826
  25344860.875    -1268056.449 6   -953441.23145  25344861.6484
      -114.203         -88.989
  24962311.726    21710244.595 6  16923142.80342  24962305.0944
     -5442.047       -4240.556
  22759758.453     1042228.580 8    829404.57143  22759752.7464
     -2051.953       -1598.925
  23554962.836     1543694.238 7   3136025.22143  23554956.7664
     -1628.172       -1268.705
  25885436.836     -411797.812 6   -294667.04545  25885438.3594
      -254.234        -198.105
 97  3  3 16 58  0.0080000  0  8 29  3 14 31 16 18 19 27
  26167358.055    26752739.706 5   1919579.88345  26167359.8014
     -5419.641       -4223.097
  25826317.289     3106945.189 6   1574955.78845  25826318.4374
     -2042.562       -1591.607
  26945305.219    34113491.112 5  26565318.70844  26945307.2344
     -6183.812       -4818.555
  25345544.930    -1264461.828 6   -950640.20245  25345546.0314
      -125.469         -97.768
  24993408.359    21873659.083 6  17050478.76442  24993402.0784
     -5452.531       -4248.726
  22771519.773     1104034.004 7    877564.63443  22771513.8554
     -2068.531       -1611.843
  23564280.094     1592656.051 7   3174177.27343  23564274.3404
     -1636.266       -1275.012
  25886901.187     -404103.107 6   -288671.13145  25886901.8324
      -258.797        -201.660
 97  3  3 16 58 30.0080000  0  8 29  3 14 31 16 18 19 27
  26198328.023    26915488.186 5   2046396.82145  26198329.0554
     -5430.266       -4231.376
  25838035.211     3168522.294 6   1622937.96845  25838036.5004
     -2062.562       -1607.192
  26980613.297    34299033.197 5  26709896.88644  26980616.0864
     -6185.656       -4819.992
  25346292.133    -1260534.918 6   -947580.24745  25346292.6254
      -136.422        -106.303
  25024566.797    22037397.151 6  17178066.81841  25024561.2074
     -5463.312       -4257.127
  22783374.984     1166334.382 7    926110.38943  22783369.4184
     -2084.828       -1624.541
  23573644.195     1641864.547 7   3212521.57743  23573638.2194
     -1644.141       -1281.149
  25888391.266     -396272.662 6   -282569.43145  25888392.7424
      -263.219        -205.106
 97  3  3 16 59  0.0090000  0  8 29  3 14 31 16 18 19 27
  26229359.192    27078555.077 5   2173461.84945  26229359.6854
     -5440.438       -4239.302
  25849865.919     3230692.283 6   1671382.11345  25849866.4114
     -2082.000       -1622.338
  27015931.544    34484631.157 5  26854518.58544  27015932.8454
     -6186.984       -4821.027
  25347103.755    -1256269.381 6   -944256.42345  25347105.6424
      -148.172        -115.459
  25055787.474    22201462.364 6  17305909.76942  25055781.8494
     -5473.938       -4265.406
  22795323.091     1229122.514 7    975036.20343  22795317.1964
     -2101.031       -1637.167
  23583051.364     1691300.175 7   3251042.84343  23583045.4354
     -1651.500       -1286.883
  25889906.091     -388310.845 6   -276365.38645  25889907.1814
      -267.625        -208.539
 97  3  3 16 59 30.0090000  0  8 29  3 14 31 16 18 19 27
  26260445.052    27241913.600 5   2300754.14545  26260445.8724
     -5450.188       -4246.899
  25861804.364     3293429.219 6   1720268.03845  25861804.8924
     -2100.297       -1636.595
  27051254.060    34670254.877 4  26999160.36243  27051257.3414
     -6187.938       -4821.769
  25347984.817    -1251639.977 6   -940649.07945  25347986.1304
      -160.812        -125.308
  25087064.544    22365824.474 6  17433984.07741  25087057.9114
     -5483.641       -4272.967
  22807364.638     1292400.610 7   1024343.80544  22807359.1184
     -2117.672       -1650.134
  23592499.005     1740947.206 7   3289728.84243  23592493.3804
     -1658.359       -1292.228
  25891445.708     -380220.644 6   -270061.30145  25891446.3524
      -271.766        -211.765
 97  3  3 17  0  0.0090000  0  8 29  3 14 31 16 18 19 27
  26291585.567    27405558.341 5   2428269.45645  26291586.5054
     -5459.469       -4254.131
  25873843.880     3356697.048 6   1769567.67345  25873844.6184
     -2117.734       -1650.183
  27086580.309    34855893.761 4  27143813.95542  27086581.3174
     -6188.094       -4821.891
  25348940.067    -1246619.925 6   -936737.31345  25348941.0404
      -174.062        -135.633
  25118396.606    22530475.392 6  17562283.47341  25118390.3024
     -5493.156       -4280.381
  22819501.622     1356182.073 8   1074043.64443  22819495.4584
     -2134.484       -1663.235
  23601985.552     1790800.950 7   3328575.91643  23601979.3524
     -1665.344       -1297.670
  25893005.864     -372021.077 6   -263672.00045  25893007.4814
      -274.734        -214.079
 97  3  3 17  0 30.0090000  0  8 29  3 14 31 16 18 19 27
  26322778.559    27569479.047 5   2555999.82445  26322780.0954
     -5468.422       -4261.108
  25885984.325     3420496.400 6   1819281.45645  25885985.1344
     -2135.547       -1664.062
  27121908.677    35041544.899 3  27288477.07742  27121911.6304
     -6188.672       -4822.342
  25349974.364    -1241183.499 6   -932501.11045  25349975.1384
      -188.422        -146.822
  25149783.981    22695418.577 6  17690810.60941  25149777.9934
     -5502.859       -4287.942
  22831736.560     1420476.197 8   1124142.96143  22831730.7704
     -2151.828       -1676.749
  23611513.341     1840868.822 7   3367589.84543  23611507.7044
     -1672.453       -1303.210
  25894584.841     -363723.755 6   -257206.53445  25894585.6734
      -278.453        -216.976
 97  3  3 17  1  0.0090000  0  8 29  3 14 31 16 18 19 27
  26354021.583    27733660.128 5   2683933.06345  26354022.9424
     -5477.031       -4267.817
  25898227.114     3484834.215 6   1869414.83645  25898229.3764
     -2153.594       -1678.125
  27157241.255    35227221.493 3  27433160.09443  27157243.4114
     -6189.562       -4823.036
  25351091.216    -1235315.723 6   -927928.78945  25351091.9664
      -202.750        -157.987
  25181226.145    22860647.228 6  17819560.14641  25181220.4504
     -5512.422       -4295.394
  22844071.708     1485298.442 8   1174653.79643  22844065.4974
     -2169.703       -1690.678
  23621082.231     1891155.168 7   3406774.01743  23621076.3494
     -1680.156       -1309.213
  25896184.872     -355314.997 6   -250654.20045  25896185.9854
      -282.109        -219.825
 97  3  3 17  1 30.0090000  0  8 29  3 14 31 16 18 19 27
  26385315.724    27898110.306 5   2812076.00845  26385316.4854
     -5486.234       -4274.988
  25910573.981     3549713.325 6   1919969.98545  25910574.4974
     -2171.562       -1692.127
  27192579.567    35412928.888 3  27577867.05642  27192580.9854
     -6190.828       -4824.022
  25352289.005    -1229022.922 6   -923025.28945  25352289.6024
      -216.516        -168.713
  25212723.653    23026166.028 6  17948535.79041  25212718.2744
     -5522.094       -4302.930
  22856511.114     1550666.928 8   1225590.27043  22856505.0674
     -2187.984       -1704.923
  23630698.325     1941686.816 7   3446149.33043  23630693.0634
     -1688.469       -1315.690
  25897806.591     -346793.793 6   -244014.26345  25897808.2904
      -285.891        -222.772
 97  3  3 17  2  0.0090000  0  8 29  3 14 31 16 18 19 27
  26416661.770    28062835.801 5   2940433.44945  26416662.5794
     -5495.500       -4282.208
  25923023.591     3615139.463 6   1970951.41945  25923024.0364
     -2190.375       -1706.786
  27227926.614    35598670.205 3  27722600.42842  27227928.6304
     -6192.141       -4825.045
  25353562.200    -1222329.691 6   -917809.75345  25353562.9504
      -229.766        -179.038
  25244277.770    23191985.840 6  18077745.93241  25244271.0914
     -5532.672       -4311.173
  22869052.747     1616574.331 8   1276946.69543  22869046.9704
     -2205.906       -1718.888
  23640361.317     1992465.892 7   3485717.45243  23640355.3414
     -1696.875       -1322.240
  25899450.356     -338154.767 6   -237282.53945  25899451.6104
      -290.219        -226.144
 97  3  3 17  2 30.0090000  0  8 29  3 14 31 16 18 19 27
  26448056.872    28227820.543 5   3068992.90545  26448057.4584
     -5503.672       -4288.575
  25935581.067     3681128.498 6   2022371.44145  25935581.4314
     -2208.938       -1721.250
  27263277.114    35784444.797 3  27867359.73742  27263279.5874
     -6192.922       -4825.653
  25354909.325    -1215250.682 6   -912293.61745  25354909.8764
      -242.125        -188.669
  25275891.997    23358117.110 6  18207198.87741  25275885.7864
     -5542.844       -4319.099
  22881694.325     1683006.010 7   1328711.62343  22881688.6184
     -2222.891       -1732.123
  23650070.528     2043487.727 7   3525474.71943  23650064.3064
     -1704.625       -1328.279
  25901119.200     -329386.699 6   -230450.24145  25901120.9584
      -294.359        -229.371
 97  3  3 17  3  0.0090000  0  8 29  3 14 31 16 18 19 27
  26479502.138    28393063.754 5   3197753.77145  26479503.7904
     -5512.656       -4295.576
  25948245.778     3747681.971 6   2074231.30545  25948246.4934
     -2227.891       -1736.019
  27298634.458    35970244.229 3  28012138.41942  27298638.4424
     -6193.547       -4826.140
  25356327.489    -1207797.563 6   -906485.96745  25356328.1344
      -254.812        -198.555
  25307565.442    23524562.752 6  18336896.70941  25307560.0874
     -5553.438       -4327.354
  22894433.099     1749948.668 7   1380874.73943  22894427.6614
     -2239.875       -1745.357
  23659824.036     2094742.956 7   3565413.86643  23659818.1064
     -1712.328       -1334.282
  25902809.981     -320498.351 6   -223524.23245  25902811.5404
      -298.109        -232.293
 97  3  3 17  3 30.0090000  0  8 29  3 14 31 16 18 19 27
  26510998.138    28558576.791 5   3326724.89245  26510998.7474
     -5521.484       -4302.455
  25961017.825     3814801.144 6   2126531.96645  25961019.1734
     -2246.891       -1750.824
  27333991.700    36156049.257 4  28156921.46742  27333994.8064
     -6193.531       -4826.128
  25357819.247    -1199959.652 6   -900378.48345  25357819.9034
      -267.750        -208.636
  25339297.333    23691313.814 6  18466832.56742  25339291.6384
     -5563.219       -4334.976
  22907266.419     1817389.400 7   1433425.94743  22907260.1494
     -2256.000       -1757.922
  23669619.560     2146218.853 7   3605524.95643  23669613.8294
     -1719.172       -1339.614
  25904522.614     -311500.466 6   -216512.84845  25904524.2314
      -301.734        -235.118
 97  3  3 17  4  0.0090000  0  8 29  3 14 31 16 18 19 27
  26542544.317    28724352.615 5   3455900.78845  26542544.2594
     -5530.062       -4309.140
  25973901.106     3882501.430 6   2179285.45545  25973903.2394
     -2266.328       -1765.970
  27369349.692    36341854.911 4  28301705.01143  27369352.2004
     -6193.281       -4825.933
  25359387.528    -1191717.532 6   -893956.03245  25359388.5484
      -281.672        -219.485
  25371084.802    23858360.022 6  18596998.41341  25371079.0244
     -5572.922       -4342.537
  22920191.560     1885310.243 7   1486351.27543  22920185.5244
     -2272.062       -1770.438
  23679452.622     2197891.989 7   3645789.75043  23679446.6694
     -1725.578       -1344.606
  25906255.044     -302395.654 6   -209418.15745  25906256.3214
      -305.000        -237.662
 97  3  3 17  4 30.0090000  0  8 29  3 14 31 16 18 19 27
  26574138.981    28890386.495 5   3585277.74445  26574141.4194
     -5538.844       -4315.982
  25986894.935     3950785.919 6   2232494.12545  25986895.5444
     -2285.828       -1781.165
  27404705.849    36527651.003 4  28446481.08943  27404709.6574
     -6192.906       -4825.641
  25361036.575    -1183051.456 6   -887203.22645  25361036.7044
      -295.906        -230.576
  25402926.489    24025687.622 6  18727383.46141  25402920.7594
     -5582.094       -4349.683
  22933210.239     1953724.936 7   1539661.43843  22933203.7124
     -2288.750       -1783.442
  23689322.958     2249761.619 7   3686207.63843  23689317.4154
     -1732.328       -1349.866
  25908005.575     -293196.821 6   -202250.21645  25908006.7474
      -308.188        -240.146
 97  3  3 17  5  0.0090000  0  8 29  3 14 31 16 18 19 27
  26605785.997    29056690.651 5   3714865.34845  26605787.5794
     -5548.031       -4323.141
  26000000.364     4019652.294 6
     -2305.312
  27440058.606    36713431.192 4  28591244.72943  27440061.4314
     -6192.484       -4825.312
  25362766.794    -1173960.368 6   -880119.23945  25362767.1694
      -310.188        -241.705
  25434818.895    24193282.263 6  18857976.64741  25434813.0834
     -5590.781       -4356.453
  22946324.255     2022639.977 7   1593361.47443  22946318.3024
     -2305.641       -1796.603
  23699233.434     2301841.612 7   3726789.44843  23699227.9384
     -1739.859       -1355.735
  25909775.294     -283895.232 6   -195002.19345  25909776.6304
      -312.062        -243.166
 97  3  3 17  5 30.0090000  0  8 29  3 14 31 16 18 19 27
  26637483.974    29223264.233 5   3844662.84145  26637484.9934
     -5556.750       -4329.935
  26013215.505     4089100.984 6
     -2324.547
  27475409.505    36899201.161 4  28736000.43843  27475411.3334
     -6192.156       -4825.057
  25364579.044    -1164438.432 6   -872699.54445  25364579.7824
      -324.547        -252.894
  25466760.028    24361133.698 6  18988769.96941  25466754.8954
     -5599.422       -4363.186
  22959535.966     2092067.277 7   1647460.65043  22959530.5404
     -2322.859       -1810.020
  23709189.435     2354160.850 7   3767557.69243  23709183.4114
     -1747.984       -1362.066
  25911569.302     -274468.330 6   -187656.53645  25911570.4974
      -316.359        -246.514
 97  3  3 17  6  0.0090000  0  8 29  3 14 31 16 18 19 27
  26669230.700    29390091.338 5   3974657.90145  26669232.5174
     -5565.109       -4336.449
  26026538.856     4159114.587 6
     -2342.938
  27510758.513    37084959.756 3  28880747.29142  27510761.1264
     -6191.734       -4824.728
  25366472.403    -1154487.485 6   -864945.54845  25366473.0244
      -338.844        -264.034
  25498750.005    24529243.554 6  19119764.58841  25498744.0754
     -5607.953       -4369.834
  22972846.692     2162014.663 7   1701965.10043  22972841.5244
     -2340.469       -1823.742
  23719191.333     2406721.070 7   3808513.72243  23719185.7554
     -1756.234       -1368.494
  25913385.622     -264922.540 6   -180218.22745  25913386.6304
      -320.125        -249.448
 97  3  3 17  6 30.0090000  0  8 29  3 14 31 16 18 19 27
  26701025.145    29557172.157 5   4104850.69145  26701026.3064
     -5573.719       -4343.157
  26039966.192     4229677.932 6
     -2361.344
  27546103.763    37270704.628 3  29025483.44942  27546105.5094
     -6191.422       -4824.485
  25368446.200    -1144113.327 6   -856861.77945  25368446.7274
      -352.797        -274.907
  25530788.919    24697608.337 6  19250957.88141  25530783.0834
     -5616.531       -4376.518
  22986257.653     2232489.643 7   1756880.66343  22986251.8994
     -2357.766       -1837.220
  23729243.255     2459543.532 7   3849674.08543  23729237.6654
     -1765.422       -1375.653
  25915225.645     -255254.354 6   -172684.54045  25915226.9464
      -324.531        -252.881
 97  3  3 17  7  0.0090000  0  8 29  3 14 31 16 18 19 27
  26732870.005    29724517.652 5   4235249.69945  26732871.3294
     -5582.688       -4350.146
  26053499.184     4300792.152 6
     -2379.641
  27581449.927    37456443.353 3  29170214.86242  27581454.6384
     -6191.234       -4824.338
  25370500.325    -1133318.163 6   -848449.94245  25370501.6024
      -367.125        -286.071
  25562877.349    24866235.143 6  19382355.36941  25562871.7704
     -5625.250       -4383.312
  22999765.724     2303476.338 7   1812194.96243  22999759.8064
     -2374.844       -1850.528
  23739347.169     2512640.680 7   3891048.48343  23739341.8954
     -1774.297       -1382.569
  25917090.083     -245456.792 6   -165050.03945  25917091.3724
      -328.531        -255.998
 97  3  3 17  7 30.0090000  0  8 29  3 14 31 16 18 19 27
  26764765.942    29892132.851 5   4365858.88445  26764767.4424
     -5591.609       -4357.098
  26067136.020     4372453.862 6     42846.57255  26067136.2904
     -2397.703       -1868.340
  27616792.489    37642174.299 3  29314940.16642  27616798.6064
     -6190.594       -4823.839
  25372639.786    -1122079.044 6   -839692.18146  25372640.1734
      -382.062        -297.711
  25595015.911    25035123.184 6  19513956.37941  25595009.0674
     -5633.875       -4390.032
  23013373.419     2374984.996 7   1867915.99943  23013367.1734
     -2392.375       -1864.188
  23749498.481     2565986.178 7   3932616.40943  23749492.4584
     -1781.797       -1388.413
  25918974.622     -235550.647 6   -157330.95145  25918975.5134
      -331.672        -258.446
 97  3  3 17  8  0.0090000  0  8 29  3 14 31 16 18 19 27
  26796714.755    30060022.769 5   4496682.10345  26796715.4354
     -5601.219       -4364.586
  26080876.458     4444661.513 6     99112.24445  26080878.3094
     -2416.328       -1882.853
  27652131.755    37827878.529 2  29459644.65841  27652134.5444
     -6189.766       -4823.194
  25374861.786    -1110397.814 6   -830589.91245  25374863.0754
      -396.750        -309.156
  25627202.395    25204263.711 6  19645754.12441  25627197.4154
     -5642.125       -4396.461
  23027081.403     2447020.917 8   1924047.87643  23027076.0134
     -2410.172       -1878.056
  23759691.864     2619551.892 7   3974355.92843  23759685.9934
     -1789.406       -1394.343
  25920877.278     -225553.364 6   -149540.81245  25920878.2164
      -334.984        -261.027
 97  3  3 17  8 30.0090000  0  7 29  3 31 16 18 19 27
  26828716.864    30228195.912 5   4627726.04544  26828718.8684
     -5610.438       -4371.769
  26094724.747     4517432.687 6    155817.07745  26094726.2944
     -2435.156       -1897.524
  25377166.036    -1098289.733 6   -821155.02545  25377167.2204
      -410.578        -319.931
  25659434.630    25373645.897 6  19777740.20841  25659429.1454
     -5650.234       -4402.780
  23040890.341     2519585.702 8   1980591.85543  23040884.6924
     -2427.719       -1891.729
  23769928.153     2673344.737 7   4016272.42343  23769922.3644
     -1796.828       -1400.126
  25922799.403     -215453.246 6   -141670.56145  25922800.4934
      -338.281        -263.596
 97  3  3 17  9  0.0090000  0  7 29  3 31 16 18 19 27
  26860770.106    30396638.194 5   4758979.71044  26860771.7244
     -5618.875       -4378.344
  26108679.067     4590766.055 6    212959.95945  26108680.5914
     -2453.672       -1911.952
  25379550.130    -1085761.586 6   -811392.82945  25379550.9744
      -424.547        -330.816
  25691713.591    25543272.323 6  19909916.58041  25691707.6964
     -5658.016       -4408.843
  23054800.958     2592686.705 8   2037553.67443  23054795.2274
     -2445.781       -1905.804
  23780204.950     2727349.368 7   4058353.95443  23780198.7514
     -1803.281       -1405.154
  25924737.341     -205268.220 6   -133734.15045  25924738.4544
      -340.703        -265.483
 97  3  3 17  9 30.0100000  0  7 29  3 31 16 18 19 27
  26892869.174    30565320.232 5   4890420.18744  26892869.4084
     -5626.156       -4384.018
  26122740.174     4664657.006 5    270537.33845  26122741.7324
     -2472.344       -1926.502
  25382012.697    -1072820.441 6   -801308.81845  25382013.6004
      -438.031        -341.323
  25724036.252    25713129.787 6  20042272.99041  25724030.0534
     -5665.453       -4414.639
  23068815.775     2666334.941 8   2094941.90343  23068809.6114
     -2463.891       -1919.915
  23790518.869     2781549.166 7   4100587.57643  23790513.5254
     -1810.125       -1410.487
  25926690.971     -195002.472 6   -125734.83645  25926692.7284
      -343.766        -267.869
 97  3  3 17 10  0.0100000  0  8 29  3  2 31 16 18 19 27
  26925007.408    30734208.657 5   5022021.46543  26925008.6624
     -5633.078       -4389.412
  26136907.932     4739107.578 6    328550.74745  26136908.4244
     -2491.219       -1941.209
  27776849.236      -12777.90614
       553.531
  25384550.369    -1059485.510 6   -790917.93546  25384550.8614
      -451.125        -351.526
  25756399.572    25883199.371 6  20174794.68541  25756394.4044
     -5672.625       -4420.227
  23082931.799     2740515.258 8   2152744.74143  23082925.6584
     -2481.562       -1933.685
  23800873.244     2835962.163 7   4142987.30144  23800867.7484
     -1817.453       -1416.197
  25928664.236     -184632.871 6   -117654.60945  25928665.4084
      -347.609        -270.864
 97  3  3 17 10 30.0100000  0  8 29  3  2 31 16 18 19 27
  26957182.807    30903291.653 5   5153774.39943  26957182.9004
     -5639.188       -4394.172
  26151183.080     4814125.472 6    387006.26745  26151184.1234
     -2509.938       -1955.795
  27773703.713      -29307.498 4
       548.359
  25387163.400    -1045754.362 6   -780218.32646  25387164.2914
      -464.438        -361.899
  25788805.236    26053492.375 6  20307490.53141  25788799.2954
     -5680.250       -4426.169
  23097147.775     2815220.931 8   2210956.93443  23097141.4714
     -2498.844       -1947.151
  23811267.643     2890585.088 7   4185550.61943  23811262.3574
     -1823.969       -1421.274
  25930658.424     -174154.944 6   -109489.96545  25930659.7604
      -350.875        -273.409
 97  3  3 17 11  0.0100000  0  8 29  3  2 31 16 18 19 27
  26989395.096    31072567.469 5   5285677.53043  26989396.4434
     -5645.828       -4399.347
  26165566.447     4889711.917 6    445904.78545  26165566.9394
     -2529.016       -1970.662
  27770590.580      -45666.597 4    -10612.62253  27770594.7644
       542.375         422.630
  25389855.275    -1031606.260 6   -769193.82546  25389856.0374
      -478.656        -372.979
  25821254.213    26224012.659 6  20440363.38441  25821248.5764
     -5687.469       -4431.794
  23111463.064     2890447.014 8   2269574.67243  23111456.9004
     -2516.000       -1960.519
  23821698.025     2945396.955 7   4228261.15643  23821692.3184
     -1829.953       -1425.938
  25932672.166     -163571.074 6   -101242.77345  25932673.2094
      -354.844        -276.502
 97  3  3 17 11 30.0100000  0  9 29  3  2 31 16 18 19 10 27
  27021647.939    31242055.353 4   5417745.93643  27021648.8184
     -5653.375       -4405.227
  26180060.822     4965879.367 6    505256.04445  26180062.2644
     -2548.656       -1985.966
  27767511.814      -61847.359 3    -23220.97543  27767513.1154
       536.297         417.894
  25392629.885    -1017026.966 6   -757833.33246  25392630.9394
      -493.266        -384.363
  25853744.432    26394748.876 6  20573404.56241  25853738.3734
     -5694.828       -4437.528
  23125875.799     2966187.112 8   2328592.92143  23125869.5414
     -2533.172       -1973.900
  23832163.447     3000393.092 7   4271115.29543  23832157.7524
     -1836.359       -1430.929
  27755082.228
      5524.58913      -245.875
  25934712.533     -152849.450 6    -92888.24745  25934713.9284
      -359.734        -280.312
 97  3  3 17 12  0.0100000  0  9 29  3  2 31 16 18 19 10 27
  27053944.072    31411773.886 4   5549994.09443  27053945.4904
     -5661.312       -4411.412
  26194665.025     5042623.801 6    565056.88945  26194666.3614
     -2567.797       -2000.881
  27764464.814      -77854.850 3    -35694.28242  27764465.4004
       530.797         413.608
  25395485.416    -1002019.959 6   -746139.54346  25395486.5534
      -507.281        -395.284
  25886275.564    26565701.936 6  20706614.67141  25886269.6584
     -5702.141       -4443.226
  23140383.799     3042428.232 8   2388001.58643  23140377.6464
     -2549.672       -1986.757
  23842661.619     3055561.890 7   4314103.98743  23842656.0764
     -1841.516       -1434.947
  27756524.408
     13109.682 2      -259.812
  25936776.510     -142001.354 6    -84435.16945  25936778.3144
      -363.375        -283.149
 97  3  3 17 12 30.0100000  0  9 29  3  2 31 16 18 19 10 27
  27086287.478    31581738.707 4   5682434.09643  27086290.2094
     -5669.797       -4418.024
  26209379.627     5119950.212 6    625311.24245  26209380.2954
     -2587.109       -2015.929
  27761451.572      -93689.203 3    -48032.68842  27761454.4784
       524.859         408.981
  25398422.783     -986584.822 6   -734112.14946  25398423.0414
      -521.875        -406.656
  25918850.189    26736882.938 6  20840002.43941  25918844.5414
     -5709.906       -4449.278
  23154987.275     3119169.641 8   2447800.08143  23154981.5924
     -2566.484       -1999.858
  23853190.916     3110894.307 7   4357220.14043  23853185.5144
     -1847.547       -1439.647
  27758049.627       21123.266 3      1487.57552  27758053.4594
      -274.656        -214.018
  25938860.619     -131050.476 6    -75901.99545  25938861.9554
      -366.875        -285.877
 97  3  3 17 13  0.0100000  0  9 29  3  2 31 16 18 19 10 27
  27118676.814    31751944.158 5   5815061.61944  27118678.2094
     -5677.062       -4423.685
  26224199.713     5197828.948 6    685995.96445  26224200.4984
     -2604.719       -2029.651
  27758467.971     -109366.848 2    -60248.98642  27758470.7014
       520.344         405.463
  25401441.861     -970717.696 6   -721748.13846  25401442.6584
      -535.828        -417.528
  25951464.916    26908273.052 6  20973553.07541  25951459.5024
     -5716.000       -4454.026
  23169684.064     3196401.813 8   2507980.98443  23169678.0764
     -2582.312       -2012.192
  23863754.752     3166406.888 7   4400476.69543  23863748.4474
     -1853.328       -1444.152
  27759657.635       29572.826 3      8071.68742  27759661.5604
      -288.531        -224.830
  25940963.486     -119999.811 6    -67291.07345  25940964.8934
      -369.734        -288.105
 97  3  3 17 13 30.0100000  0  9 29  3  2 31 16 18 19 10 27
  27151108.353    31922374.593 5   5947864.46544  27151110.1004
     -5684.703       -4429.639
  26239121.650     5276245.302 6    747099.62645  26239122.4824
     -2622.797       -2043.738
  27755514.018     -124893.284 3    -72347.44042  27755519.8184
       514.859         401.189
  25404543.494     -954420.885 6   -709049.30746  25404544.1274
      -550.469        -428.937
  25984116.080    27079856.406 6  21107254.34941  25984109.7874
     -5722.688       -4459.237
  23184475.205     3274128.699 8   2568547.38644  23184469.7564
     -2599.328       -2025.450
  23874355.525     3222114.767 7   4443885.45443  23874349.2094
     -1860.406       -1449.667
  27761347.314       38451.464 3     14990.05942  27761346.9044
      -303.266        -236.311
  25943083.869     -108856.976 6    -58608.31245  25943085.7214
      -372.750        -290.455
 97  3  3 17 14  0.0100000  0  9 29  3  2 31 16 18 19 10 27
  27183582.283    32093022.383 5   6080836.69945  27183584.0414
     -5691.875       -4435.227
  26254145.330     5355196.407 6    808619.95845  26254146.9354
     -2640.797       -2057.764
  27752589.299     -140260.306 3    -84321.67843  27752593.6354
       509.406         396.940
  25407727.572     -937685.902 6   -696009.03646  25407728.1354
      -565.562        -440.698
  26016804.291    27251633.082 6  21241106.28641  26016797.6704
     -5729.250       -4464.351
  23199361.353     3352356.168 8   2629503.85443  23199355.6354
     -2616.094       -2038.515
  23884996.611     3278033.821 7   4487458.73143  23884990.4944
     -1867.828       -1455.450
  27763121.307       47769.788 4     22251.08242  27763123.5334
      -318.375        -248.084
  25945219.182      -97636.964 6    -49865.43246  25945220.5644
      -375.547        -292.634
 97  3  3 17 14 30.0100000  0  9 29  3  2 31 16 18 19 10 27
  27216091.252    32263858.604 5   6213955.73745  27216092.2364
     -5697.328       -4439.476
  26269267.564     5434662.123 6    870541.29645  26269268.3504
     -2657.016       -2070.402
  27749693.830     -155475.722 3    -96177.77942  27749699.2324
       504.797         393.348
  25410998.244     -920499.345 6   -682616.90046  25410998.6894
      -580.531        -452.362
  26049524.697    27423579.069 6  21375090.10241  26049518.5924
     -5733.969       -4468.028
  23214341.744     3431077.865 8   2690845.41643  23214335.7564
     -2632.156       -2051.031
  23895679.494     3334173.661 7   4531204.04643  23895674.1394
     -1875.047       -1461.075
  27764979.096       57534.498 4     29859.98943  27764980.9824
      -332.719        -259.261
  25947368.119      -86344.181 6    -41065.83446  25947369.1154
      -377.594        -294.229
 97  3  3 17 15  0.0100000  0  9 29  3  2 31 16 18 19 10 27
  27248634.025    32434872.630 5   6347213.33545  27248634.9044
     -5703.547       -4444.322
  26284485.533     5514636.142 6    932858.70045  26284487.1154
     -2674.781       -2084.245
  27746826.947     -170542.325 3   -107917.96443  27746828.8464
       499.594         389.294
  25414357.572     -902845.222 6   -668860.40446  25414358.0534
      -596.234        -464.598
  26082274.572    27595680.184 6  21509194.81641  26082269.4514
     -5739.406       -4472.265
  23229416.916     3510298.808 8   2752576.00744  23229411.3144
     -2649.156       -2064.278
  23906405.174     3390536.094 7   4575122.81343  23906399.9944
     -1882.266       -1466.700
  27766918.791       67727.112 5     37802.22643  27766918.0884
      -346.609        -270.085
  25949531.838      -74972.867 6    -32205.05446  25949532.7054
      -380.297        -296.335
 97  3  3 17 15 30.0100000  0  9 29  3  2 31 16 18 19 10 27
  27281214.080    32606082.203 5   6480623.31145  27281216.0254
     -5710.281       -4449.570
  26299809.353     5595160.318 6    995604.81045  26299810.3034
     -2693.234       -2098.624
  27743990.471     -185444.750 3   -119530.14543  27743992.7324
       494.234         385.118
  25417806.432     -884722.451 6   -654738.73946  25417807.3224
      -611.672        -476.627
  26115057.072    27767953.450 6  21643433.64541  26115051.2834
     -5745.438       -4476.964
  23244589.752     3590032.174 8   2814705.90644  23244583.8464
     -2666.109       -2077.488
  23917171.517     3447113.728 7   4619209.30243  23917165.8224
     -1889.375       -1472.240
  27768936.697       78334.404 4     46067.66642  27768936.5684
      -360.312        -280.763
  25951710.658      -63522.363 6    -23282.55846  25951711.6434
      -382.844        -298.320
 97  3  3 17 16  0.0100000  0  9 29  3  2 31 16 18 19 10 27
  27313833.150    32777494.758 5   6614191.44545  27313836.3144
     -5717.141       -4454.915
  26315238.353     5676241.131 6   1058784.66545  26315239.9714
     -2712.219       -2113.417
  27741184.814     -200193.094 3   -131022.32343  27741189.2324
       489.125         381.136
  25421343.103     -866136.917 6   -640256.47846  25421344.0184
      -627.312        -488.815
  26147876.455    27940421.337 6  21777824.20341  26147871.2174
     -5752.422       -4482.407
  23259857.846     3670267.775 8   2877227.14043  23259851.6584
     -2682.906       -2090.576
  23927978.775     3503905.683 7   4663462.74943  23927973.3384
     -1896.688       -1477.938
  27771033.299       89349.211 4     54650.63643  27771035.6434
      -373.969        -291.404
  25953904.478      -51993.820 6    -14299.26046  25953905.0294
      -385.766        -300.597
 97  3  3 17 16 30.0100000  0  9 29  3  2 31 16 18 19 10 27
  27346490.228    32949110.516 5   6747917.92644  27346492.6194
     -5724.094       -4460.333
  26330776.166     5757893.561 6   1122409.97045  26330778.0064
     -2731.422       -2128.381
  27738406.400     -214787.334 3   -142394.46243  27738411.1354
       483.750         376.948
  25424967.994     -847088.711 6   -625413.69446  25424968.5574
      -642.578        -500.710
  26180735.463    28113096.938 6  21912376.52641  26180729.5684
     -5759.484       -4487.910
  23275222.377     3751008.268 8   2940141.80644  23275216.9164
     -2699.875       -2103.799
  23938826.557     3560910.466 7   4707882.06943  23938820.4394
     -1903.594       -1483.320
  27773205.768      100766.738 4     63547.40243  27773209.4124
      -387.172        -301.692
  25956114.307      -40380.262 6     -5249.72546  25956115.3504
      -388.594        -302.800
 97  3  3 17 17  0.0100000  0  9 29  3  2 31 16 18 19 10 27
  27379189.291    33120946.728 5   6881816.16744  27379191.4824
     -5731.891       -4466.408
  26346425.103     5840129.103 6   1186489.62945  26346425.5604
     -2751.203       -2143.795
  27735661.369     -229215.544 3   -153637.15143  27735665.2014
       477.812         372.321
  25428677.892     -827591.621 6   -610221.12846  25428678.8184
      -657.453        -512.301
  26213636.572    28285993.401 6  22047101.00541  26213631.5804
     -5767.109       -4493.851
  23290683.822     3832258.774 8   3003453.88644  23290678.5604
     -2717.094       -2117.216
  23949710.963     3618109.551 7   4752452.78143  23949704.6704
     -1909.953       -1488.275
  27775453.760      112584.337 3     72755.95543  27775455.9284
      -401.094        -312.541
  25958341.119      -28677.685 6      3869.18646  25958341.9044
      -391.922        -305.394
 97  3  3 17 17 30.0100000  0  9 29  3  2 31 16 18 19 10 27
  27411933.150    33293012.528 4   7015893.30944  27411936.7254
     -5739.125       -4472.045
  26362185.408     5922947.402 6   1251023.35345  26362185.6664
     -2769.906       -2158.369
  27732950.705     -243464.231 4   -164739.96643  27732955.2754
       472.141         367.902
  25432472.424     -807651.247 6   -594683.14246  25432472.9044
      -671.938        -523.588
  26246579.893    28459110.940 6  22181997.72441  26246574.5374
     -5773.922       -4499.160
  23306242.885     3914021.147 8   3067164.80844  23306237.3424
     -2733.688       -2130.146
  23960632.010     3675500.610 7   4797173.09943  23960625.8934
     -1916.141       -1493.097
  27777784.221      124826.676 3     82295.42842  27777785.1464
      -415.094        -323.450
  25960586.900      -16878.149 6     13063.64646  25960587.7564
      -394.719        -307.573
 97  3  3 17 18  0.0100000  0  9 29  3  2 31 16 18 19 10 27
  27444716.111    33465290.162 4   7150135.51543  27444718.6194
     -5745.953       -4477.366
  26378051.416     6006326.687 6   1315994.20445  26378051.6854
     -2788.734       -2173.040
  27730271.908     -257536.479 4   -175705.31343  27730275.2714
       466.016         363.129
  25436351.299     -787267.088 6   -578799.36746  25436351.9554
      -686.938        -535.276
  26279559.783    28632422.723 6  22317045.79941  26279554.3464
     -5779.812       -4503.750
  23321897.643     3996287.906 8   3131268.76043  23321891.5144
     -2750.719       -2143.417
  23971589.135     3733081.563 7   4842041.37343  23971582.6664
     -1922.469       -1498.028
  27780195.041      137496.917 3     92168.37742  27780197.2684
      -429.562        -334.724
  25962849.299       -4988.782 6     22328.11046  25962850.0024
      -397.891        -310.045
 97  3  3 17 18 30.0100000  0  9 29  3  2 31 16 18 19 10 27
  27477538.549    33637772.202 4   7284537.02043  27477541.2684
     -5752.922       -4482.796
  26394024.346     6090266.620 6   1381401.94045  26394025.8694
     -2807.141       -2187.382
  27727630.244     -271418.745 4   -186522.63943  27727633.4204
       459.422         357.991
  25440314.775     -766437.217 6   -562568.27246  25440315.3734
      -701.719        -546.794
  26312570.541    28805894.583 6  22452218.62041  26312564.5064
     -5784.984       -4507.780
  23337650.767     4079071.078 8   3195775.12443  23337644.3104
     -2768.281       -2157.102
  23982582.049     3790849.064 7   4887055.01343  23982576.0724
     -1928.672       -1502.861
  27782688.916      150604.691 3    102382.22542  27782691.2714
      -444.312        -346.218
  25965128.916        6991.026 6     31663.03546  25965129.7014
      -400.688        -312.224
 97  3  3 17 19  0.0100000  0  9 29  3  2 31 16 18 19 10 27
  27510399.353    33810455.153 4   7419095.02043  27510401.3694
     -5759.438       -4487.873
  26410102.478     6174755.910 5   1447237.77345  26410105.4324
     -2825.750       -2201.883
  27725025.283     -285109.582 4   -197190.79543  27725028.0964
       453.219         353.157
  25444362.939     -745165.730 6   -545993.07346  25444363.7254
      -716.625        -558.409
  26345609.986    28979517.557 6  22587509.24641  26345603.7874
     -5790.109       -4511.774
  23353504.549     4162382.569 8   3260693.15143  23353498.5374
     -2786.016       -2170.921
  23993610.041     3848798.931 7   4932210.72543  23993603.7254
     -1934.984       -1507.780
  27785267.478      164155.199 3    112941.08442  27785266.6704
      -459.203        -357.821
  25967423.861       19048.942 6     41058.83546  25967424.9514
      -403.328        -314.282
 97  3  3 17 19 30.0100000  0  9 29  3  2 31 16 18 19 10 27
  27543294.760    33983324.012 4   7553797.92642  27543296.8464
     -5765.203       -4492.366
  26426286.728     6259806.970 5   1513511.34545  26426289.8814
     -2844.266       -2216.311
  27722454.322     -298617.317 4   -207716.29544  27722456.5604
       447.250         348.506
  25448497.260     -723439.656 6   -529063.64446  25448498.0924
      -731.781        -570.219
  26378678.814    29153294.370 6  22722919.64941  26378671.2994
     -5795.016       -4515.597
  23369459.385     4246225.917 8   3326025.61943  23369453.2914
     -2803.578       -2184.606
  24004675.627     3906950.592 7   4977523.73043  24004670.0144
     -1941.812       -1513.101
  27787931.064      178146.742 3    123843.63242  27787933.8304
      -473.688        -369.107
  25969731.932       31179.485 6     50511.22546  25969733.2324
      -405.469        -315.950
 97  3  3 17 20  0.0110000  0  9 29  3  2 31 16 18 19 10 27
  27576226.241    34156377.429 3   7688644.68442  27576229.6984
     -5771.312       -4497.127
  26442578.452     6345417.053 6   1580220.51145  26442580.7144
     -2862.891       -2230.824
  27719919.601     -311938.291 4   -218096.23344  27719922.8824
       440.828         343.502
  25452719.522     -701251.680 6   -511774.29346  25452720.0154
      -747.375        -582.370
  26411777.530    29327230.003 6
     -5800.391
  23385515.702     4330604.346 8   3391775.02744  23385510.2184
     -2821.438       -2198.523
  24015781.233     3965310.307 7   5022998.82043  24015775.2684
     -1948.672       -1518.446
  27790679.022      192589.185 3    135097.46342  27790682.1984
      -489.141        -381.149
  25972054.733       43388.072 6     60024.42946  25972055.8704
      -408.328        -318.178
 97  3  3 17 20 30.0110000  0  9 29  3  2 31 16 18 19 10 27
  27609191.444    34329612.276 3   7823632.72642  27609192.9334
     -5777.609       -4502.033
  26458974.140     6431577.412 6   1647358.46545  26458975.3584
     -2880.953       -2244.899
  27717422.366     -325064.207 4   -228324.20044  27717426.1044
       434.219         338.352
  25457031.210     -678592.846 6   -494118.03946  25457032.0304
      -763.234        -594.728
  26444908.186    29501332.600 6
     -5806.438
  23401674.413     4415517.754 8   3457941.30443  23401668.3664
     -2839.312       -2212.451
  24026924.038     4023867.878 7   5068628.08143  24026918.1084
     -1955.062       -1523.425
  27793515.749      207499.444 3    146715.83842  27793518.3514
      -504.891        -393.421
  25974392.944       55673.756 6     69597.71746  25974393.7534
      -410.578        -319.931
 97  3  3 17 21  0.0110000  0  9 29  3  2 31 16 18 19 10 27
  27642192.538    34503033.814 3   7958766.31642  27642193.9794
     -5783.969       -4506.989
  26475471.640     6518273.615 6   1714913.92745  26475472.6944
     -2898.969       -2258.937
  27714962.077     -337992.587 4   -238398.23743  27714965.7804
       427.594         333.190
  25461434.507     -655453.928 6   -476087.69546  25461435.5734
      -779.516        -607.415
  26478072.671    29675612.760 6     99596.87251  26478066.7764
     -5812.234       -4529.014
  23417932.593     4500955.411 8   3524516.09443  23417926.7454
     -2856.500       -2225.844
  24038102.921     4082612.751 7   5114403.32443  24038097.3784
     -1961.422       -1528.381
  27796443.054      222879.702 4    158700.47143  27796447.2614
      -520.500        -405.584
  25976743.296       68026.915 6     79223.57546  25976744.1754
      -413.109        -321.903
 97  3  3 17 21 30.0110000  0  9 29  3  2 31 16 18 19 10 27
  27675229.983    34676646.413 3   8094048.69742  27675230.9564
     -5790.500       -4512.078
  26492070.132     6605499.595 6   1782882.23345  26492070.7654
     -2916.172       -2272.342
  27712539.100     -350724.213 4   -248318.95644  27712542.2654
       420.922         327.991
  25465930.890     -631826.659 6   -457676.81346  25465931.8274
      -795.844        -620.138
  26511267.382    29850052.761 6    235523.98841  26511262.4834
     -5817.141       -4532.837
  23434286.522     4586896.143 8   3591482.87944  23434280.6514
     -2873.125       -2238.799
  24049317.913     4141547.432 7   5160326.44343  24049312.3474
     -1967.703       -1533.275
  27799457.804      238724.696 3    171047.21343  27799458.8824
      -536.141        -417.772
  25979107.944       80452.057 6     88905.51646  25979109.4444
      -415.484        -323.754
 97  3  3 17 22  0.0110000  0  9 29  3  2 31 16 18 19 10 27
  27708303.960    34850449.955 4   8229479.97642  27708305.8704
     -5796.531       -4516.778
  26508764.804     6693231.234 6   1851244.54845  26508766.1044
     -2932.953       -2285.418
  27710151.991     -363268.262 4   -258093.49543  27710156.5034
       415.234         323.559
  25470518.186     -607717.906 6   -438890.75746  25470519.0184
      -811.719        -632.508
  26544485.983    30024616.112 6
     -5820.656
  23450734.468     4673329.564 8   3658833.60143  23450728.6794
     -2889.344       -2251.437
  24060565.507     4200654.880 7   5206384.20543  24060560.2574
     -1973.031       -1537.427
  27802561.460      255032.911 4    183754.93942  27802563.7224
      -551.125        -429.448
  25981483.983       92940.654 6     98636.90746  25981485.2844
      -417.125        -325.032
 97  3  3 17 22 30.0110000  0  9 29  3  2 31 16 18 19 10 27
  27741413.030    35024438.948 5   8365055.68843  27741415.1044
     -5802.656       -4521.550
  26525558.679     6781483.117 6   1920012.26645  26525559.9214
     -2950.531       -2299.115
  27707797.546     -375639.353 5   -267733.31044  27707799.9484
       409.672         319.225
  25475198.874     -583120.333 6   -419723.79846  25475199.9054
      -827.984        -645.183
  26577725.655    30199289.928 6      9071.80351  26577719.0224
     -5824.078       -4538.243
  23467277.577     4760264.094 8   3726574.77543  23467271.8114
     -2906.234       -2264.598
  24071847.296     4259940.340 7   5252580.65543  24071840.9214
     -1979.375       -1542.370
  27805750.897      271792.780 4    196814.50643  27805750.9684
      -566.125        -441.136
  25983871.233      105483.830 6    108410.84846  25983872.8044
      -419.156        -326.615
 97  3  3 17 23  0.0110000  0  9 29  3  2 31 16 18 19 10 27
  27774556.733    35198610.631 5   8500773.78443  27774558.7494
     -5808.859       -4526.384
  26542455.007     6870276.110 6   1989201.59145  26542456.8234
     -2969.109       -2313.592
  27705473.726     -387853.499 5   -277250.80644  27705477.1944
       404.734         315.377
  25479972.475     -558036.838 6   -400178.20346  25479973.6124
      -844.328        -657.918
  26610982.882    30374058.467 6    145254.96841  26610977.4564
     -5827.172       -4540.653
  23483915.788     4847699.808 8   3794706.47543  23483909.6474
     -2923.062       -2277.711
  24083167.257     4319426.174 7   5298933.26043  24083161.6324
     -1986.500       -1547.922
  27809024.640      288995.489 5    210219.25443  27809026.2804
      -580.750        -452.532
  25986272.311      118099.786 6    118241.47646  25986273.3314
      -422.141        -328.941
 97  3  3 17 23 30.0110000  0  9 29  3  2 31 16 18 19 10 27
  27807734.507    35372959.370 5   8636629.83744  27807737.1204
     -5814.156       -4530.511
  26559458.835     6959626.171 6   2058825.02345  26559459.9134
     -2987.453       -2327.886
  27703175.999     -399930.279 5   -286661.26944  27703178.6364
       400.438         312.029
  25484838.546     -532465.792 6   -380252.68546  25484839.4724
      -860.297        -670.361
  26644256.968    30548914.190 6    281506.16541  26644251.4134
     -5829.812       -4542.711
  23500652.124     4935650.866 8   3863239.75843  23500646.6514
     -2940.312       -2291.153
  24094527.726     4379125.992 7   5345452.59443  24094521.5264
     -1993.375       -1553.279
  27812382.827      306642.457 4    223970.10743  27812385.0424
      -595.672        -464.160
  25988690.468      130811.200 6    128146.49546  25988691.6514
      -425.328        -331.425
 97  3  3 17 24  0.0110000  0  9 29  3  2 31 16 18 19 10 27
  27840940.647    35547458.516 5   8772603.10344  27840941.7964
     -5819.156       -4534.407
  26576568.374     7049540.008 6   2128887.75345  26576569.8624
     -3007.000       -2343.117
  27700901.515     -411879.295 5   -295972.18044  27700905.0774
       395.953         308.535
  25489794.944     -506417.283 6   -359955.12246  25489795.7064
      -876.375        -682.890
  26677546.710    30723852.712 6    417821.87241  26677541.1674
     -5832.984       -4545.183
  23517487.280     5024118.960 8   3932175.92643  23517481.1634
     -2957.672       -2304.679
  24105926.796     4439028.610 7   5392129.95643  24105920.5974
     -2000.219       -1558.612
  27815826.366      324738.141 4    238070.61043  27815827.3974
      -610.797        -475.946
  25991129.694      143629.333 6    138134.66346  25991130.8314
      -429.312        -334.529
 97  3  3 17 24 30.0110000  0  9 29  3  2 31 16 18 19 10 27
  27874174.554    35722101.010 5   8908688.03144  27874175.7844
     -5823.828       -4538.048
  26593789.608     7140036.432 6   2199404.42945  26593790.4294
     -3025.969       -2357.898
  27698654.202     -423688.176 5   -305173.87944  27698657.1554
       391.109         304.761
  25494842.788     -479891.753 6   -339285.86646  25494843.3394
      -892.031        -695.089
  26710856.319    30898896.390 6    554219.48741  26710850.7064
     -5836.672       -4548.056
  23534420.663     5113104.642 8   4001515.40344  23534414.9564
     -2974.641       -2317.902
  24117363.858     4499131.875 7   5438963.66743  24117358.3154
     -2006.562       -1563.555
  27819354.944      343283.592 4    252521.60143  27819357.4404
      -625.609        -487.488
  25993592.702      156571.040 6    148219.12846  25993594.4484
      -433.484        -337.780
 97  3  3 17 25  0.0110000  0  9 29  3  2 31 16 18 19 10 27
  27907434.952    35896886.818 5   9044884.66344  27907437.8004
     -5828.672       -4541.822
  26611116.343     7231092.008 6   2270356.81645  26611116.6714
     -3044.344       -2372.216
  27696436.452     -435342.643 5   -314255.28644  27696439.8154
       385.656         300.511
  25499980.226     -452894.668 6   -318249.15646  25499980.9874
      -907.922        -707.472
  26744187.390    31074051.556 6    690703.91141  26744181.9054
     -5840.438       -4550.990
  23551449.218     5202590.274 8   4071244.45943  23551443.3824
     -2991.281       -2330.869
  24128834.585     4559409.551 7   5485933.28843  24128828.4444
     -2011.906       -1567.719
  27822968.233      362271.901 4    267317.70843  27822970.9874
      -640.469        -499.067
  25996078.554      169632.997 6    158397.29746  25996079.9364
      -437.438        -340.860
 97  3  3 17 25 30.0110000  0  9 29  3  2 31 16 18 19 10 27
  27940722.929    36071815.175 4   9181192.33643  27940726.5154
     -5833.469       -4545.560
  26628547.147     7322690.421 6   2341732.20845  26628548.6004
     -3062.438       -2386.315
  27694251.640     -446823.926 5   -323201.69444  27694255.0734
       379.406         295.641
  25505207.601     -425423.439 6   -296842.98846  25505208.1284
      -923.594        -719.683
  26777540.069    31249320.611 5    827277.14841  26777534.7264
     -5844.344       -4554.034
  23568573.343     5292577.458 8   4141364.32843  23568567.4954
     -3007.891       -2343.811
  24140333.358     4619838.092 7   5533020.44643  24140327.5694
     -2016.797       -1571.530
  27826667.749      381713.164 4    282466.74643  27826669.5894
      -655.734        -510.962
  25998585.366      182808.109 6    168663.62946  25998586.8434
      -440.891        -343.551
 97  3  3 17 26  0.0110000  0  9 29  3  2 31 16 18 19 10 27
  27974040.952    36246901.350 4   9317623.02743  27974044.1514
     -5839.078       -4549.931
  26646081.749     7414835.736 6   2413533.74445  26646083.2024
     -3080.516       -2400.402
  27692105.601     -458102.366 5   -331990.05944  27692108.6714
       372.297         290.101
  25510525.624     -397477.050 6   -275066.55846  25510526.1044
      -939.547        -732.114
  26810916.155    31424712.523 5    963946.09241  26810911.3394
     -5848.531       -4557.297
  23585791.015     5383056.881 8   4211867.75943  23585785.1794
     -3024.188       -2356.510
  24151860.710     4680413.689 7   5580222.21343  24151854.6404
     -2021.750       -1575.390
  27830454.436      401611.139 3    297971.70642  27830458.9834
      -670.938        -522.808
  26001110.991      196079.998 6    179005.40246  26001112.1164
      -443.797        -345.816
 97  3  3 17 26 30.0110000  0  9 29  3  2 31 16 18 19 10 27
  28007391.491    36422164.290 3   9454191.42543  28007393.9644
     -5845.203       -4554.704
  26663717.335     7507512.758 6   2485749.61045  26663718.4484
     -3097.844       -2413.904
  27690001.647     -469156.903 5   -340603.95944  27690005.4334
       364.844         284.294
  25515936.163     -369044.006 6   -252910.91746  25515937.0304
      -955.906        -744.862
  26844316.866    31600238.337 5   1100719.42541  26844312.2374
     -5853.047       -4560.816
  23603103.327     5474034.105 8   4282759.09143  23603097.4564
     -3040.859       -2369.501
  24163418.475     4741149.885 7   5627549.11643  24163412.7924
     -2027.359       -1579.761
  27834329.257      421972.343 4    313837.57043  27834332.6904
      -686.453        -534.899
  26003651.186      209429.536 6    189407.64046  26003651.6434
      -446.062        -347.581
 97  3  3 17 27  0.0110000  0  9 29  3  2 31 16 18 19 10 27
  28040778.843    36597612.761 3   9590904.39442  28040781.9134
     -5851.391       -4559.525
  26681452.585     7600710.078 5   2558370.90145  26681454.5304
     -3115.500       -2427.662
  27687938.585     -479998.010 5   -349051.53044  27687941.9134
       357.969         278.937
  25521440.515     -340119.393 6   -230372.23446  25521440.9254
      -972.297        -757.634
  26877742.561    31775888.297 5   1237589.47841  26877738.4834
     -5856.844       -4563.774
  23620510.358     5565509.128 8   4354038.32843  23620504.5464
     -3057.594       -2382.541
  24175008.882     4802058.449 7   5675010.31543  24175002.8004
     -2033.391       -1584.460
  27838292.897      442802.283 4    330068.67843  27838296.5424
      -702.266        -547.220
  26006203.819      222842.492 6    199859.32346  26006204.8044
      -448.203        -349.249
 97  3  3 17 27 30.0110000  0  9 29  3  2 31 16 18 19 10 27
  28074200.491    36773245.568 3   9727760.98642  28074202.7294
     -5857.469       -4564.261
  26699290.718     7694449.472 6   2631414.56545  26699292.5114
     -3133.750       -2441.883
  27685915.038     -490634.935 5   -357340.01945  27685917.0894
       351.266         273.713
  25527037.882     -310704.355 6   -207451.40546  25527038.2684
      -988.625        -770.357
  26911188.554    31951649.524 5   1374546.22641  26911180.7924
     -5860.484       -4566.611
  23638013.366     5657486.723 8   4425709.16143  23638007.6834
     -3074.125       -2395.422
  24186636.179     4863160.313 7   5722622.16843  24186630.2494
     -2040.109       -1589.696
  27842347.358      464109.647 4    346671.84343  27842350.8044
      -718.125        -559.578
  26008768.077      236318.629 6    210360.22746  26008768.6284
      -450.047        -350.686
 97  3  3 17 28  0.0110000  0  9 29  3  2 31 16 18 19 10 27
  28107658.202    36949065.541 3
     -5863.594
  26717232.374     7788733.500 6   2704882.64045  26717233.0544
     -3151.859       -2455.994
  27683927.272     -501076.136 5   -365476.00345  27683929.5464
       345.031         268.856
  25532729.382     -280795.283 6   -184145.62046  25532729.8274
     -1005.250        -783.312
  26944655.436    32127518.600 5
     -5864.094
  23655611.101     5749963.558 7   4497769.01843  23655605.2294
     -3091.000       -2408.571
  24198303.022     4924468.218 7   5770394.54543  24198297.1634
     -2047.094       -1595.138
  27846493.171      485893.933 5    363646.62043  27846494.8584
      -734.172        -572.082
  26011343.397      249852.244 6    220905.91946  26011344.3704
      -452.203        -352.366
 97  3  3 17 28 30.0110000  0  8  3  2 31 16 18 19 10 27
  26735276.866     7883558.732 6   2778772.41945  26735278.0614
     -3169.875       -2470.032
  27681972.311     -511352.980 5   -373483.89945  27681975.9094
       340.281         265.154
  25538514.585     -250393.887 6   -160456.20246  25538515.0304
     -1021.406        -795.901
  26978141.382    32303488.802 5
     -5867.062
  23673305.741     5842951.233 8   4570226.94443  23673300.3044
     -3108.062       -2421.867
  24210008.960     4985983.188 7   5818328.30143  24210003.7454
     -2053.641       -1600.239
  27850728.343      508152.702 4    380991.10643  27850731.1554
      -749.578        -584.087
  26013930.499      263446.152 6    231498.59946  26013931.4834
      -454.031        -353.791
 97  3  3 17 29  0.0110000  0  8  3  2 31 16 18 19 10 27
  26753426.288     7978936.499 5   2853092.76145  26753428.4444
     -3188.562       -2484.594
  27680044.663     -521479.893 5   -381374.98845  27680047.8154
       334.875         260.942
  25544392.663     -219504.400 6   -136386.45546  25544393.2724
     -1037.828        -808.697
  27011642.843    32479540.693 5     59448.78151  27011638.3084
     -5869.609       -4573.722
  23691099.577     5936457.699 8   4643089.11143  23691093.9174
     -3125.578       -2435.515
  24221751.155     5047689.781 7   5866411.34943  24221745.2964
     -2060.047       -1605.231
  27855053.866      530881.344 5    398701.77843  27855054.2654
      -765.641        -596.603
  26016529.390      277103.571 6    242140.76246  26016529.8704
      -456.297        -355.556
 97  3  3 17 29 30.0110000  0  8  3  2 31 16 18 19 10 27
  26771682.890     8074873.793 5   2927849.07245  26771684.3904
     -3207.000       -2498.961
  27678149.663     -531438.039 5   -389134.55145  27678153.0734
       329.125         256.461
  25550366.077     -188115.391 6   -111927.46546  25550366.8394
     -1054.844        -821.956
  27045159.522    32655668.314 5    196690.94541  27045156.4644
     -5872.156       -4575.706
  23708993.405     6030489.626 8   4716360.72743  23708986.9364
     -3143.219       -2449.261
  24233529.991     5109588.239 7   5914643.91743  24233524.5894
     -2066.469       -1610.235
  27859470.905      554093.041 5    416788.75443  27859472.1474
      -781.641        -609.071
  26019140.476      290826.193 6    252833.73246  26019141.0734
      -458.453        -357.236
 97  3  3 17 30  0.0120000  0  8  3  2 31 16 18 19 10 27
  26790042.871     8171354.629 5   3003028.94845  26790044.8404
     -3225.047       -2513.024
  27676288.754     -541221.565 5   -396758.04445  27676291.7194
       322.969         251.664
  25556437.066     -156210.254 6    -87066.30346  25556437.7234
     -1072.266        -835.532
  27078691.035    32831878.326 5
     -5874.906
  23726990.308     6125063.603 7   4790054.73043  23726984.5434
     -3161.641       -2463.616
  24245345.793     5171681.882 7   5963028.56443  24245340.6254
     -2073.078       -1615.386
  27863978.348      577781.648 5    435247.42343  27863981.2194
      -797.578        -621.489
  26021764.730      304615.720 6    263578.84246  26021765.1764
      -460.938        -359.172
 97  3  3 17 30 30.0120000  0  8  3  2 31 16 18 19 10 27
  26808504.668     8268373.767 6   3078628.24545  26808506.5314
     -3242.938       -2526.964
  27674462.316     -550816.849 5   -404234.84944  27674465.0944
       316.453         246.587
  25562608.441     -123779.925 6    -61795.90146  25562609.1684
     -1089.906        -849.278
  27112236.168    33008159.971 5
     -5877.234
  23745090.848     6220182.526 7   4864173.35043  23745085.0824
     -3179.641       -2477.642
  24257199.308     5233970.474 7   6011565.13143  24257193.7074
     -2079.438       -1620.341
  27868575.387      601939.273 4    454071.55243  27868578.8554
      -812.953        -633.470
  26024400.887      318470.046 6    274374.43146  26024402.0124
      -462.750        -360.584
 97  3  3 17 31  0.0120000  0  8  3  2 31 16 18 19 10 27
  26827069.918     8365937.640 5   3154652.04845  26827072.4264
     -3261.281       -2541.258
  27672678.019     -560187.575 5   -411536.66844  27672681.3594
       308.375         240.292
  25568883.371      -90804.939 6    -36101.09546  25568884.0274
     -1108.422        -863.705
  27145796.832    33184521.485 5
     -5880.281
  23763295.434     6315848.334 7   4938718.12243  23763290.0904
     -3197.953       -2491.912
  24269089.926     5296456.838 7   6060255.81643  24269084.1844
     -2086.375       -1625.747
  27873262.605      626570.990 5    473265.09143  27873265.0194
      -829.031        -645.998
  26027050.324      332392.458 6    285223.07546  26027051.0514
      -465.438        -362.679
 97  3  3 17 31 30.0120000  0  8  3  2 31 16 18 19 10 27
  26845739.113     8464042.626 5   3231097.46245  26845741.2114
     -3279.156       -2555.187
  27670938.785     -569329.563 5   -418660.27345  27670941.8324
       300.922         234.485
  25575262.605      -57281.156 6     -9978.64846  25575263.0984
     -1126.562        -877.841
  27179374.137    33360971.891 5
     -5883.234
  23781602.840     6412055.169 8   5013684.47943  23781596.9804
     -3216.000       -2505.974
  24281020.113     5359150.132 7   6109107.72143  24281013.9614
     -2093.359       -1631.189
  27878038.019      651665.692 5    492819.39543  27878038.7464
      -844.016        -657.675
  26029714.746      346392.224 6    296132.01146  26029715.4734
      -468.109        -364.761
 97  3  3 17 32  0.0120000  0  8  3  2 31 16 18 19 10 27
  26864511.144     8562688.783 5   3307964.56745  26864513.1604
     -3297.500       -2569.481
  27669242.754     -578243.694 5   -425606.31645  27669245.6724
       293.344         228.580
  25581744.168      -23221.066 6     16561.69846  25581744.6954
     -1144.016        -891.441
  27212969.824    33537518.119 5
     -5886.531
  23800014.098     6508805.680 8   5089074.46143  23800008.6014
     -3233.891       -2519.915
  24292991.629     5422060.717 7   6158128.94643  24292985.5354
     -2100.672       -1636.887
  27882900.582      677216.181 5    512728.85643  27882902.4804
      -859.438        -669.692
  26032395.433      360479.980 6    307109.49646  26032396.2194
      -471.125        -367.110
 97  3  3 17 32 30.0120000  0  8  3  2 31 16 18 19 10 27
  26883388.746     8661892.001 5   3385265.77545  26883390.1414
     -3316.047       -2583.933
  27667589.379     -586934.642 5   -432378.42044  27667592.9184
       285.953         222.821
  25588323.566       11354.702 6     43503.86746  25588324.2234
     -1161.031        -904.700
  27246583.027    33714154.059 5      4583.67851  27246577.7894
     -5889.031       -4588.856
  23818524.605     6606080.382 8   5164872.92843  23818518.3594
     -3250.953       -2533.210
  24305003.715     5485185.195 7   6207316.85143  24304998.0554
     -2107.609       -1642.293
  27887851.199      703233.860 5    533002.33743  27887851.9144
      -875.109        -681.903
  26035092.535      374654.358 6    318154.47646  26035093.4494
      -473.938        -369.302
 97  3  3 17 33  0.0120000  0  8  3  2 31 16 18 19 10 27
  26902372.074     8761649.261 6   3462998.70545  26902374.2544
     -3334.391       -2598.226
  27665977.957     -595399.833 5   -438974.66245  27665980.3484
       278.531         217.037
  25594999.723       46438.721 6     70842.08046  25595000.4494
     -1177.906        -917.849
  27280209.309    33890859.697 5    142276.34941  27280203.3094
     -5891.312       -4590.633
  23837132.605     6703865.063 8   5241068.75043  23837126.7694
     -3267.969       -2546.469
  24317055.496     5548517.484 7   6256666.67943  24317050.0474
     -2114.734       -1647.845
  27892892.918      729727.459 5    553646.72643  27892894.3484
      -891.172        -694.420
  26037808.324      388925.879 6    329275.15946  26037809.4144
      -477.562        -372.127
 97  3  3 17 33 30.0120000  0  8  3  2 31 16 18 19 10 27
  26921458.957     8861952.612 6   3541157.12545  26921460.0594
     -3352.859       -2612.618
  27664407.238     -603656.616 5   -445408.48245  27664409.4534
       271.562         211.607
  25601772.262       82026.753 6     98573.02646  25601772.5434
     -1194.984        -931.157
  27313847.246    34067630.612 5    280019.83041  27313843.2624
     -5893.719       -4592.508
  23855836.941     6802157.138 8   5317659.96343  23855830.8124
     -3285.203       -2559.899
  24329149.387     5612070.867 7   6306188.79843  24329144.2664
     -2122.406       -1653.823
  27898027.301      756707.873 5    574670.44443  27898030.2664
      -907.922        -707.472
  26040544.535      403302.743 6    340477.91646  26040545.5554
      -481.219        -374.976
 97  3  3 17 34  0.0120000  0  8  3  2 31 16 18 19 10 27
  26940652.730     8962815.345 6   3619751.46545  26940654.4064
     -3371.375       -2627.045
  27662875.387     -611706.753 5   -451681.29645  27662878.3284
       265.109         206.579
  25608642.707      118132.435 6    126707.34446  25608643.2694
     -1212.141        -944.525
  27347499.551    34244474.001 5    417819.81341  27347494.4414
     -5895.750       -4594.091
  23874639.035     6900962.465 8   5394651.12243  23874633.2114
     -3301.781       -2572.817
  24341285.082     5675845.249 7   6355883.12043  24341279.0944
     -2128.969       -1658.937
  27903259.699      784201.591 5    596094.12243  27903262.3014
      -924.906        -720.706
  26043300.926      417791.068 6    351767.54146  26043301.8874
      -484.547        -377.569
 97  3  3 17 34 30.0120000  0  8  3  2 31 16 18 19 10 27
  26959952.730     9064236.863 5   3698781.20245  26959954.8164
     -3389.766       -2641.376
  27661380.941     -619557.712 5   -457798.90445  27661383.5784
       258.328         201.295
  25615614.980      154770.339 6    155256.37446  25615615.7664
     -1230.406        -958.758
  27381162.738    34421376.475 5    555665.81041  27381156.2814
     -5897.531       -4595.479
  23893536.957     7000271.911 8   5472035.09443  23893530.7934
     -3318.812       -2586.088
  24353456.269     5739804.913 7   6405721.84443  24353449.9534
     -2134.828       -1663.502
  27908588.223      812206.492 5    617916.10343  27908588.8084
      -942.000        -734.026
  26046077.277      432380.416 6    363135.89046  26046078.1564
      -487.969        -380.235
 97  3  3 17 35  0.0120000  0  8  3  2 31 16 18 19 10 27
  26979354.621     9166196.142 6   3778229.95945  26979356.4964
     -3407.609       -2655.280
  27659923.285     -627218.138 5   -463768.02645  27659925.6524
       252.500         196.753
  25622690.965      191956.489 6    184232.59746  25622691.7264
     -1248.688        -973.003
  27414835.527    34598329.993 5    693551.63741  27414829.2934
     -5899.469       -4596.989
  23912532.762     7100095.197 8   5549819.45244  23912527.3484
     -3336.188       -2599.627
  24365658.707     5803928.678 7   6455688.38643  24365652.9884
     -2140.250       -1667.727
  27914013.105      840713.701 5    640129.49344  27914014.2774
      -958.625        -746.981
  26048873.090      447072.052 6    374583.93146  26048873.5944
      -491.406        -382.914
 97  3  3 17 35 30.0120000  0  8  3  2 31 16 18 19 10 27
  26998860.559     9268698.589 6   3858102.01445  26998861.9654
     -3425.938       -2669.562
  27658496.902     -634715.112 5   -469609.79145  27658499.7974
       247.234         192.650
  25629870.551      229685.394 6    213631.76246  25629871.0664
     -1266.578        -986.944
  27448520.105    34775340.363 5    831481.65341  27448514.3164
     -5901.188       -4598.328
  23931627.129     7200436.853 8   5628007.74243  23931621.3634
     -3353.234       -2612.910
  24377891.769     5868214.708 7   6505781.37943  24377886.3084
     -2145.312       -1671.672
  27919532.723      869720.238 5    662731.98843  27919534.1414
      -975.031        -759.765
  26051686.660      461857.279 6    386104.89646  26051687.0584
      -494.250        -385.130
 97  3  3 17 36  0.0120000  0  8  3  2 31 16 18 19 10 27
  27018469.473     9371745.241 6   3938398.09445  27018470.2344
     -3443.891       -2683.551
  27657101.457     -642047.338 5   -475323.16845  27657105.1724
       241.344         188.060
  25637152.137      267952.103 6    243450.00046  25637153.0744
     -1284.641       -1001.019
  27482211.668    34952393.521 5    969445.16241  27482204.7264
     -5902.406       -4599.278
  23950817.715     7301283.561 8   5706589.57843  23950811.6214
     -3369.984       -2625.962
  24390151.019     5932637.116 7   6555980.66443  24390144.9024
     -2149.688       -1675.081
  27925144.754      899207.930 5    685709.41443  27925144.7544
      -990.859        -772.098
  26054515.441      476723.350 6    397688.85846  26054516.2974
      -496.844        -387.151
 97  3  3 17 36 30.0120000  0  8  3  2 31 16 18 19 10 27
  27038180.894     9475327.647 6   4019111.64745  27038182.8054
     -3461.562       -2697.321
  27655742.043     -649192.285 5   -480890.63645  27655745.0904
       234.953         183.080
  25644538.277      306765.599 6    273694.30046  25644539.2974
     -1303.031       -1015.349
  27515911.035    35129481.956 5   1107436.08441  27515906.5594
     -5903.531       -4600.154
  23970105.051     7402638.766 8   5785567.64343  23970099.4734
     -3387.172       -2639.355
  24402438.199     5997206.233 7   6606294.25043  24402431.9654
     -2155.156       -1679.343
  27930847.027      929174.100 5    709059.66243  27930848.9734
     -1007.094        -784.748
  26057359.426      491667.902 6    409333.98346  26057360.0124
      -499.578        -389.282
 97  3  3 17 37  0.0120000  0  8  3  2 31 16 18 19 10 27
  27057991.621     9579435.035 6   4100234.29045  27057993.6604
     -3478.828       -2710.775
  27654417.808     -656149.589 5   -486311.85945  27654420.5044
       229.062         178.490
  25652028.769      346127.161 6    304365.65346  25652029.5194
     -1320.812       -1029.205
  27549616.051    35306603.742 5   1245452.91741  27549610.1444
     -5904.422       -4600.848
  23989490.504     7504511.141 8   5864948.69243  23989484.1994
     -3404.172       -2652.601
  24414758.746     6061951.777 7   6656745.30643  24414753.4024
     -2161.141       -1684.006
  27936641.379      959626.747 5    732789.01044  27936644.0624
     -1022.922        -797.082
  26060218.926      506695.250 6    421043.61146  26060219.7114
      -502.031        -391.193
 97  3  3 17 37 30.0120000  0  8  3  2 31 16 18 19 10 27
  27077904.027     9684074.822 6   4181771.77645  27077905.3404
     -3497.062       -2724.984
  27653131.738     -662910.165 5   -491579.81545  27653134.3404
       221.453         172.561
  25659621.957      386030.962 6    335459.54646  25659622.6604
     -1339.625       -1043.864
  27583328.605    35483763.008 5
     -5906.250
  24008974.684     7606900.526 8   5944732.61743  24008969.0354
     -3421.984       -2666.481
  24427116.863     6126894.314 7   6707349.88043  24427110.7814
     -2168.266       -1689.558
  27942529.598      990567.781 5    756898.89643  27942530.8874
     -1039.719        -810.170
  26063093.629      521800.387 6    432813.85646  26063094.5664
      -505.078        -393.567
 97  3  3 17 38  0.0120000  0  8  3  2 31 16 18 19 10 27
  27097916.855     9789244.354 6   4263722.04145  27097916.8674
     -3514.094       -2738.255
  27651889.184     -669438.685 5   -496666.93745  27651892.5704
       213.875         166.656
  25667323.871      426503.090 6    366996.28746  25667324.6214
     -1358.312       -1058.425
  27617050.035    35660970.154 5
     -5907.391
  24028560.473     7709825.534 7   6024933.90343  24028554.1914
     -3439.625       -2680.227
  24439513.207     6192036.295 7   6758109.86643  24439507.1254
     -2174.578       -1694.476
  27948511.184     1022002.042 5    781393.07743  27948513.2694
     -1055.875        -822.760
  26065984.043      536992.405 6    444651.81846  26065985.3674
      -507.594        -395.528
 97  3  3 17 38 30.0120000  0  8  3  2 31 16 18 19 10 27
  27118029.137     9894933.062 6   4346076.88045  27118030.3674
     -3531.750       -2752.013
  27650689.676     -675741.505 5   -501578.20045  27650692.4414
       206.484         160.897
  25675131.879      467535.038 6    398969.24546  25675132.4414
     -1377.062       -1073.036
  27650778.121    35838212.673 5
     -5908.766
  24048248.309     7813284.922 8   6105551.60943  24048242.7894
     -3457.562       -2694.205
  24451947.824     6257381.522 7   6809028.21643  24451941.8124
     -2181.641       -1699.980
  27954585.582     1053923.929 5    806267.31444  27954587.4104
     -1072.234        -835.507
  26068890.433      552263.958 6    456551.73946  26068891.8634
      -510.484        -397.780
 97  3  3 17 39  0.0120000  0  8  3  2 31 16 18 19 10 27
  27138242.199    10001154.717 6   4428846.99045  27138243.1954
     -3549.812       -2766.088
  27649531.324     -681828.616 5   -506321.37945  27649533.9734
       199.391         155.369
  25683045.426      509122.067 6    431374.73546  25683046.2694
     -1395.219       -1087.183
  27684515.004    36015501.069 5
     -5910.438
  24068037.434     7917277.427 7   6186584.71143  24068031.5274
     -3475.109       -2707.877
  24464420.723     6322926.687 7   6860102.37544  24464415.2384
     -2188.016       -1704.947
  27960752.949     1086330.716 5    831519.33444  27960755.2814
     -1088.062        -847.841
  26071812.293      567620.178 6    468517.64146  26071813.6294
      -513.125        -399.838
 97  3  3 17 39 30.0120000  0  8  3  2 31 16 18 19 10 27
  27158560.808    10107930.385 6   4512048.80445  27158560.8554
     -3568.547       -2780.686
  27648414.785     -687696.184 5   -510893.47245  27648417.7974
       191.703         149.379
  25691063.082      551252.667 6    464203.78246  25691064.1484
     -1413.547       -1101.465
  27718262.512    36192846.273 5
     -5912.484
  24087925.043     8021787.539 7   6268021.13743  24087918.8324
     -3492.188       -2721.185
  24476930.910     6388667.502 7   6911328.97543  24476925.3444
     -2194.562       -1710.049
  27967009.988     1119213.486 5    857142.22943  27967013.2814
     -1104.156        -860.381
  26074749.324      583053.265 6    480543.43546  26074750.4264
      -515.719        -401.859
 97  3  3 17 40  0.0120000  0  8  3  2 31 16 18 19 10 27
  27178985.918    10215263.298 6   4595684.82545  27178986.7624
     -3587.125       -2795.162
  27647341.043     -693337.440 5   -515289.22645  27647344.2544
       184.406         143.693
  25699183.894      593930.051 6    497458.90746  25699184.4924
     -1431.578       -1115.515
  27752020.293    36370241.587 5
     -5913.938
  24107908.621     8126802.081 7   6349850.64043  24107902.5044
     -3508.781       -2734.115
  24489476.238     6454594.036 7   6962700.30043  24489470.6134
     -2200.922       -1715.004
  27973358.058     1152574.200 5    883137.59343  27973361.3754
     -1120.156        -872.849
  26077699.582      598557.673 6    492624.81046  26077700.4614
      -518.047        -403.673
 97  3  3 17 40 30.0130000  0  8  3  2 31 16 18 19 10 27
  27199517.954    10323160.400 6   4679760.48545  27199518.8094
     -3605.703       -2809.639
  27646307.743     -698768.338 5   -519521.05945  27646311.3644
       177.688         138.458
  25707408.001      637148.813 6    531135.87746  25707408.4934
     -1449.594       -1129.554
  27785786.837    36547689.496 5
     -5915.516
  24127987.899     8232320.073 7   6432072.42843  24127982.2514
     -3525.453       -2747.106
  24502060.962     6520728.273 7   7014233.46743  24502054.9274
     -2207.781       -1720.349
  27979799.837     1186426.674 5    909516.12444  27979802.4154
     -1136.641        -885.694
  26080663.790      614135.640 6    504763.49346  26080664.6924
      -520.359        -405.475
 97  3  3 17 41  0.0130000  0  8  3  2 31 16 18 19 10 27
  27220154.993    10431608.627 5   4764265.57845  27220156.5994
     -3624.234       -2824.079
  27645313.360     -703993.066 5   -523592.24445  27645316.6184
       170.562         132.906
  25715735.376      680908.005 6    565233.95346  25715736.0564
     -1467.766       -1143.713
  27819562.040    36725177.690 5
     -5916.938
  24148163.157     8338341.009 7   6514686.14343  24148156.9234
     -3542.750       -2760.584
  24514684.931     6587066.902 7   7065925.89743  24514678.5094
     -2215.031       -1725.998
  27986337.251     1220785.186 4    936289.01643  27986341.5054
     -1154.047        -899.257
  26083641.970      629784.910 6    516957.73246  26083642.5204
      -522.969        -407.508
 97  3  3 17 41 30.0130000  0  8  3  2 31 16 18 19 10 27
  27240897.860    10540611.584 6   4849202.91045  27240899.6304
     -3642.266       -2838.129
  27644361.548     -708995.617 5   -527490.30045  27644364.3134
       163.094         127.086
  25724167.782      725221.265 6    599763.78046  25724168.4154
     -1486.484       -1158.300
  27853344.407    36902701.531 5
     -5917.719
  24168437.837     8444884.809 7   6597707.26743  24168432.3994
     -3560.219       -2774.196
  24527352.087     6653633.376 7   7117795.87543  24527346.1344
     -2222.422       -1731.757
  27992977.829     1255673.249 5    963474.46743  27992977.8414
     -1171.781        -913.076
  26086636.743      645523.279 6    529221.42146  26086637.8564
      -526.281        -410.089
 97  3  3 17 42  0.0130000  0  8  3  2 31 16 18 19 10 27
  27261739.923    10650140.321 6   4934549.95845  27261741.5404
     -3659.688       -2851.705
  27643449.735     -713785.843 5   -531222.91145  27643453.2164
       156.328         121.814
  25732708.227      770101.549 6    634735.44346  25732708.8724
     -1505.656       -1173.239
  27887127.673    37080234.573 5
     -5917.953
  24188813.345     8551959.106 7   6681141.75443  24188807.8954
     -3578.188       -2788.198
  24540059.134     6720410.026 7   7169829.64143  24540053.7904
     -2229.672       -1737.407
  27999716.477     1291092.263 4    991073.68843  27999718.6104
     -1189.672        -927.017
  26089651.681      661365.842 6    541566.29446  26089652.7944
      -530.156        -413.109
 97  3  3 17 42 30.0130000  0  8  3  2 31 16 18 19 10 27
  27282681.329    10760186.353 6   5020300.09645  27282682.7594
     -3676.922       -2865.134
  27642576.298     -718375.420 5   -534799.16945  27642578.7124
       149.484         116.481
  25741357.477      815556.042 6    670154.53046  25741358.5674
     -1524.781       -1188.141
  27920912.001    37257772.525 5
     -5917.906
  24209291.290     8659571.485 7   6764995.55043  24209285.2784
     -3595.922       -2802.017
  24552808.079     6787405.672 7   7222034.02643  24552802.4194
     -2236.609       -1742.812
  28006559.352     1327048.333 4   1019091.49543  28006563.4544
     -1207.344        -940.787
  26092688.759      677327.105 6    554003.65446  26092689.5094
      -533.875        -416.006
 97  3  3 17 43  0.0130000  0  8  3  2 31 16 18 19 10 27
  27303723.095    10870762.641 6   5106463.40845  27303724.6534
     -3694.844       -2879.099
  27641745.274     -722744.821 5   -538203.85045  27641748.8604
       141.875         110.552
  25750117.782      861589.263 6    706024.57446  25750118.6844
     -1544.172       -1203.251
  27954697.571    37435315.001 5
     -5918.266
  24229869.727     8767713.247 7   6849261.83343  24229864.1734
     -3613.469       -2815.690
  24565597.274     6854612.988 7   7274403.36943  24565591.4154
     -2243.953       -1748.535
  28013503.095     1363536.823 5   1047524.02443  28013504.1024
     -1225.125        -954.643
  26095749.079      693408.303 6    566534.46946  26095749.7704
      -538.172        -419.355
 97  3  3 17 43 30.0130000  0  8  3  2 31 16 18 19 10 27
  27324866.860    10981874.646 6   5193044.16345  27324868.7704
     -3712.547       -2892.894
  27640954.946     -726893.085 5   -541436.22845  27640958.2164
       134.734         104.988
  25758988.337      908204.220 6    742347.92146  25758989.0054
     -1563.484       -1218.300
  27988483.884    37612865.523 5
     -5918.438
  24250547.173     8876371.891 7   6933930.90143  24250541.2904
     -3630.359       -2828.851
  24578427.220     6922035.270 7   7326940.19643  24578421.4894
     -2250.734       -1753.819
  28020544.923     1400544.463 4   1076361.12743  28020545.9314
     -1242.047        -967.829
  26098831.220      709605.523 6    579155.69846  26098832.4744
      -541.500        -421.948
 97  3  3 17 44  0.0130000  0  8  3  2 31 16 18 19 10 27
  27346112.056    11093518.048 6   5280039.01745  27346112.9344
     -3730.406       -2906.810
  27640206.954     -730826.371 5   -544501.08145  27640209.4854
       127.391          99.265
  25767969.337      955400.753 6    779124.44946  25767970.0754
     -1582.719       -1233.287
  28022271.727    37790420.164 5
     -5918.625
  24271321.415     8985541.886 7   7018998.39743  24271315.7434
     -3647.516       -2842.220
  24591296.407     6989662.133 7   7379636.46243  24591290.7474
     -2257.891       -1759.395
  28027685.142     1438063.054 5   1105596.42943  28027686.9704
     -1259.000        -981.039
  26101930.204      725891.165 6    591845.81346  26101931.6814
      -544.062        -423.945
 97  3  3 17 44 30.0130000  0  8  3  2 31 16 18 19 10 27
  27367460.720    11205703.926 6   5367456.56845  27367461.8684
     -3748.969       -2921.274
  27639503.431     -734522.901 5   -547381.45745  27639505.6694
       118.781          92.557
  25777058.759     1003165.364 6    816343.62546  25777059.2164
     -1601.719       -1248.093
  28056061.649    37967987.729 5
     -5919.344
  24292193.524     9095224.725 7   7104465.53343  24292187.3134
     -3664.812       -2855.698
  24604207.345     7057510.230 7   7432505.10043  24604201.1814
     -2265.391       -1765.239
  28034920.110     1476083.913 5   1135222.98243  28034922.3254
     -1275.812        -994.140
  26105042.821      742247.779 6    604591.23746  26105043.8994
      -546.531        -425.869
 97  3  3 17 45  0.0130000  0  8  3  2 31 16 18 19 10 27
  27388913.188    11318438.859 6   5455301.93945  27388914.4544
     -3766.516       -2934.947
  27638847.610     -737968.327 5   -550066.16745  27638850.7394
       110.984          86.481
  25786255.079     1051492.349 6    854001.02446  25786255.3024
     -1619.984       -1262.325
  28089854.595    38145571.052 5
     -5919.422
  24313162.509     9205418.118 7   7190330.48143  24313157.0014
     -3681.609       -2868.787
  24617159.977     7125576.352 7   7485543.63143  24617153.8134
     -2272.281       -1770.609
  28042249.954     1514602.169 5   1165237.25243  28042252.6964
     -1292.109       -1006.838
  26108169.392      758677.736 6    617393.80746  26108170.0244
      -548.734        -427.585
 97  3  3 17 45 30.0130000  0  8  3  2 31 16 18 19 10 27
  27410466.337    11431701.161 6   5543558.26745  27410467.6264
     -3784.156       -2948.693
  27638237.946     -741171.988 5   -552562.48745  27638241.5914
       102.578          79.931
  25795557.212     1100375.830 6    892092.04646  25795557.9154
     -1638.734       -1276.936
  28123649.056    38323159.488 5
     -5919.609
  24334231.290     9316135.131 7   7276603.46643  24334225.6654
     -3699.469       -2882.703
  24630151.220     7193845.979 7   7538740.73443  24630145.8764
     -2278.875       -1775.747
  28049674.931     1553619.436 5   1195640.29344  28049677.9424
     -1309.000       -1020.000
  26111310.376      775182.546 6    630254.70646  26111311.1494
      -551.750        -429.935
 97  3  3 17 46  0.0130000  0  8  3  2 31 16 18 19 10 27
  27432119.681    11545490.907 6   5632225.57745  27432120.9814
     -3801.844       -2962.476
  27637678.079     -744116.668 5   -554857.02745  27637680.5054
        93.609          72.942
  25804966.634     1149821.947 6    930621.49546  25804967.3724
     -1657.609       -1291.644
  28157443.759    38500754.784 5
     -5920.125
  24355403.251     9427393.241 7   7363298.08843  24355397.4154
     -3717.719       -2896.924
  24643179.462     7262311.073 7   7592090.17043  24643173.5204
     -2285.500       -1780.909
  28057195.954     1593149.897 4   1226443.25443  28057198.4974
     -1326.328       -1033.502
  26114472.235      791798.603 7    643202.29046  26114472.7984
      -556.125        -433.344
 97  3  3 17 46 30.0130000  0  8  3  2 31 16 18 19 10 27
  27453873.610    11659807.699 6   5721303.58345  27453874.8884
     -3819.391       -2976.149
  27637168.462     -746793.335 5   -556942.69945  27637170.9814
        85.047          66.270
  25814483.126     1199831.613 6    969590.06646  25814483.7944
     -1676.531       -1306.388
  28191241.618    38678361.656 5
     -5920.281
  24376677.915     9539194.192 7   7450415.68543  24376672.0674
     -3735.734       -2910.962
  24656245.813     7330973.423 7   7645593.28743  24656239.7434
     -2291.844       -1785.852
  28064819.259     1633203.760 5   1257654.03444  28064822.1884
     -1344.203       -1047.431
  26117660.516      808553.197 6    656257.82546  26117661.4544
      -560.969        -437.119
 97  3  3 17 47  0.0130000  0  8  3  2 31 16 18 19 10 27
  27475727.790    11774651.333 6   5810792.11545  27475728.6454
     -3836.656       -2989.602
  27636705.743     -749222.791 5   -558835.73645  27636707.7594
        77.000          60.000
  25824110.048     1250422.849 6   1009011.81346  25824110.6814
     -1696.109       -1321.644
  28225040.751    38855977.259 5
     -5920.609
  24398056.626     9651539.606 7   7537957.54943  24398050.6144
     -3753.906       -2925.122
  24669348.282     7399828.072 7   7699246.27443  24669342.6814
     -2298.297       -1790.881
  28072546.360     1673810.077 5   1289295.32244  28072549.7594
     -1362.719       -1061.859
  26120877.587      825458.391 6    669430.70846  26120878.1384
      -565.719        -440.820
 97  3  3 17 47 30.0130000  0  8  3  2 31 16 18 19 10 27
  27497680.243    11890012.161 6   5900683.66445  27497682.1654
     -3853.906       -3003.044
  27636288.735     -751415.642 5   -560544.41145  27636291.1734
        69.281          53.985
  25833849.813     1301604.222 6   1048893.41046  25833850.4114
     -1715.969       -1337.119
  28258840.524    39033594.747 5
     -5920.375
  24419538.407     9764426.436 7   7625921.29443  24419532.2204
     -3771.516       -2938.843
  24682487.063     7468872.204 7   7753046.88143  24682481.6024
     -2304.641       -1795.824
  28080377.368     1714963.327 4   1321362.81743  28080380.3914
     -1380.609       -1075.800
  26124119.376      842495.030 6    682706.01946  26124119.8804
      -569.938        -444.107
 97  3  3 17 48  0.0130000  0  8  3  2 31 16 18 19 10 27
  27519731.626    12005892.898 6   5990980.31645  27519732.6574
     -3871.422       -3016.692
  27635915.587     -753377.742 5   -562073.27845  27635918.5754
        61.656          48.044
  25843703.993     1353389.339 6   1089245.45046  25843704.4504
     -1736.422       -1353.056
  28292638.688    39211203.730 5
     -5920.156
  24441119.766     9877836.518 7   7714292.76843  24441113.8604
     -3789.062       -2952.516
  24695664.438     7538120.257 7   7807006.39143  24695659.0594
     -2311.922       -1801.498
  28088311.134     1756652.842 5   1353848.13444  28088312.4704
     -1398.531       -1089.765
  26127383.954      859650.061 6    696073.58846  26127384.7044
      -573.438        -446.834
 97  3  3 17 48 30.0130000  0  8  3  2 31 16 18 19 10 27
  27541882.516    12122299.552 5   6081686.79045  27541884.1924
     -3889.000       -3030.390
  27635583.688     -755120.223 5   -563431.01945  27635586.5014
        54.797          42.699
  25853676.157     1405792.094 6   1130078.78046  25853676.5794
     -1757.125       -1369.188
  28326433.931    39388802.322 4
     -5919.766
  24462799.556     9991765.353 7   7803068.46743  24462793.5914
     -3806.109       -2965.800
  24708884.306     7607590.838 7   7861139.30443  24708878.1064
     -2319.312       -1807.256
  28096343.751     1798868.998 5   1386743.80944  28096346.8564
     -1415.844       -1103.255
  26130664.587      876891.936 6    709508.82946  26130665.7354
      -575.859        -448.722
 97  3  3 17 49  0.0130000  0  8  3  2 31 16 18 19 10 27
  27564133.946    12239231.795 6   6172802.81245  27564135.4114
     -3906.406       -3043.953
  27635291.040     -756658.805 5   -564629.88345  27635293.7354
        47.719          37.183
  25863766.134     1458815.452 7   1171395.69046  25863766.7204
     -1777.734       -1385.248
  28360229.587    39566397.142 4
     -5919.750
  24484576.446    10106203.439 7   7892240.98443  24484571.0914
     -3823.109       -2979.046
  24722146.681     7677285.704 7   7915446.97343  24722140.3174
     -2327.047       -1813.283
  28104475.079     1841596.333 5   1420037.85443  28104477.3644
     -1432.453       -1116.197
  26133958.806      894202.258 6    722997.38646  26133960.2474
      -578.000        -450.390
 97  3  3 17 49 30.0130000  0  8  3  2 31 16 18 19 10 27
  27586486.626    12356694.996 5   6264332.56345  27586487.8924
     -3924.484       -3058.040
  27635039.016     -757980.875 6   -565660.03645  27635041.3844
        40.469          31.534
  25873974.032     1512457.439 7   1213194.65146  25873974.8174
     -1798.281       -1401.258
  28394023.306    39743983.489 4
     -5919.203
  24506451.884    10221159.106 7   7981816.80443  24506445.6144
     -3840.547       -2992.634
  24735453.962     7747215.115 7   7969937.43343  24735448.2084
     -2334.891       -1819.395
  28112700.454     1884822.602 4   1453720.63443  28112703.1614
     -1449.188       -1129.237
  26137265.774      911581.172 6    736539.40546  26137266.8294
      -580.641        -452.447
 97  3  3 17 50  0.0130000  0  8  3  2 31 16 18 19 10 27
  27608941.665    12474696.915 5   6356282.10745  27608942.8604
     -3942.250       -3071.883
  27634828.259     -759089.115 6   -566523.58545  27634830.6614
        33.406          26.031
  25884296.704     1566705.249 6   1255465.68346  25884296.9974
     -1818.125       -1416.721
  28427813.032    39921549.148 4
     -5918.531
  24528427.493    10336642.122 7   8071803.56143  24528421.4114
     -3858.375       -3006.526
  24748805.243     7817376.869 7   8024608.90943  24748799.6304
     -2342.438       -1825.276
  28121021.774     1928552.490 5   1487795.87443  28121023.7554
     -1466.156       -1142.459
  26140588.063      929039.671 6    750143.43646  26140588.7314
      -583.234        -454.468
 97  3  3 17 50 30.0130000  0  8  3  2 31 16 18 19 10 27
  27631498.142    12593232.257 5   6448647.30945  27631499.9234
     -3960.109       -3085.800
  27634658.618     -759980.358 5   -567218.02545  27634661.6064
        26.031          20.284
  25894732.931     1621547.220 7   1298199.69646  25894733.3414
     -1837.891       -1432.123
  28461598.118    40099094.931 4
     -5917.859
  24550504.517    10452657.551 7   8162205.16743  24550498.7634
     -3875.953       -3020.223
  24762199.149     7887761.706 7   8079454.22843  24762193.4074
     -2349.781       -1830.998
  28129441.681     1972795.915 5   1522271.26443  28129443.7314
     -1483.484       -1155.962
  26143926.501      946583.068 6    763813.63046  26143927.0754
      -586.359        -456.903
 97  3  3 17 51  0.0140000  0  8  3  2 31 16 18 19 10 27
  27654157.396    12712304.890 6   6541431.14645  27654159.2954
     -3977.828       -3099.606
  27634532.771     -760642.803 5   -567734.19645  27634536.1114
        17.984          14.014
  25905281.529     1676979.556 7   1341393.73446  25905282.0454
     -1857.562       -1447.451
  28495379.646    40276615.831 4
     -5916.297
  24572682.178    10569202.549 7   8253019.44243  24572676.4824
     -3893.453       -3033.860
  24775634.037     7958363.593 7   8134468.67743  24775628.3534
     -2356.797       -1836.465
  28137961.529     2017570.112 5   1557160.21543  28137963.3224
     -1501.375       -1169.903
  26147283.982      964225.589 6    777561.05446  26147284.5454
      -589.703        -459.509
 97  3  3 17 51 30.0140000  0  8  3  2 31 16 18 19 10 27
  27676917.014    12831905.985 6   6634626.77845  27676919.1584
     -3995.641       -3113.486
  27634452.842     -761061.956 6   -568060.77545  27634455.2914
         9.750           7.597
  25915941.600     1732999.201 7   1385045.41846  25915942.3504
     -1877.266       -1462.804
  28529148.654    40454069.945 4
     -5914.203
  24594957.951    10686261.521 7   8344234.21143  24594952.3614
     -3910.547       -3047.179
  24789107.037     8029164.189 7   8189637.98443  24789101.2014
     -2363.438       -1841.640
  28146584.568     2062881.836 5   1592468.02344  28146585.7644
     -1519.531       -1184.050
  26150659.193      981963.315 6    791382.66646  26150659.8614
      -593.172        -462.212
 97  3  3 17 52  0.0140000  0  8  3  2 31 16 18 19 10 27
  27699776.467    12952036.646 6   6728235.08245  27699778.3184
     -4012.938       -3126.964
  27634421.725     -761227.409 6   -568189.67145  27634424.5374
         1.312           1.023
  25926715.068     1789614.789 7   1429161.46846  25926715.6894
     -1897.078       -1478.243
  28562907.889    40631478.581 4
     -5913.016
  24617329.318    10803824.652 7   8435841.81244  24617323.9514
     -3926.750       -3059.805
  24802618.943     8100170.262 7   8244967.38943  24802612.8614
     -2370.109       -1846.838
  28155311.224     2108743.968 5   1628204.75244  28155311.4714
     -1537.906       -1198.369
  26154056.115      999813.940 6    805292.24746  26154056.7364
      -596.719        -464.976
 97  3  3 17 52 30.0140000  0  8  3  2 31 16 18 19 10 27
  27722735.990    13072689.491 6   6822250.26545  27722737.5494
     -4030.562       -3140.698
  27634439.295     -761134.278 6   -568117.06845  27634441.9084
        -7.453          -5.808
  25937603.529     1846833.440 7   1473747.44046  25937603.9514
     -1917.422       -1494.095
  28596661.435    40808853.070 4
     -5912.016
  24639791.717    10921865.587 7   8527821.74244  24639786.3504
     -3942.672       -3072.212
  24816168.060     8171370.736 7   8300448.26843  24816162.3774
     -2376.578       -1851.879
  28164142.904     2155153.266 5   1664367.81844  28164144.3104
     -1556.047       -1212.504
  26157472.428     1017767.440 6    819281.99046  26157473.0724
      -600.188        -467.679
 97  3  3 17 53  0.0140000  0  8  3  2 31 16 18 19 10 27
  27745795.748    13193867.432 5   6916674.60745  27745797.2364
     -4048.000       -3154.286
  27634506.139     -760781.578 6   -567842.21345  27634508.8694
       -16.094         -12.541
  25948606.256     1904653.046 7   1518801.69146  25948606.7014
     -1937.375       -1509.643
  28630408.584    40986195.894 4
     -5910.969
  24662346.467    11040390.263 7   8620178.61043  24662340.5604
     -3959.188       -3085.081
  24829753.818     8242764.090 7   8356079.44843  24829748.0064
     -2383.078       -1856.944
  28173078.123     2202106.548 5   1700954.76944  28173079.6934
     -1574.156       -1226.615
  26160908.592     1035824.433 6    833352.38046  26160909.2834
      -603.656        -470.381
 97  3  3 17 53 30.0140000  0  8  3  2 31 16 18 19 10 27
  27768955.600    13315575.007 5   7011511.62445  27768958.2484
     -4065.500       -3167.922
  27634621.928     -760172.176 6   -567367.31445  27634624.9984
       -24.250         -18.896
  25959724.162     1963079.712 7   1564328.98146  25959724.6544
     -1957.547       -1525.361
  28664152.967    41163521.878 4
     -5910.688
  24684997.420    11159422.317 7   8712930.82643  24684991.6544
     -3976.109       -3098.267
  24843379.021     8314365.256 7   8411872.54943  24843373.9354
     -2390.156       -1862.459
  28182113.920     2249595.176 5   1737958.91643  28182116.6394
     -1591.531       -1240.154
  26164366.912     1053998.856 6    847514.27546  26164368.1194
      -607.969        -473.742
 97  3  3 17 54  0.0140000  0  8  3  2 31 16 18 19 10 27
  27792213.529    13437794.129 6   7106747.28645  27792215.2054
     -4082.422       -3181.108
  27634782.709     -759327.016 5   -566708.71945  27634785.5214
       -32.062         -24.984
  25970957.506     2022109.599 7   1610326.30246  25970958.1034
     -1977.750       -1541.104
  28697895.123    41340837.414 4
     -5910.172
  24707744.834    11278959.876 7   8806076.97943  24707738.3654
     -3993.141       -3111.538
  24857043.045     8386170.304 7   8467824.53043  24857037.5964
     -2396.719       -1867.573
  28191248.514     2297596.652 5   1775362.61144  28191250.8344
     -1608.469       -1253.352
  26167848.725     1072295.258 6    861771.21746  26167849.4754
      -611.516        -476.506
 97  3  3 17 54 30.0140000  0  8  3  2 31 16 18 19 10 27
  27815566.889    13560517.232 6   7202375.64145  27815567.6744
     -4098.938       -3193.977
  27634988.170     -758246.291 6   -565866.55645  27634990.7954
       -39.734         -30.962
  25982306.068     2081747.357 6   1656797.28746  25982306.4554
     -1997.922       -1556.822
  28731631.935    41518121.030 4
     -5908.500
  24730592.131    11399023.418 7   8899632.95543  24730586.3304
     -4011.016       -3125.467
  24870743.818     8458168.665 7   8523927.16743  24870738.6624
     -2403.172       -1872.601
  28200477.350     2346093.776 5   1813152.55544  28200479.7994
     -1624.516       -1265.856
  26171349.240     1090691.270 6    876105.77046  26171350.1194
      -614.844        -479.099
 97  3  3 17 55  0.0140000  0  8  3  2 31 16 18 19 10 27
  27839014.053    13683734.253 6   7298388.89445  27839015.2014
     -4115.516       -3206.895
  27635237.904     -756936.656 6   -564846.02545  27635240.2954
       -47.547         -37.050
  25993768.857     2141985.888 7   1703736.41546  25993769.2674
     -2018.094       -1572.541
  28765355.935    41695347.153 4
     -5906.484
  24753541.451    11519622.863 7   8993606.54343  24753535.1464
     -4028.812       -3139.334
  24884482.803     8530366.756 7   8580185.40443  24884477.2014
     -2410.078       -1877.983
  28209798.435     2395075.744 5   1851320.32344  28209800.8964
     -1640.875       -1278.604
  26174869.795     1109192.038 6    890521.96746  26174870.5574
      -618.531        -481.972
 97  3  3 17 55 30.0140000  0  8  3  2 31 16 18 19 10 27
  27862555.576    13807443.837 6   7394785.94145  27862557.8734
     -4131.906       -3219.667
  27635529.615     -755404.126 6   -563651.80645  27635532.0534
       -54.922         -42.796
  26005347.514     2202831.514 7   1751148.59946  26005347.9124
     -2038.375       -1588.344
  28799068.537    41872505.023 4
     -5904.109
  24776589.295    11640739.532 7   9087983.12943  24776583.9284
     -4045.719       -3152.508
  24898259.475     8602762.992 7   8636598.05343  24898253.6394
     -2416.297       -1882.829
  28219210.764     2444538.460 5   1889862.69944  28219212.3344
     -1656.906       -1291.096
  26178410.787     1127798.946 6    905020.86046  26178411.8304
      -621.953        -484.639
 97  3  3 17 56  0.0140000  0  8  3  2 31 16 18 19 10 27
  27886190.568    13931646.747 6   7491567.39545  27886191.9044
     -4148.422       -3232.537
  27635865.607     -753637.119 6   -562274.89245  27635868.7014
       -62.953         -49.054
  26017041.373     2264284.410 7   1799033.98146  26017041.7604
     -2058.406       -1603.953
  28832766.217    42049585.625 4
     -5901.125
  24799734.740    11762368.800 7   9182759.17843  24799728.9164
     -4062.969       -3165.950
  24912069.850     8675337.899 7   8693149.91543  24912063.9784
     -2422.125       -1887.370
  28228718.310     2494500.909 5   1928794.46544  28228720.2444
     -1673.906       -1304.343
  26181969.264     1146499.156 6    919592.46146  26181970.4354
      -624.734        -486.806
 97  3  3 17 56 30.0140000  0  8  3  2 31 16 18 19 10 27
  27909921.818    14056356.538 6   7588743.85045  27909923.4124
     -4165.688       -3245.990
  27636248.154     -751626.447 6   -560708.09645  27636251.0494
       -71.016         -55.337
  26028850.170     2326337.695 7   1847387.19646  26028850.7094
     -2078.500       -1619.610
  28866445.107    42226572.207 4
     -5898.141
  24822978.357    11884516.368 7   9277939.08643  24822972.4754
     -4080.094       -3179.294
  24925915.920     8748099.986 7   8749847.63843  24925910.1424
     -2428.812       -1892.581
  28238323.920     2544978.913 5   1968127.96144  28238327.4714
     -1691.453       -1318.015
  26185546.420     1165298.014 6    934240.93046  26185547.3574
      -628.641        -489.850
 97  3  3 17 57  0.0140000  0  8  3  2 31 16 18 19 10 27
  27933752.764    14181588.563 5   7686327.21945  27933753.8774
     -4183.156       -3259.602
  27636676.490     -749374.869 6   -558953.57245  27636679.1624
       -79.172         -61.692
  26040772.482     2388990.734 7   1896207.75246  26040773.0334
     -2098.438       -1635.146
  28900109.631    42403477.749 4
     -5895.625
  24846317.920    12007166.436 7   9373510.54843  24846312.0604
     -4096.672       -3192.212
  24939801.131     8821067.080 7   8806705.11943  24939795.3304
     -2435.703       -1897.950
  28248034.170     2596001.987 5   2007886.19844  28248036.0334
     -1710.172       -1332.601
  26189146.170     1184215.351 6    948981.71246  26189147.0144
      -632.578        -492.918
 97  3  3 17 57 30.0140000  0  8  3  2 31 16 18 19 10 27
  27957681.795    14307336.216 5   7784312.37645  27957683.3894
     -4200.156       -3272.849
  27637150.170     -746885.146 6   -557013.47945  27637152.7014
       -87.188         -67.938
  26052808.170     2452239.984 7   1945492.89246  26052808.6154
     -2118.281       -1650.609
  28933758.951    42580306.254 4
     -5893.062
  24869752.482    12130317.235 7   9469472.18443  24869746.1074
     -4113.656       -3205.446
  24953725.170     8894239.010 7   8863722.20643  24953719.9434
     -2442.562       -1903.295
  28257848.990     2647582.336 5   2048078.64245  28257850.4904
     -1728.688       -1347.029
  26192767.818     1203247.712 6    963812.12946  26192768.6744
      -636.391        -495.889
 97  3  3 17 58  0.0140000  0  8  3  2 31 16 18 19 10 27
  27981707.935    14433596.458 5   7882696.95245  27981710.8774
     -4217.141       -3286.084
  27637673.021     -744137.871 6   -554872.69345  27637675.1784
       -95.828         -74.671
  26064957.217     2516083.093 7   1995240.76646  26064957.9554
     -2137.953       -1665.938
  28967392.584    42757058.174 3
     -5890.438
  24893285.998    12253985.168 7   9565836.78743  24893280.2794
     -4130.797       -3218.803
  24967690.834     8967629.138 7   8920909.31643  24967684.9514
     -2450.297       -1909.322
  28267771.232     2699722.456 5   2088707.31544  28267774.3264
     -1747.141       -1361.408
  26196412.982     1222402.098 6    978737.63646  26196414.0144
      -640.641        -499.200
 97  3  3 17 58 30.0140000  0  8  3  2 31 16 18 19 10 27
  28005830.865    14560360.006 5   7981473.72645  28005832.4714
     -4233.516       -3298.843
  27638244.006     -741138.253 6   -552535.30345  27638246.0924
      -104.016         -81.051
  26077219.303     2580520.217 7   2045451.51646  26077220.0174
     -2157.844       -1681.437
  29001015.818    42933743.803 3
     -5888.641
  24916914.490    12378153.642 7   9662591.42443  24916908.1034
     -4147.047       -3231.465
  24981702.521     9041260.178 7   8978284.14343  24981696.6034
     -2458.297       -1915.556
  28277797.084     2752410.272 5   2129762.74444  28277798.9004
     -1765.344       -1375.593
  26200082.623     1241686.522 6    993764.45346  26200083.7134
      -644.734        -502.390
 97  3  3 17 59  0.0140000  0  8  3  2 31 16 18 19 10 27
  28030043.076    14687596.795 5   8080619.25245  28030044.5764
     -4248.969       -3310.885
  27638862.076     -737890.023 6   -550004.17645  27638864.4554
      -112.562         -87.711
  26089593.771     2645547.487 7   2096122.12046  26089594.1584
     -2177.297       -1696.595
  29034628.100    43110376.200 4
     -5886.797
  24940636.107    12502811.635 7   9759727.50343  24940630.7174
     -4163.547       -3244.322
  24995757.725     9115121.779 7   9035838.64043  24995752.1234
     -2465.781       -1921.388
  28287928.092     2805648.112 5   2171246.73644  28287930.2254
     -1783.688       -1389.886
  26203773.662     1261082.791 6   1008878.42846  26203774.8224
      -648.359        -505.215
 97  3  3 17 59 30.0140000  0  8  3  2 31 16 18 19 10 27
  28054343.568    14815297.156 5   8180126.00244  28054345.5964
     -4264.438       -3322.938
  27639529.209     -734384.703 6   -547272.73045  27639532.2914
      -121.359         -94.566
  26102080.068     2711166.133 7   2147253.53446  26102080.7134
     -2197.453       -1712.301
  29068228.951    43286951.420 3
     -5885.062
  24964452.623    12627967.737 7   9857251.72943  24964446.6234
     -4180.312       -3257.386
  25009856.435     9189209.644 7   9093569.43643  25009851.0454
     -2473.578       -1927.463
  28298160.420     2859422.569 5   2213148.88444  28298161.8264
     -1801.453       -1403.730
  26207486.178     1280592.250 7   1024080.61346  26207487.1154
      -652.406        -508.369
 97  3  3 18  0  0.0140000  0  8  3  2 31 16 18 19 10 27
  28078731.475    14943457.758 5   8279991.40744  28078733.2674
     -4279.625       -3334.773
  27640245.607     -730618.218 6   -544337.76045  27640248.3144
      -129.609        -100.994
  26114682.381     2777392.025 7   2198858.13146  26114682.8144
     -2217.812       -1728.166
  29101820.037    43463473.643 3
     -5883.203
  24988362.912    12753616.783 7   9955160.04043  24988356.6194
     -4196.375       -3269.903
  25023998.967     9263528.648 7   9151480.35243  25023993.3074
     -2481.250       -1933.442
  28308495.178     2913730.822 5   2255467.00445  28308498.0254
     -1819.250       -1417.597
  26211221.115     1300218.489 7   1039373.78446  26211222.2054
      -656.078        -511.230
 97  3  3 18  0 30.0140000  0  8  3  2 31 16 18 19 10 27
  28103207.146    15072078.891 5   8380215.61944  28103210.0064
     -4295.141       -3346.863
  27641008.232     -726609.687 6   -541214.19545  27641010.9394
      -137.625        -107.240
  26127403.420     2844238.731 7   2250946.47146  26127403.8654
     -2238.562       -1744.334
  29135400.943    43639941.232 3
     -5881.078
  25012366.560    12879757.627 7  10053451.59943  25012361.0884
     -4213.156       -3282.979
  25038185.467     9338080.093 7   9209572.37143  25038179.6894
     -2488.750       -1939.286
  28318933.428     2968580.742 5   2298207.18745  28318935.1624
     -1837.453       -1431.782
  26214976.373     1319952.696 7   1054751.08946  26214977.2874
      -659.469        -513.872
 97  3  3 18  1  0.0150000  0  8  3  2 31 16 18 19 10 27
  28127774.651    15201178.855 5   8480812.95944  28127776.8194
     -4311.250       -3359.416
  27641817.948     -722355.254 6   -537899.00645  27641820.5154
      -145.828        -113.632
  26140242.862     2911711.949 7   2303523.00346  26140243.4364
     -2259.375       -1760.552
  29168967.550    43816336.239 3
     -5877.891
  25036468.581    13006414.513 7  10152145.24843  25036462.6404
     -4230.203       -3296.262
  25052414.987     9412856.845 7   9267839.98043  25052409.4684
     -2496.141       -1945.045
  28329474.401     3023976.234 5   2341372.46544  28329476.1004
     -1855.141       -1445.564
  26218751.698     1339792.350 7   1070210.56446  26218752.6594
      -662.984        -516.611
 97  3  3 18  1 30.0150000  0  8  3  2 31 16 18 19 10 27
  28152432.886    15330760.483 5   8581785.65243  28152435.4874
     -4327.422       -3372.017
  27642671.401     -717871.136 6   -534404.85145  27642674.3544
      -153.141        -119.330
  26153202.081     2979812.324 7   2356588.22946  26153202.6434
     -2280.750       -1777.208
  29202512.729    43992613.850 3
     -5873.938
  25060665.862    13133572.010 7  10251228.98443  25060659.8274
     -4247.031       -3309.375
  25066684.776     9487845.719 7   9326272.86743  25066679.0464
     -2503.047       -1950.426
  28340112.347     3079878.263 5   2384932.47545  28340114.2924
     -1871.812       -1458.555
  26222544.597     1359723.178 7   1085741.08346  26222545.3474
      -665.719        -518.742
 97  3  3 18  2  0.0150000  0  8  3  2 31 16 18 19 10 27
  28177184.573    15460830.125 5   8683138.58744  28177187.5264
     -4344.109       -3385.020
  27643564.979     -713174.837 6   -530745.35645  27643567.2294
      -160.125        -124.773
  26166282.229     3048549.214 7   2410149.44646  26166282.8744
     -2301.859       -1793.657
  29236034.057    44168770.049 3
     -5869.906
  25084958.995    13261232.509 7  10350704.70443  25084953.0074
     -4263.812       -3322.451
  25080992.229     9563032.449 7   9384859.91243  25080986.3004
     -2509.469       -1955.430
  28350845.565     3136283.871 5   2428884.90345  28350847.1834
     -1888.656       -1471.680
  26226350.503     1379724.687 7   1101326.67746  26226351.4404
      -667.797        -520.361
 97  3  3 18  2 30.0150000  0  8  3  2 31 16 18 19 10 27
  28202032.206    15591411.014 5   8784889.91343  28202035.3704
     -4361.172       -3398.316
  27644501.901     -708252.765 6   -526909.93545  27644504.0344
      -167.875        -130.812
  26179482.847     3117918.278 7   2464203.26146  26179483.5034
     -2322.562       -1809.789
  29269532.112    44344804.786 3
     -5865.688
  25109349.761    13389406.840 7  10450580.76243  25109343.2334
     -4280.906       -3335.771
  25095335.940     9638408.228 7   9443594.29443  25095329.8114
     -2515.359       -1960.020
  28361676.089     3193200.057 5   2473235.15844  28361678.0344
     -1905.625       -1484.903
  26230168.987     1399790.224 7   1116962.16646  26230169.7024
      -669.812        -521.932
 97  3  3 18  3  0.0150000  0  8  3  2 31 16 18 19 10 27
  28226977.581    15722493.576 5   8887032.13743  28226980.8624
     -4377.844       -3411.307
  27645481.901     -703100.395 6   -522895.06645  27645484.2804
      -175.734        -136.936
  26192800.018     3187900.572 6   2518734.92446  26192800.6044
     -2343.125       -1825.812
  29303007.643    44520716.478 3
     -5861.969
  25133834.722    13518078.518 7  10550844.37043  25133829.3194
     -4297.266       -3348.519
  25109712.667     9713958.509 7   9502464.62943  25109706.8314
     -2521.469       -1964.781
  28372603.292     3250620.551 5   2517978.40544  28372606.5264
     -1922.594       -1498.125
  26233999.097     1419917.554 7   1132645.80446  26233999.6714
      -672.219        -523.807
 97  3  3 18  3 30.0150000  0  7  3  2 31 18 19 10 27
  28252017.722    15854083.431 5   8989569.66743  28252019.2924
     -4394.656       -3424.407
  27646508.464     -697706.731 6   -518692.18045  27646510.9134
      -183.891        -143.291
  26206235.511     3258503.894 7   2573750.49346  26206236.0734
     -2363.688       -1841.834
  25158414.229    13647243.158 7  10651492.12643  25158409.0154
     -4313.547       -3361.205
  25124125.347     9789696.622 7   9561481.34343  25124119.6164
     -2527.656       -1969.602
  28383629.237     3308561.992 5   2563127.54644  28383630.5504
     -1940.359       -1511.968
  26237844.597     1440125.310 7   1148392.11546  26237845.1714
      -675.156        -526.096
 97  3  3 18  4  0.0150000  0  7  3  2 31 18 19 10 27
  28277153.354    15986170.699 5   9092494.76144  28277154.1404
     -4411.141       -3437.252
  27647581.667     -692066.950 6   -514297.51046  27647583.9644
      -192.250        -149.805
  26219784.440     3329705.741 6   2629232.45246  26219785.2494
     -2383.094       -1856.956
  25183083.667    13776881.692 7  10752509.15543  25183077.6904
     -4329.125       -3373.344
  25138573.534     9865623.052 7   9620644.77143  25138567.4994
     -2534.219       -1974.716
  28394757.089     3367040.962 5   2608695.57544  28394759.1284
     -1958.203       -1525.873
  26241707.831     1460427.027 7   1164211.64246  26241708.4294
      -678.391        -528.616
